[[{"header":{"parameterUnit":"m.s-1","parameterCategory":1,"la1":31.0,"la2":29.5877,"lo1":-88.7671,"lo2":-86.6584,"dy":0.0162,"dx":0.0185,"nx":115,"ny":88,"refTime":"2025-05-17T12:00:00:Z","depth":0,"parameterNumber":2,"parameterNumberName":"U-component_of_WINDS"},"data":[0.0,0.0,0.0,0.0,0.0,0.0,0.0,0.0,0.0,0.0,0.0,0.0,0.0,0.0,0.0,0.0,0.0,0.0,0.0,0.0,0.0,0.0,0.0,0.0,0.0,0.0,0.0,0.0,0.0,0.0,0.0,0.0,0.0,0.0,0.0,0.0,0.0,0.0,0.0,0.0,0.0,0.0,0.0,0.0,0.0,0.0,0.0,0.0,0.0,0.0,0.0,0.0,0.0,0.0,0.0,0.0,0.0,0.0,0.0,0.0,0.0,0.0,0.0,0.0,0.0,0.0,0.0,0.0,0.0,0.0,0.0,0.0,0.0,0.0,0.0,0.0,0.0,0.0,0.0,0.0,0.0,0.0,0.0,0.0,0.0,0.0,0.0,0.0,0.0,0.0,0.0,0.0,0.0,0.0,0.0,0.0,0.0,0.0,0.0,0.0,0.0,0.0,0.0,0.0,0.0,0.0,0.0,0.0,0.0,0.0,0.0,0.0,0.0,0.0,0.0,0.0,0.0,0.0,0.0,0.0,0.0,0.0,0.0,0.0,0.0,0.0,0.0,0.0,0.0,0.0,0.0,0.0,0.0,0.0,0.0,0.0,0.0,0.0,0.0,0.0,0.0,0.0,0.0,0.0,0.0,0.0,0.0,0.0,0.0,0.0,0.0,0.0,0.0,0.0,0.0,0.0,0.0,0.0,0.0,0.0,0.0,0.0,0.0,0.0,0.0,0.0,0.0,0.0,0.0,0.0,0.0,0.0,0.0,0.0,0.0,0.0,0.0,0.0,0.0,0.0,0.0,0.0,0.0,0.0,0.0,0.0,0.0,0.0,0.0,0.0,0.0,0.0,0.0,0.0,0.0,0.0,0.0,0.0,0.0,0.0,0.0,0.0,0.0,0.0,0.0,0.0,0.0,0.0,0.0,0.0,0.0,0.0,0.0,0.0,0.0,0.0,0.0,0.0,0.0,0.0,0.0,0.0,0.0,0.0,0.0,0.0,0.0,0.0,0.0,0.0,0.0,0.0,0.0,0.0,0.0,0.0,0.0,0.0,0.0,0.0,0.0,0.0,0.0,0.0,0.0,0.0,0.0,0.0,0.0,0.0,0.0,0.0,0.0,0.0,0.0,0.0,0.0,0.0,0.0,0.0,0.0,0.0,0.0,0.0,0.0,0.0,0.0,0.0,0.0,0.0,0.0,0.0,0.0,0.0,0.0,0.0,0.0,0.0,0.0,0.0,0.0,0.0,0.0,0.0,0.0,0.0,0.0,0.0,0.0,0.0,0.0,0.0,0.0,0.0,0.0,0.0,0.0,0.0,0.0,0.0,0.0,0.0,0.0,0.0,0.0,0.0,0.0,0.0,0.0,0.0,0.0,0.0,0.0,0.0,0.0,0.0,0.0,0.0,0.0,0.0,0.0,0.0,0.0,0.0,0.0,0.0,0.0,0.0,0.0,0.0,0.0,0.0,0.0,0.0,0.0,0.0,0.0,0.0,0.0,0.0,0.0,0.0,0.0,0.0,0.0,0.0,0.0,0.0,0.0,0.0,0.0,0.0,0.0,0.0,0.0,0.0,0.0,0.0,0.0,0.0,0.0,0.0,0.0,0.0,0.0,0.0,0.0,0.0,0.0,0.0,0.0,0.0,0.0,0.0,0.0,0.0,0.0,0.0,0.0,0.0,0.0,0.0,0.0,0.0,0.0,0.0,0.0,0.0,0.0,0.0,0.0,0.0,0.0,0.0,0.0,0.0,0.0,0.0,0.0,0.0,0.0,0.0,0.0,0.0,0.0,0.0,0.0,0.0,0.0,0.0,0.0,0.0,0.0,0.0,0.0,0.0,0.0,0.0,0.0,0.0,0.0,0.0,0.0,0.0,0.0,0.0,0.0,0.0,0.0,0.0,0.0,0.0,0.0,0.0,0.0,0.0,0.0,0.0,0.0,0.0,0.0,0.0,0.0,0.0,0.0,0.0,0.0,0.0,0.0,0.0,0.0,0.0,0.0,0.0,0.0,0.0,0.0,0.0,0.0,0.0,0.0,0.0,0.0,0.0,0.0,0.0,0.0,0.0,0.0,0.0,0.0,0.0,0.0,0.0,0.0,0.0,0.0,0.0,0.0,0.0,0.0,0.0,0.0,0.0,0.0,0.0,0.0,0.0,0.0,0.0,0.0,0.0,0.0,0.0,0.0,0.0,0.0,0.0,0.0,0.0,0.0,0.0,0.0,0.0,0.0,0.0,0.0,0.0,0.0,0.0,0.0,0.0,0.0,0.0,0.0,0.0,0.0,0.0,0.0,0.0,0.0,0.0,0.0,0.0,0.0,0.0,0.0,0.0,0.0,0.0,0.0,0.0,0.0,0.0,0.0,0.0,0.0,0.0,0.0,0.0,0.0,0.0,0.0,0.0,0.0,0.0,0.0,0.0,0.0,0.0,0.0,0.0,0.0,0.0,0.0,0.0,0.0,0.0,0.0,0.0,0.0,0.0,0.0,0.0,0.0,0.0,0.0,0.0,0.0,0.0,0.0,0.0,0.0,0.0,0.0,0.0,0.0,0.0,0.0,0.0,0.0,0.0,0.0,0.0,0.0,0.0,0.0,0.0,0.0,0.0,0.0,0.0,0.0,0.0,0.0,0.0,0.0,0.0,0.0,0.0,0.0,0.0,0.0,0.0,0.0,0.0,0.0,0.0,0.0,0.0,0.0,0.0,0.0,0.0,0.0,0.0,0.0,0.0,0.0,0.0,0.0,0.0,0.0,0.0,0.0,0.0,0.0,0.0,0.0,0.0,0.0,0.0,0.0,0.0,0.0,0.0,0.0,0.0,0.0,0.0,0.0,0.0,0.0,0.0,0.0,0.0,0.0,0.0,0.0,0.0,0.0,0.0,0.0,0.0,0.0,0.0,0.0,0.0,0.0,0.0,0.0,0.0,0.0,0.0,0.0,0.0,0.0,0.0,0.0,0.0,0.0,0.0,0.0,0.0,0.0,0.0,0.0,0.0,0.0,0.0,0.0,0.0,0.0,0.0,0.0,0.0,0.0,0.0,0.0,0.0,0.0,0.0,0.0,0.0,0.0,0.0,0.0,0.0,0.0,0.0,0.0,0.0,0.0,0.0,0.0,0.0,0.0,0.0,0.0,0.0,0.0,0.0,0.0,0.0,0.0,0.0,0.0,0.0,0.0,0.0,0.0,0.0,0.0,0.0,0.0,0.0,0.0,0.0,0.0,0.0,0.0,0.0,0.0,0.0,0.0,0.0,0.0,0.0,0.0,0.0,0.0,0.0,0.0,0.0,0.0,0.0,0.0,0.0,0.0,0.0,0.0,0.0,0.0,0.0,0.0,0.0,0.0,0.0,0.0,0.0,0.0,0.0,0.0,0.0,0.0,0.0,0.0,0.0,0.0,0.0,0.0,0.0,0.0,0.0,0.0,0.0,0.0,0.0,0.0,0.0,0.0,0.0,0.0,0.0,0.0,0.0,0.0,0.0,0.0,0.0,0.0,0.0,0.0,0.0,0.0,0.0,0.0,0.0,0.0,0.0,0.0,0.0,0.0,0.0,0.0,0.0,0.0,0.0,0.0,0.0,0.0,0.0,0.0,0.0,0.0,0.0,0.0,0.0,0.0,0.0,0.0,0.0,0.0,0.0,0.0,0.0,0.0,0.0,0.0,0.0,0.0,0.0,0.0,0.0,0.0,0.0,0.0,0.0,0.0,0.0,0.0,0.0,0.0,0.0,0.0,0.0,0.0,0.0,0.0,0.0,0.0,0.0,0.0,0.0,0.0,0.0,0.0,0.0,0.0,0.0,0.0,0.0,0.0,0.0,0.0,0.0,0.0,0.0,0.0,0.0,0.0,0.0,0.0,0.0,0.0,0.0,0.0,0.0,0.0,0.0,0.0,0.0,0.0,0.0,0.0,0.0,0.0,0.0,0.0,0.0,0.0,0.0,0.0,0.0,0.0,0.0,0.0,0.0,0.0,0.0,0.0,0.0,0.0,0.0,0.0,0.0,0.0,0.0,0.0,0.0,0.0,0.0,0.0,0.0,0.0,0.0,0.0,0.0,0.0,0.0,0.0,0.0,0.0,0.0,0.0,0.0,0.0,0.0,0.0,0.0,0.0,0.0,0.0,0.0,0.0,0.0,0.0,0.0,0.0,0.0,0.0,0.0,0.0,0.0,0.0,0.0,0.0,0.0,0.0,0.0,0.0,0.0,0.0,0.0,0.0,0.0,0.0,0.0,0.0,0.0,0.0,0.0,0.0,0.0,0.0,0.0,-1.2156,0.0,0.0,0.0,0.0,0.0,0.0,0.0,0.0,0.0,0.0,0.0,0.0,0.0,0.0,0.0,0.0,0.0,0.0,0.0,0.0,0.0,0.0,0.0,0.0,0.0,0.0,0.0,0.0,0.0,0.0,0.0,0.0,0.0,0.0,0.0,0.0,0.0,0.0,0.0,0.0,0.0,0.0,0.0,0.0,0.0,0.0,0.0,0.0,0.0,0.0,0.0,0.0,0.0,0.0,0.0,0.0,0.0,0.0,0.0,0.0,0.0,0.0,0.0,0.0,0.0,0.0,0.0,0.0,0.0,0.0,0.0,0.0,0.0,0.0,0.0,0.0,0.0,0.0,0.0,0.0,0.0,0.0,0.0,0.0,0.0,0.0,0.0,0.0,0.0,0.0,0.0,0.0,0.0,0.0,0.0,0.0,0.0,0.0,0.0,0.0,0.0,0.0,0.0,0.0,0.0,0.0,0.0,0.0,0.0,0.0,-1.3363,-1.3329,-1.3277,-1.3057,-1.2655,0.0,0.0,0.0,0.0,0.0,0.0,0.0,0.0,0.0,0.0,0.0,0.0,0.0,0.0,0.0,0.0,0.0,0.0,0.0,0.0,0.0,0.0,0.0,0.0,0.0,0.0,0.0,0.0,0.0,0.0,0.0,0.0,0.0,0.0,0.0,0.0,0.0,0.0,0.0,0.0,0.0,0.0,0.0,0.0,0.0,0.0,0.0,0.0,0.0,0.0,0.0,0.0,0.0,0.0,0.0,0.0,0.0,0.0,0.0,0.0,0.0,0.0,0.0,0.0,0.0,0.0,0.0,0.0,0.0,0.0,0.0,0.0,0.0,0.0,0.0,0.0,0.0,0.0,0.0,0.0,0.0,0.0,0.0,0.0,0.0,0.0,0.0,0.0,0.0,0.0,0.0,0.0,0.0,0.0,0.0,0.0,0.0,0.0,0.0,0.0,0.0,0.0,0.0,0.0,0.0,0.0,0.0,0.0,0.0,0.0,0.0,0.0,-1.3207,-1.3118,-1.2977,0.0,0.0,0.0,0.0,0.0,0.0,0.0,0.0,0.0,0.0,0.0,0.0,0.0,0.0,0.0,0.0,0.0,0.0,0.0,0.0,0.0,0.0,0.0,0.0,0.0,0.0,0.0,0.0,0.0,0.0,0.0,0.0,0.0,0.0,0.0,0.0,0.0,0.0,0.0,0.0,0.0,0.0,0.0,0.0,0.0,0.0,0.0,0.0,0.0,0.0,0.0,0.0,0.0,0.0,0.0,0.0,0.0,0.0,0.0,0.0,0.0,0.0,0.0,0.0,0.0,0.0,0.0,0.0,0.0,0.0,0.0,0.0,0.0,0.0,0.0,0.0,0.0,0.0,0.0,0.0,0.0,0.0,0.0,0.0,0.0,0.0,0.0,0.0,0.0,0.0,0.0,0.0,0.0,0.0,0.0,0.0,0.0,0.0,0.0,0.0,0.0,0.0,0.0,0.0,0.0,0.0,0.0,0.0,0.0,0.0,-1.3226,-1.3224,-1.3154,0.0,-1.2617,0.0,0.0,0.0,0.0,0.0,0.0,0.0,0.0,0.0,0.0,0.0,0.0,0.0,0.0,0.0,0.0,0.0,0.0,0.0,0.0,0.0,0.0,0.0,0.0,0.0,0.0,0.0,0.0,0.0,0.0,0.0,0.0,0.0,0.0,0.0,0.0,0.0,0.0,0.0,0.0,0.0,0.0,0.0,0.0,0.0,0.0,0.0,0.0,0.0,0.0,0.0,0.0,0.0,0.0,0.0,0.0,0.0,0.0,0.0,0.0,0.0,0.0,0.0,0.0,0.0,0.0,0.0,0.0,0.0,0.0,0.0,0.0,0.0,0.0,0.0,0.0,0.0,0.0,0.0,0.0,0.0,0.0,0.0,0.0,0.0,0.0,0.0,0.0,0.0,0.0,0.0,0.0,0.0,0.0,0.0,0.0,0.0,0.0,0.0,0.0,0.0,0.0,0.0,0.0,0.0,0.0,0.0,0.0,0.0,0.0,-1.3121,-1.3084,-1.294,-1.2738,0.0,0.0,0.0,0.0,0.0,0.0,0.0,0.0,0.0,0.0,0.0,0.0,0.0,0.0,0.0,0.0,0.0,0.0,0.0,0.0,0.0,0.0,0.0,0.0,0.0,0.0,0.0,0.0,0.0,0.0,0.0,0.0,0.0,0.0,0.0,0.0,0.0,0.0,0.0,0.0,0.0,0.0,0.0,0.0,0.0,0.0,0.0,0.0,0.0,0.0,0.0,0.0,0.0,0.0,0.0,0.0,0.0,0.0,0.0,0.0,0.0,0.0,0.0,0.0,0.0,0.0,0.0,0.0,0.0,0.0,0.0,0.0,0.0,0.0,0.0,0.0,0.0,0.0,0.0,0.0,0.0,0.0,0.0,0.0,0.0,0.0,0.0,0.0,0.0,0.0,0.0,0.0,0.0,0.0,0.0,0.0,0.0,0.0,0.0,0.0,0.0,0.0,0.0,0.0,0.0,0.0,0.0,0.0,0.0,0.0,-1.2702,0.0,-1.2887,-1.2703,-1.2447,-1.2081,0.0,0.0,0.0,0.0,0.0,0.0,0.0,0.0,0.0,0.0,0.0,0.0,0.0,0.0,0.0,0.0,0.0,0.0,0.0,0.0,0.0,0.0,0.0,0.0,0.0,0.0,0.0,0.0,0.0,0.0,0.0,0.0,0.0,0.0,0.0,0.0,0.0,0.0,0.0,0.0,0.0,0.0,0.0,0.0,0.0,0.0,0.0,0.0,0.0,0.0,0.0,0.0,0.0,0.0,0.0,0.0,0.0,0.0,0.0,0.0,0.0,0.0,0.0,0.0,0.0,0.0,0.0,0.0,0.0,0.0,0.0,0.0,0.0,0.0,0.0,0.0,0.0,0.0,0.0,0.0,0.0,0.0,0.0,0.0,0.0,0.0,0.0,0.0,0.0,0.0,0.0,0.0,0.0,0.0,0.0,0.0,0.0,0.0,0.0,0.0,0.0,0.0,0.0,0.0,0.0,0.0,0.0,0.0,0.0,-1.2562,-1.2794,-1.263,-1.2487,-1.205,0.0,0.0,0.0,0.0,0.0,0.0,0.0,0.0,0.0,0.0,0.0,0.0,0.0,0.0,0.0,0.0,0.0,0.0,0.0,0.0,0.0,0.0,0.0,0.0,0.0,0.0,0.0,0.0,0.0,0.0,0.0,0.0,0.0,0.0,0.0,0.0,0.0,0.0,0.0,0.0,0.0,0.0,0.0,0.0,0.0,0.0,0.0,0.0,0.0,0.0,0.0,0.0,0.0,0.0,0.0,0.0,0.0,0.0,0.0,0.0,0.0,0.0,0.0,0.0,0.0,0.0,0.0,0.0,0.0,0.0,0.0,0.0,0.0,0.0,0.0,0.0,0.0,0.0,0.0,0.0,0.0,0.0,0.0,0.0,0.0,0.0,0.0,0.0,0.0,0.0,0.0,0.0,0.0,0.0,0.0,0.0,0.0,0.0,0.0,0.0,0.0,0.0,0.0,0.0,0.0,0.0,0.0,0.0,0.0,-1.1043,-1.21,-1.2562,-1.2412,-1.2287,-1.184,0.0,0.0,0.0,0.0,0.0,0.0,0.0,0.0,0.0,0.0,0.0,0.0,0.0,0.0,0.0,0.0,0.0,0.0,0.0,0.0,0.0,0.0,0.0,0.0,0.0,0.0,0.0,0.0,0.0,0.0,0.0,0.0,0.0,0.0,0.0,0.0,0.0,0.0,0.0,0.0,0.0,0.0,0.0,0.0,0.0,0.0,0.0,0.0,0.0,0.0,0.0,0.0,0.0,0.0,0.0,0.0,0.0,0.0,0.0,0.0,0.0,0.0,0.0,0.0,0.0,0.0,0.0,0.0,0.0,0.0,0.0,0.0,0.0,0.0,0.0,0.0,0.0,0.0,0.0,0.0,0.0,0.0,0.0,0.0,0.0,0.0,0.0,0.0,0.0,0.0,0.0,0.0,0.0,0.0,0.0,0.0,0.0,0.0,0.0,0.0,0.0,0.0,0.0,0.0,0.0,0.0,0.0,0.0,0.0,-1.1094,0.0,-1.2318,0.0,-1.2045,-1.1595,0.0,0.0,0.0,0.0,0.0,0.0,0.0,0.0,0.0,0.0,0.0,0.0,0.0,0.0,0.0,0.0,0.0,0.0,0.0,0.0,0.0,0.0,0.0,0.0,0.0,0.0,0.0,0.0,0.0,0.0,0.0,0.0,0.0,0.0,0.0,0.0,0.0,0.0,0.0,0.0,0.0,0.0,0.0,0.0,0.0,0.0,0.0,0.0,0.0,0.0,0.0,0.0,0.0,0.0,0.0,0.0,0.0,0.0,0.0,0.0,0.0,0.0,0.0,0.0,0.0,0.0,0.0,0.0,0.0,0.0,0.0,0.0,0.0,0.0,0.0,0.0,0.0,0.0,0.0,0.0,0.0,0.0,0.0,0.0,0.0,0.0,0.0,0.0,0.0,0.0,0.0,0.0,0.0,0.0,0.0,0.0,0.0,0.0,0.0,0.0,0.0,0.0,0.0,0.0,0.0,0.0,0.0,0.0,-1.1108,-1.2225,-1.219,-1.2146,-1.2021,-1.185,-1.135,0.0,0.0,0.0,0.0,0.0,0.0,0.0,0.0,0.0,0.0,0.0,0.0,0.0,0.0,0.0,0.0,0.0,0.0,0.0,0.0,0.0,0.0,0.0,0.0,0.0,0.0,0.0,0.0,0.0,0.0,0.0,0.0,0.0,0.0,0.0,0.0,0.0,0.0,0.0,0.0,0.0,0.0,0.0,0.0,0.0,0.0,0.0,0.0,0.0,0.0,0.0,0.0,0.0,0.0,0.0,0.0,0.0,0.0,0.0,0.0,0.0,0.0,0.0,0.0,0.0,0.0,0.0,0.0,0.0,0.0,0.0,0.0,0.0,0.0,0.0,0.0,0.0,0.0,0.0,0.0,0.0,0.0,0.0,0.0,0.0,0.0,0.0,0.0,0.0,0.0,0.0,0.0,0.0,0.0,0.0,0.0,0.0,0.0,0.0,0.0,0.0,0.0,0.0,0.0,0.0,0.0,0.0,0.0,0.0,-1.2688,-1.2989,-1.3069,-1.2957,-1.241,-1.1707,0.0,0.0,0.0,0.0,0.0,0.0,0.0,0.0,0.0,0.0,0.0,0.0,0.0,0.0,0.0,0.0,0.0,0.0,0.0,0.0,0.0,0.0,0.0,0.0,0.0,0.0,0.0,0.0,0.0,0.0,0.0,0.0,0.0,0.0,0.0,0.0,0.0,0.0,0.0,0.0,0.0,0.0,0.0,0.0,0.0,0.0,0.0,0.0,0.0,0.0,0.0,0.0,0.0,0.0,0.0,0.0,0.0,0.0,0.0,0.0,0.0,0.0,0.0,0.0,0.0,0.0,0.0,0.0,0.0,0.0,0.0,0.0,0.0,0.0,0.0,0.0,0.0,0.0,0.0,0.0,0.0,0.0,0.0,0.0,0.0,0.0,0.0,0.0,0.0,0.0,0.0,0.0,0.0,0.0,0.0,0.0,0.0,0.0,0.0,0.0,0.0,0.0,0.0,0.0,0.0,0.0,0.0,0.0,0.0,-1.3776,-1.3895,-1.387,-1.37,-1.3193,-1.2386,-1.1283,0.0,0.0,0.0,0.0,0.0,0.0,0.0,0.0,0.0,0.0,0.0,0.0,0.0,0.0,0.0,0.0,0.0,0.0,0.0,0.0,0.0,0.0,0.0,0.0,0.0,0.0,0.0,0.0,0.0,0.0,0.0,0.0,0.0,0.0,0.0,0.0,0.0,0.0,0.0,0.0,0.0,0.0,0.0,0.0,0.0,0.0,0.0,0.0,0.0,0.0,0.0,0.0,0.0,0.0,0.0,0.0,0.0,0.0,0.0,0.0,0.0,0.0,0.0,0.0,0.0,0.0,0.0,0.0,0.0,0.0,0.0,0.0,0.0,0.0,0.0,0.0,0.0,0.0,0.0,0.0,0.0,0.0,0.0,0.0,0.0,0.0,0.0,0.0,0.0,0.0,0.0,0.0,0.0,0.0,0.0,0.0,0.0,0.0,0.0,0.0,0.0,0.0,0.0,0.0,0.0,0.0,0.0,0.0,-1.5414,-1.4968,-1.4643,-1.4397,-1.4159,-1.3316,0.0,0.0,0.0,0.0,0.0,0.0,0.0,0.0,0.0,0.0,0.0,0.0,0.0,0.0,0.0,0.0,0.0,0.0,0.0,0.0,0.0,0.0,0.0,0.0,0.0,0.0,0.0,0.0,0.0,0.0,0.0,0.0,0.0,0.0,0.0,0.0,0.0,0.0,0.0,0.0,0.0,0.0,0.0,0.0,0.0,0.0,0.0,0.0,0.0,0.0,0.0,0.0,0.0,0.0,0.0,0.0,0.0,0.0,0.0,0.0,0.0,0.0,0.0,0.0,0.0,0.0,0.0,0.0,0.0,0.0,0.0,0.0,0.0,0.0,0.0,0.0,0.0,0.0,0.0,0.0,0.0,0.0,0.0,0.0,0.0,0.0,0.0,0.0,0.0,0.0,0.0,0.0,0.0,0.0,0.0,0.0,0.0,0.0,0.0,0.0,0.0,0.0,0.0,0.0,0.0,0.0,0.0,0.0,0.0,-1.6665,-1.724,-1.7188,-1.6493,-1.5151,-1.4025,0.0,0.0,0.0,0.0,0.0,0.0,0.0,0.0,0.0,0.0,0.0,0.0,0.0,0.0,0.0,0.0,0.0,0.0,0.0,0.0,0.0,0.0,0.0,0.0,0.0,0.0,0.0,0.0,0.0,0.0,0.0,0.0,0.0,0.0,0.0,0.0,0.0,0.0,0.0,0.0,0.0,0.0,0.0,0.0,0.0,0.0,0.0,0.0,0.0,0.0,0.0,0.0,0.0,0.0,0.0,0.0,0.0,0.0,0.0,0.0,0.0,0.0,0.0,0.0,0.0,0.0,0.0,0.0,0.0,0.0,0.0,0.0,0.0,0.0,0.0,0.0,0.0,0.0,0.0,0.0,0.0,0.0,0.0,0.0,0.0,0.0,0.0,0.0,0.0,0.0,0.0,0.0,0.0,0.0,0.0,0.0,0.0,0.0,0.0,0.0,0.0,0.0,0.0,0.0,0.0,0.0,0.0,0.0,-1.6126,-1.7411,-1.8541,-1.8878,-1.8364,-1.6484,-1.5001,0.0,0.0,0.0,0.0,0.0,0.0,0.0,0.0,0.0,0.0,0.0,0.0,0.0,0.0,0.0,0.0,0.0,0.0,0.0,0.0,0.0,0.0,0.0,0.0,0.0,0.0,0.0,0.0,0.0,0.0,0.0,0.0,0.0,0.0,0.0,0.0,0.0,0.0,0.0,0.0,0.0,0.0,0.0,0.0,0.0,0.0,0.0,0.0,0.0,0.0,0.0,0.0,0.0,0.0,0.0,0.0,0.0,0.0,0.0,0.0,0.0,0.0,0.0,0.0,0.0,0.0,0.0,0.0,0.0,0.0,0.0,0.0,0.0,0.0,0.0,0.0,0.0,0.0,0.0,0.0,0.0,0.0,0.0,0.0,0.0,0.0,0.0,0.0,0.0,0.0,0.0,0.0,0.0,0.0,0.0,0.0,0.0,0.0,0.0,0.0,0.0,0.0,0.0,0.0,0.0,0.0,0.0,0.0,-1.6728,-1.783,-1.913,-1.9798,-1.9736,-1.7844,-1.6074,0.0,0.0,0.0,0.0,0.0,0.0,0.0,0.0,0.0,0.0,0.0,0.0,0.0,0.0,0.0,0.0,0.0,0.0,0.0,0.0,0.0,0.0,0.0,0.0,0.0,0.0,0.0,0.0,0.0,0.0,0.0,0.0,0.0,0.0,0.0,0.0,0.0,0.0,0.0,0.0,0.0,0.0,0.0,0.0,0.0,0.0,0.0,0.0,0.0,0.0,0.0,0.0,0.0,0.0,0.0,0.0,0.0,0.0,0.0,0.0,0.0,0.0,0.0,0.0,0.0,0.0,0.0,0.0,0.0,0.0,0.0,0.0,0.0,0.0,0.0,0.0,0.0,0.0,0.0,0.0,0.0,0.0,0.0,0.0,0.0,0.0,0.0,0.0,0.0,0.0,0.0,0.0,0.0,0.0,0.0,0.0,0.0,0.0,0.0,0.0,0.0,0.0,0.0,0.0,0.0,0.0,0.0,0.0,-1.7222,-1.819,-1.9233,-1.9798,-1.9786,-1.8163,-1.6751,0.0,0.0,0.0,0.0,0.0,0.0,0.0,0.0,0.0,0.0,0.0,0.0,0.0,0.0,0.0,0.0,0.0,0.0,0.0,0.0,0.0,0.0,0.0,0.0,0.0,0.0,0.0,0.0,0.0,0.0,0.0,0.0,0.0,0.0,0.0,0.0,0.0,0.0,0.0,0.0,0.0,0.0,0.0,0.0,0.0,0.0,0.0,0.0,-0.6577,0.0,0.0,0.0,0.0,0.0,0.0,0.0,0.0,0.0,0.0,0.0,0.0,0.0,0.0,0.0,0.0,0.0,0.0,0.0,0.0,0.0,0.0,0.0,0.0,0.0,0.0,0.0,0.0,0.0,0.0,0.0,0.0,0.0,0.0,0.0,0.0,0.0,0.0,0.0,0.0,0.0,0.0,0.0,0.0,0.0,0.0,0.0,0.0,0.0,0.0,0.0,0.0,0.0,0.0,0.0,0.0,0.0,0.0,0.0,-1.7409,-1.8687,-1.9422,-1.9798,-1.9761,-1.9044,-1.7881,0.0,0.0,0.0,0.0,0.0,0.0,0.0,0.0,0.0,0.0,0.0,0.0,0.0,0.0,0.0,0.0,0.0,0.0,0.0,0.0,0.0,0.0,0.0,0.0,0.0,0.0,0.0,0.0,0.0,0.0,0.0,0.0,0.0,0.0,0.0,0.0,0.0,0.0,0.0,0.0,0.0,0.0,0.0,0.0,0.0,0.0,0.0,0.0,0.0,0.0,0.0,0.0,0.0,0.0,0.0,0.0,0.0,0.0,0.0,0.0,0.0,0.0,0.0,0.0,0.0,0.0,0.0,0.0,0.0,0.0,0.0,0.0,0.0,0.0,0.0,0.0,0.0,0.0,0.0,0.0,0.0,0.0,0.0,0.0,0.0,0.0,0.0,0.0,0.0,0.0,0.0,0.0,0.0,0.0,0.0,0.0,0.0,0.0,0.0,0.0,0.0,0.0,0.0,0.0,0.0,0.0,0.0,-1.6026,-1.7568,-1.9206,-1.9623,-1.9798,-1.9798,-1.9762,-1.8826,-1.6829,0.0,0.0,0.0,0.0,0.0,0.0,0.0,0.0,0.0,0.0,0.0,0.0,0.0,0.0,0.0,0.0,0.0,0.0,0.0,0.0,0.0,0.0,0.0,0.0,0.0,0.0,0.0,0.0,0.0,0.0,0.0,0.0,0.0,0.0,0.0,0.0,0.0,0.0,-0.6098,-0.6149,0.0,0.0,0.0,0.0,0.0,0.0,0.0,0.0,-0.6915,0.0,0.0,0.0,0.0,0.0,0.0,0.0,0.0,0.0,0.0,0.0,0.0,0.0,0.0,0.0,0.0,0.0,0.0,0.0,0.0,0.0,0.0,0.0,0.0,0.0,0.0,0.0,0.0,0.0,0.0,0.0,0.0,0.0,0.0,0.0,0.0,0.0,0.0,0.0,0.0,0.0,0.0,0.0,0.0,0.0,0.0,0.0,0.0,0.0,0.0,0.0,0.0,0.0,0.0,0.0,0.0,-1.5644,-1.6408,-1.7746,-1.9661,-1.9748,-1.9798,-1.9773,-1.8942,-1.7949,-1.6816,0.0,0.0,0.0,0.0,0.0,0.0,0.0,0.0,0.0,0.0,0.0,0.0,0.0,0.0,0.0,0.0,0.0,0.0,0.0,0.0,0.0,0.0,0.0,0.0,0.0,0.0,0.0,0.0,0.0,0.0,0.0,0.0,0.0,0.0,0.0,0.0,0.0,0.0,0.0,-0.6734,-0.6761,0.0,0.0,0.0,0.0,0.0,0.0,0.0,0.0,-0.753,0.0,0.0,0.0,0.0,0.0,0.0,0.0,0.0,0.0,0.0,0.0,0.0,0.0,0.0,0.0,0.0,0.0,0.0,0.0,0.0,0.0,0.0,0.0,0.0,0.0,0.0,0.0,0.0,0.0,0.0,0.0,0.0,0.0,0.0,0.0,0.0,0.0,0.0,0.0,0.0,0.0,0.0,0.0,0.0,0.0,0.0,0.0,0.0,0.0,0.0,0.0,0.0,0.0,0.0,0.0,-1.594,-1.6997,-1.8286,-1.9736,-1.9798,-1.9798,-1.9773,-1.907,-1.8093,0.0,0.0,0.0,0.0,0.0,0.0,0.0,0.0,0.0,0.0,0.0,0.0,0.0,0.0,0.0,0.0,0.0,0.0,0.0,0.0,0.0,0.0,0.0,0.0,0.0,0.0,0.0,0.0,0.0,0.0,0.0,0.0,0.0,0.0,0.0,0.0,0.0,0.0,0.0,0.0,-0.7215,-0.7446,-0.8805,0.0,0.0,0.0,0.0,0.0,0.0,-0.8664,-0.8094,0.0,0.0,0.0,0.0,0.0,0.0,0.0,0.0,0.0,0.0,0.0,0.0,0.0,0.0,0.0,0.0,0.0,0.0,0.0,0.0,0.0,0.0,0.0,0.0,0.0,0.0,0.0,0.0,0.0,0.0,0.0,0.0,0.0,0.0,0.0,0.0,0.0,0.0,0.0,0.0,0.0,0.0,0.0,0.0,0.0,0.0,0.0,0.0,0.0,0.0,0.0,0.0,0.0,0.0,0.0,-1.6211,-1.7548,-1.8719,-1.9748,-1.9798,-1.9798,-1.9773,-1.9016,-1.8013,0.0,0.0,0.0,0.0,0.0,0.0,0.0,0.0,0.0,0.0,0.0,0.0,0.0,0.0,0.0,0.0,0.0,0.0,0.0,0.0,0.0,0.0,0.0,0.0,0.0,0.0,0.0,0.0,0.0,0.0,0.0,0.0,0.0,0.0,0.0,0.0,0.0,0.0,0.0,0.0,0.0,-0.8294,-0.9925,-0.9069,0.0,0.0,0.0,0.0,-0.9742,-0.9393,0.0,0.0,0.0,0.0,0.0,0.0,0.0,0.0,0.0,0.0,0.0,0.0,0.0,0.0,0.0,0.0,0.0,0.0,0.0,0.0,0.0,0.0,0.0,0.0,0.0,0.0,0.0,0.0,0.0,0.0,0.0,0.0,0.0,0.0,0.0,0.0,0.0,0.0,0.0,0.0,0.0,0.0,0.0,0.0,0.0,0.0,0.0,0.0,0.0,0.0,0.0,0.0,0.0,0.0,0.0,0.0,-1.678,-1.7771,-1.8767,-1.9736,-1.9798,-1.9798,-1.9773,-1.7882,-1.6832,0.0,0.0,0.0,0.0,0.0,0.0,0.0,0.0,0.0,0.0,0.0,0.0,0.0,0.0,0.0,0.0,0.0,0.0,0.0,0.0,0.0,0.0,0.0,0.0,0.0,0.0,0.0,0.0,0.0,0.0,0.0,0.0,0.0,0.0,0.0,0.0,0.0,0.0,0.0,0.0,0.0,-0.9066,-0.9992,-0.9667,-0.9372,0.0,0.0,-1.0591,-1.0721,-1.0961,0.0,0.0,0.0,0.0,0.0,0.0,0.0,0.0,0.0,0.0,0.0,0.0,0.0,0.0,0.0,0.0,0.0,0.0,0.0,0.0,0.0,0.0,0.0,0.0,0.0,0.0,0.0,0.0,0.0,0.0,0.0,0.0,0.0,0.0,0.0,0.0,0.0,0.0,0.0,0.0,0.0,0.0,0.0,0.0,0.0,0.0,0.0,0.0,0.0,0.0,0.0,0.0,0.0,0.0,0.0,-1.5514,-1.706,-1.8452,-1.9334,-1.9773,-1.9798,-1.9798,-1.9798,-1.7677,-1.6607,0.0,0.0,0.0,0.0,0.0,0.0,0.0,0.0,0.0,0.0,0.0,0.0,0.0,0.0,0.0,0.0,0.0,0.0,0.0,0.0,0.0,0.0,0.0,0.0,0.0,0.0,0.0,0.0,0.0,0.0,0.0,0.0,0.0,0.0,0.0,0.0,0.0,0.0,0.0,0.0,0.0,0.0,-1.0305,-0.9938,0.0,0.0,0.0,-1.0685,-1.0525,0.0,0.0,0.0,0.0,0.0,0.0,0.0,0.0,0.0,0.0,0.0,0.0,0.0,0.0,0.0,0.0,0.0,0.0,0.0,0.0,0.0,0.0,0.0,0.0,0.0,0.0,0.0,0.0,0.0,0.0,0.0,0.0,0.0,0.0,0.0,0.0,0.0,0.0,0.0,0.0,0.0,0.0,0.0,0.0,0.0,0.0,0.0,0.0,0.0,0.0,0.0,0.0,0.0,0.0,0.0,0.0,0.0,-1.7212,-1.8923,-1.9798,-1.9798,-1.9798,-1.9798,-1.9773,-1.794,0.0,0.0,0.0,0.0,0.0,0.0,0.0,0.0,0.0,0.0,0.0,0.0,0.0,0.0,0.0,0.0,0.0,0.0,0.0,0.0,0.0,0.0,0.0,0.0,0.0,0.0,0.0,-0.7111,0.0,0.0,0.0,0.0,0.0,0.0,0.0,0.0,0.0,0.0,0.0,0.0,0.0,0.0,-0.9731,-1.0558,-1.0392,-1.0532,0.0,0.0,-1.0951,-1.0707,-1.1373,-1.1233,0.0,0.0,0.0,0.0,0.0,0.0,0.0,0.0,0.0,0.0,0.0,0.0,0.0,0.0,0.0,0.0,0.0,0.0,0.0,0.0,0.0,0.0,0.0,0.0,0.0,0.0,0.0,0.0,0.0,0.0,0.0,0.0,0.0,0.0,0.0,0.0,0.0,0.0,0.0,0.0,0.0,0.0,0.0,0.0,0.0,0.0,0.0,0.0,0.0,0.0,0.0,0.0,0.0,0.0,0.0,-1.7225,-1.8923,-1.9798,-1.9798,-1.9798,-1.9798,-1.9786,-1.8694,-1.7693,0.0,0.0,0.0,0.0,0.0,0.0,0.0,0.0,0.0,0.0,0.0,0.0,0.0,0.0,0.0,0.0,0.0,0.0,0.0,0.0,0.0,0.0,0.0,0.0,0.0,0.0,0.0,0.0,0.0,0.0,0.0,0.0,0.0,0.0,0.0,0.0,0.0,0.0,0.0,0.0,0.0,-1.02,-1.0641,-1.1287,-1.1835,0.0,0.0,-1.1862,-1.2008,-1.248,-1.2207,-1.0478,0.0,0.0,0.0,0.0,0.0,0.0,0.0,0.0,0.0,0.0,0.0,0.0,0.0,0.0,0.0,0.0,0.0,0.0,0.0,0.0,0.0,0.0,0.0,0.0,0.0,0.0,0.0,0.0,0.0,0.0,0.0,0.0,0.0,0.0,0.0,0.0,0.0,0.0,0.0,0.0,0.0,0.0,0.0,0.0,0.0,0.0,0.0,0.0,0.0,0.0,0.0,0.0,0.0,-1.6607,-1.7325,-1.9339,-2.0194,-1.9798,-1.9798,-1.9798,-1.9798,-1.8769,-1.7768,0.0,0.0,0.0,0.0,0.0,0.0,0.0,0.0,0.0,0.0,0.0,0.0,0.0,0.0,0.0,0.0,0.0,0.0,0.0,0.0,0.0,0.0,0.0,0.0,0.0,0.0,0.0,0.0,-1.0885,-1.0937,-0.9888,0.0,0.0,0.0,0.0,0.0,0.0,0.0,0.0,0.0,0.0,-1.074,-1.1445,-1.183,0.0,0.0,-1.2078,-1.1991,-1.1855,-1.2187,-1.1885,-1.0156,-0.9423,0.0,0.0,0.0,0.0,0.0,0.0,0.0,0.0,0.0,0.0,0.0,0.0,0.0,0.0,0.0,0.0,0.0,0.0,0.0,0.0,0.0,0.0,0.0,0.0,0.0,0.0,0.0,0.0,0.0,0.0,0.0,0.0,0.0,0.0,0.0,0.0,0.0,0.0,0.0,0.0,0.0,0.0,0.0,0.0,0.0,0.0,0.0,0.0,0.0,0.0,0.0,0.0,-1.7121,-1.7394,-1.9668,-2.0446,-1.9798,-1.9798,-1.9798,-1.9773,-1.907,-1.8213,0.0,0.0,0.0,0.0,0.0,0.0,0.0,0.0,0.0,0.0,0.0,0.0,0.0,0.0,0.0,0.0,0.0,0.0,0.0,0.0,0.0,0.0,0.0,0.0,0.0,0.0,0.0,0.0,-1.1699,-1.1374,-0.9763,0.0,0.0,0.0,0.0,0.0,0.0,0.0,0.0,0.0,0.0,-1.1133,-1.1707,-1.2051,-1.2137,-1.1933,-1.1945,-1.1878,-1.1577,-1.1781,-1.1519,-1.0196,0.0,0.0,0.0,0.0,0.0,0.0,0.0,0.0,0.0,0.0,0.0,0.0,0.0,0.0,0.0,0.0,0.0,0.0,0.0,0.0,0.0,0.0,0.0,0.0,0.0,0.0,0.0,0.0,0.0,0.0,-1.5164,0.0,0.0,0.0,0.0,0.0,0.0,0.0,0.0,0.0,0.0,0.0,0.0,0.0,0.0,0.0,0.0,0.0,0.0,0.0,0.0,0.0,0.0,-1.7588,-1.7449,-1.9668,-2.051,-1.985,-1.9798,-1.9798,-1.9798,-1.9773,-1.9296,-1.8248,0.0,0.0,0.0,0.0,0.0,0.0,0.0,0.0,0.0,0.0,0.0,0.0,0.0,0.0,0.0,0.0,0.0,0.0,0.0,0.0,0.0,0.0,0.0,0.0,0.0,0.0,-0.9721,-1.0301,-1.0433,0.0,0.0,0.0,0.0,0.0,0.0,0.0,0.0,0.0,0.0,-1.063,-1.1387,-1.1205,-1.1884,-1.2158,-1.1292,-1.1462,-1.1667,-1.1455,-1.1431,-1.1286,0.0,0.0,0.0,0.0,0.0,0.0,0.0,0.0,0.0,0.0,0.0,0.0,0.0,0.0,0.0,0.0,0.0,0.0,0.0,0.0,0.0,0.0,0.0,0.0,0.0,0.0,0.0,-1.7175,-1.7019,0.0,0.0,0.0,0.0,0.0,0.0,0.0,0.0,0.0,0.0,0.0,-2.105,-2.0494,0.0,0.0,0.0,0.0,0.0,0.0,0.0,0.0,0.0,0.0,0.0,0.0,-1.8304,-1.8229,-2.0292,-2.0904,-1.985,-1.9798,-1.9798,-1.9798,-1.9798,-1.9396,-1.8452,0.0,0.0,0.0,0.0,0.0,0.0,0.0,0.0,0.0,0.0,0.0,0.0,0.0,0.0,0.0,0.0,0.0,0.0,0.0,0.0,0.0,0.0,0.0,0.0,0.0,-1.0872,0.0,0.0,0.0,0.0,0.0,0.0,0.0,0.0,0.0,0.0,0.0,-0.9704,-1.0242,-1.0631,-1.1089,-1.1571,-1.1883,-1.2111,0.0,0.0,0.0,0.0,0.0,0.0,0.0,0.0,0.0,0.0,0.0,0.0,0.0,0.0,-0.8066,-0.7023,-0.7025,-0.7201,-0.7265,0.0,0.0,0.0,0.0,0.0,0.0,0.0,0.0,0.0,0.0,0.0,0.0,0.0,0.0,-1.9717,0.0,-1.8908,0.0,0.0,0.0,0.0,0.0,0.0,0.0,0.0,-2.2501,-2.3137,-2.3348,-2.2819,-2.2805,0.0,-2.1541,-1.9778,0.0,0.0,0.0,0.0,0.0,0.0,0.0,0.0,-1.9113,-1.8636,-2.0617,-2.1086,-1.9901,-1.9798,-1.9798,-1.9798,-1.9798,-1.9434,-1.8697,-1.7191,-1.6021,0.0,0.0,0.0,0.0,0.0,0.0,0.0,0.0,0.0,0.0,0.0,0.0,0.0,0.0,0.0,0.0,0.0,0.0,0.0,0.0,0.0,0.0,0.0,-1.1412,0.0,0.0,0.0,0.0,0.0,0.0,0.0,0.0,0.0,-0.8804,-0.9847,-1.0717,-1.0912,-1.1209,-1.149,-1.1742,0.0,0.0,0.0,0.0,0.0,0.0,0.0,-1.1022,-1.0575,-1.0593,-1.0601,-1.0366,-1.0321,-1.0059,-0.93,0.0,0.0,-0.7863,-0.7882,-0.8152,-0.7979,-0.787,-0.7836,-0.7836,-0.7746,-0.7726,0.0,0.0,0.0,0.0,0.0,0.0,0.0,0.0,-2.2692,-2.2763,0.0,-2.2164,0.0,0.0,0.0,0.0,0.0,-2.3299,0.0,0.0,-2.5555,-2.6054,-2.4999,-2.4794,-2.4696,-2.4609,-2.3844,-2.3069,-2.2317,-1.8696,0.0,0.0,0.0,0.0,0.0,0.0,-2.0023,-1.8814,-2.0699,-2.1113,-1.9939,-1.9811,-1.9798,-1.9798,-1.9798,-1.956,-1.9058,-1.8672,-1.7709,-1.6077,-1.4745,0.0,0.0,0.0,0.0,0.0,0.0,0.0,0.0,0.0,0.0,0.0,0.0,0.0,0.0,0.0,0.0,0.0,0.0,0.0,0.0,-1.1429,0.0,0.0,0.0,0.0,0.0,0.0,0.0,0.0,0.0,0.0,-0.9883,-1.0811,-1.1592,-1.1435,0.0,0.0,0.0,0.0,-1.21,-1.1013,-1.1223,-1.1491,-1.1353,-1.1664,-1.1967,-1.219,0.0,0.0,-1.2052,-1.1524,-1.0893,-1.0126,-1.053,-1.0305,-0.8323,-0.846,-0.8675,-0.8059,-0.7978,-0.7834,-0.7834,-0.7887,-0.781,-3.1371,0.0,0.0,0.0,0.0,-2.5687,-2.5368,-2.5357,-2.4414,-2.4511,-2.5369,-2.5222,0.0,0.0,0.0,0.0,0.0,0.0,-2.5864,-2.6529,-2.7619,-2.8152,-2.8218,-2.8151,-2.8151,-2.8054,-2.6433,-2.5537,-2.5305,-2.2887,-2.0934,-1.9501,0.0,0.0,0.0,0.0,-2.1852,-2.1414,-2.2047,-2.2043,-2.1249,-2.0309,-1.9798,-1.9798,-1.9798,-1.9736,-1.9585,-1.912,-1.8523,-1.776,-1.6196,0.0,0.0,0.0,0.0,0.0,0.0,0.0,0.0,0.0,0.0,0.0,0.0,0.0,0.0,0.0,0.0,0.0,0.0,0.0,-1.1949,-1.2546,-1.2468,0.0,0.0,0.0,0.0,0.0,0.0,0.0,0.0,0.0,-1.1904,-1.1982,-1.195,0.0,0.0,-1.1628,-1.149,-1.1965,-1.2342,-1.2398,-1.256,0.0,-1.2821,-1.2657,-1.2503,-1.2647,-1.2793,-1.2842,-1.2667,-1.2493,-1.2158,-1.1393,-1.1849,-1.1813,-1.0349,-1.0107,-0.9995,-0.9448,-0.9585,-0.9875,-0.9867,-0.9545,-0.9163,-3.5216,-3.3043,-3.1358,-3.0366,-2.9832,-2.9102,-2.8763,-2.8624,-2.739,-2.738,-2.8288,-2.813,-2.767,-2.6974,-2.6062,0.0,0.0,0.0,-2.7663,-2.8619,-2.9147,-2.9604,-2.9924,-2.9953,-2.9939,-2.9879,-2.8473,-2.7797,-2.7768,-2.6312,-2.4834,-2.3359,0.0,0.0,-2.1713,-2.2864,-2.326,-2.293,-2.3014,-2.2661,-2.1807,-2.0489,-1.9798,-1.9798,-1.9798,-1.9798,-1.9798,-1.951,-1.9132,-1.8722,-1.7086,-1.5786,0.0,0.0,0.0,0.0,0.0,0.0,0.0,0.0,0.0,0.0,0.0,-1.0756,0.0,0.0,0.0,0.0,-1.2385,-1.2545,-1.3122,-1.3083,0.0,0.0,0.0,0.0,0.0,0.0,0.0,-1.1296,-1.1995,-1.2644,-1.3057,-1.3047,-1.289,-1.2752,-1.2512,-1.2387,-1.2417,0.0,-1.3058,-1.3356,-1.3394,-1.3509,-1.3656,-1.3588,-1.3478,-1.3643,-1.3486,-1.3301,-1.3154,-1.3125,-1.28,-1.2126,-1.2403,-1.2461,-1.1074,-1.1225,-1.1334,-1.0415,-1.0517,-1.0762,-1.0813,-1.0466,-1.0218,-3.8244,-3.8007,-3.5127,-3.3756,-3.3372,-3.2666,-3.2441,-3.2364,-3.1036,-3.0909,-3.1599,-3.0774,-3.0226,-2.9786,-2.8671,0.0,-2.8982,-2.8982,-2.9327,-2.9834,-3.0402,-3.0642,-3.0582,-3.0582,-3.0582,-3.0567,-2.9953,-2.9654,-2.9609,-2.8875,-2.8219,-2.7619,-2.5282,-2.39,-2.3629,-2.4343,-2.4366,-2.3574,-2.3593,-2.3032,-2.1718,-2.0476,-1.9849,-1.9798,-1.9798,-1.9798,-1.9798,-1.9798,-1.9585,-1.9083,-1.765,-1.6583,-1.5909,0.0,0.0,0.0,0.0,0.0,0.0,0.0,0.0,0.0,0.0,0.0,0.0,0.0,0.0,0.0,-1.3896,0.0,-1.4444,-1.3205,0.0,0.0,0.0,-1.0887,-1.146,-1.1908,-1.2198,-1.2404,0.0,0.0,-1.3613,-1.3945,-1.4145,-1.414,-1.4136,-1.4034,-1.3828,-1.3936,-1.3984,-1.3876,-1.3905,-1.3988,-1.4144,-1.4385,-1.4634,-1.4736,-1.4473,-1.4053,-1.3711,-1.3574,-1.3125,-1.2241,-1.2546,-1.2615,-1.1276,-1.2122,-1.2558,-1.1242,-1.1015,-1.1015,-1.1074,-1.0965,-1.0864,-4.1255,-4.1136,-3.9884,-3.7701,-3.5011,-3.3759,-3.3214,-3.3171,-3.2826,-3.2856,-3.2991,-3.2838,-3.2086,-3.1046,-3.0788,-3.1012,-3.1569,-3.1569,-3.1659,-3.1824,-3.1973,-3.1779,-3.13,-3.1285,-3.1285,-3.1183,-3.0612,-3.0298,-3.0253,-2.9654,-2.9011,-2.8353,-2.772,-2.6362,-2.4372,-2.5272,-2.5277,-2.4105,-2.4052,-2.3018,-2.1051,-2.0633,-2.0263,-1.9811,-1.9798,-1.9798,-1.9798,-1.9798,-1.9748,-1.9597,-1.8455,-1.7428,-1.6545,-1.466,0.0,0.0,0.0,0.0,0.0,0.0,0.0,0.0,0.0,-1.2245,-1.1666,0.0,-1.3874,0.0,-1.4642,-1.4915,-1.4516,-1.3673,0.0,0.0,-1.2266,-1.2215,-1.2396,-1.2919,-1.3293,-1.3343,-1.3723,-1.4111,-1.4443,-1.457,-1.4746,-1.4992,-1.4441,-1.399,-1.3828,-1.416,-1.4463,-1.4426,-1.4714,-1.4993,-1.5041,-1.5138,-1.5196,-1.5264,-1.4902,-1.46,-1.4502,-1.4199,-1.384,-1.3628,-1.3671,-1.3555,-1.2982,-1.3147,-1.3113,-1.2546,-1.2403,-1.2412,-1.2412,-1.194,-1.1566,-4.2055,-4.166,-4.0951,-3.9097,-3.6627,-3.5758,-3.5019,-3.4397,-3.4382,-3.4218,-3.3903,-3.3653,-3.3081,-3.2422,-3.2407,-3.2602,-3.2946,-3.2946,-3.2946,-3.2931,-3.2662,-3.2317,-3.1958,-3.1674,-3.1467,-3.1467,-3.115,-3.0956,-3.0956,-3.0612,-3.0118,-2.946,-2.9175,-2.7957,-2.5901,-2.6347,-2.6243,-2.5394,-2.4498,-2.3201,-2.1461,-2.0928,-2.0514,-2.02,-1.9936,-1.9685,-1.9472,-1.9447,-1.9346,-1.9095,-1.8279,-1.7597,-1.703,-1.5272,-1.3884,0.0,0.0,0.0,0.0,0.0,0.0,0.0,0.0,0.0,0.0,0.0,-1.4647,-1.4803,-1.5416,-1.5636,-1.525,-1.478,-1.435,-1.4072,-1.4122,-1.4309,-1.4585,-1.4948,-1.5226,-1.5426,-1.5293,-1.5275,-1.5527,-1.5286,-1.5251,-1.5776,-1.5451,-1.4974,-1.4615,-1.4752,-1.4945,-1.4954,-1.5206,-1.542,-1.542,-1.542,-1.542,-1.54,-1.5225,-1.5113,-1.524,-1.5117,-1.4938,-1.5112,-1.5112,-1.5049,-1.4839,-1.4547,-1.4239,-1.3787,-1.3466,-1.321,-1.2929,-1.2569,-1.2295,-4.2088,-4.1231,-4.0485,-3.9372,-3.8122,-3.7967,-3.7001,-3.5504,-3.5504,-3.516,-3.4577,-3.4008,-3.3754,-3.3754,-3.3754,-3.3754,-3.3754,-3.3739,-3.3709,-3.3574,-3.3036,-3.2677,-3.2482,-3.187,-3.1556,-3.1467,-3.1467,-3.1467,-3.1467,-3.1467,-3.118,-3.0507,-2.9953,-2.8988,-2.758,-2.7402,-2.7033,-2.6457,-2.4723,-2.3293,-2.2196,-2.1322,-2.0756,-2.0592,-2.0062,-1.956,-1.9058,-1.9032,-1.8769,-1.8229,-1.7689,-1.7413,-1.7438,-1.561,-1.4537,0.0,-1.3162,0.0,0.0,0.0,0.0,0.0,0.0,0.0,0.0,-1.4942,-1.5392,-1.5799,-1.6164,-1.6328,-1.6272,-1.6037,-1.5958,-1.6197,-1.6159,-1.6382,-1.6897,-1.7025,-1.7227,-1.7533,-1.7034,-1.6652,-1.6574,-1.6083,-1.5968,-1.6539,-1.662,-1.6331,-1.5833,-1.5593,-1.5545,-1.5517,-1.5468,-1.542,-1.542,-1.542,-1.542,-1.542,-1.5507,-1.5608,-1.5904,-1.6039,-1.6235,-1.6461,-1.6497,-1.6503,-1.6474,-1.6041,-1.5492,-1.4963,-1.4408,-1.3796,-1.3105,-1.2881,-1.2891,-4.3645,-4.2828,-4.2058,-4.0855,-3.9315,-3.8696,-3.7367,-3.5638,-3.5554,-3.5429,-3.531,-3.5175,-3.513,-3.5115,-3.513,-3.513,-3.513,-3.5115,-3.4816,-3.4292,-3.4158,-3.3544,-3.2527,-3.2392,-3.2048,-3.1497,-3.1467,-3.1467,-3.1467,-3.1467,-3.118,-3.0507,-3.0387,-2.963,-2.8263,0.0,0.0,0.0,-2.4026,-2.2898,-2.1681,-2.1554,-2.0986,-2.0012,-1.9861,0.0,-1.9058,-1.9032,-1.8781,-1.8229,-1.7677,0.0,0.0,0.0,0.0,0.0,0.0,0.0,0.0,0.0,0.0,0.0,-1.5858,-1.5822,-1.5057,-1.6115,-1.6936,-1.7061,-1.6985,-1.7003,-1.7075,-1.6594,-1.6299,-1.6364,-1.6616,-1.687,-1.7021,-1.7317,-1.7532,-1.7556,-1.7468,-1.7413,-1.7357,-1.7246,-1.7246,-1.7357,-1.7357,-1.7357,-1.7191,-1.6631,-1.6265,-1.6255,-1.5748,-1.542,-1.542,-1.542,-1.541,-1.5468,-1.5921,-1.628,-1.6458,-1.6927,-1.7269,-1.7373,-1.7364,-1.7261,-1.7006,-1.6796,-1.6621,-1.6132,-1.5441,-1.4509,-1.3224,-1.2891,-1.2891,-4.3814,0.0,-4.2272,-4.096,0.0,-3.8674,-3.7788,-3.6682,-3.6312,-3.6417,-3.6745,-3.6259,-3.5998,-3.5968,-3.5654,-3.5489,-3.5489,-3.5489,-3.531,-3.4981,-3.4637,-3.4128,-3.3484,-3.3155,-3.2662,-3.2033,-3.2033,-3.1854,-3.1482,-3.1467,-3.136,-3.1001,-3.0687,-3.0123,-2.9426,-2.8395,-2.6842,-2.4838,-2.4279,-2.3496,-2.2309,-2.1826,-2.1259,-2.0652,-2.0087,0.0,0.0,0.0,0.0,0.0,0.0,0.0,0.0,0.0,0.0,-1.7395,-1.6615,-1.6304,-1.6625,-1.6637,-1.6764,-1.7042,-1.7541,-1.739,-1.6321,-1.7181,-1.7877,-1.8179,-1.8092,-1.8154,-1.8485,-1.8246,-1.8106,-1.8056,-1.8231,-1.8386,-1.8398,-1.8548,-1.865,-1.8661,-1.8328,-1.8124,-1.8112,-1.7786,-1.7797,-1.807,-1.8112,-1.8286,-1.8447,-1.7413,-1.6425,-1.6036,-1.569,-1.542,-1.542,-1.542,-1.5584,-1.5864,-1.6265,-1.681,-1.7468,-1.7895,-1.8221,-1.8555,-1.8661,-1.8608,-1.8446,-1.8156,-1.7729,-1.6877,-1.5992,-1.5009,-1.374,-1.334,-1.3115,-4.3426,-4.1997,-4.1869,-4.0649,-3.8797,-3.8657,-3.8357,-3.797,0.0,0.0,0.0,-3.7038,-3.6596,-3.6432,-3.5923,-3.5609,-3.5504,-3.5489,-3.5489,-3.5474,-3.4921,-3.4607,-3.4457,-3.3918,-3.326,-3.2542,-3.2527,-3.2168,-3.1482,-3.1467,-3.1467,-3.1422,-3.0956,-3.0612,-3.0362,-2.8649,-2.6899,-2.5424,-2.4892,-2.4168,-2.3187,-2.221,-2.1599,-2.1355,-2.0439,-1.966,-1.9058,-1.9032,-1.8769,-1.8242,-1.8204,-1.8254,-1.8329,-1.7915,-1.7714,-1.7777,-1.7363,-1.73,-1.7777,-1.7815,-1.8003,-1.8455,-1.8907,-1.8781,-1.7865,-1.8216,-1.8668,-1.9083,-1.9108,-1.9334,-1.9761,-1.9798,-1.9798,-1.9798,-1.9695,-1.9579,-1.9579,-1.9579,-1.9475,-1.9527,-1.915,-1.8886,-1.8874,-1.8394,-1.8221,-1.8715,-1.8874,-1.8939,-1.9097,-1.7797,-1.6425,-1.5642,-1.541,-1.542,-1.5584,-1.5642,-1.5864,-1.6595,-1.681,-1.7357,-1.834,-1.8833,-1.915,-1.9579,-1.9798,-1.9734,-1.9709,-1.9205,-1.8592,-1.7514,-1.6412,-1.5408,-1.4641,-1.408,-1.3603,-4.2909,-4.1917,-4.1213,-4.0247,-3.9275,-3.9275,-3.923,-3.9035,-3.7883,-3.7404,-3.7449,-3.7345,-3.6985,-3.6492,-3.6387,-3.6043,-3.5504,-3.5489,-3.5489,-3.5489,-3.54,-3.504,-3.4487,-3.4382,-3.3694,-3.2587,-3.2527,-3.2168,-3.1541,-3.1467,-3.1467,-3.1467,-3.1377,-3.1091,-3.0447,-2.9128,-2.8042,-2.7124,-2.5379,-2.4142,-2.3345,-2.2776,-2.1913,-2.0882,-2.0693,-2.0062,-1.907,-1.9045,-1.8769,-1.8242,-1.8204,-1.8417,-1.8869,-1.8832,-1.8995,-1.9422,-1.9384,-1.9384,-1.9447,-1.9459,-1.9497,-1.9572,-1.9648,-1.9623,-1.9484,-1.9535,-1.9623,-1.9685,-1.966,-1.9723,-1.9798,-1.9798,-1.9798,-1.9747,-1.9242,-1.8874,-1.8939,-1.8939,-1.8927,-1.8992,-1.9371,-1.9631,-1.9579,-1.9463,-1.9423,-1.9579,-1.9527,-1.9254,-1.8221,-1.7688,-1.6856,-1.5748,-1.542,-1.5633,-1.6083,-1.6322,-1.6652,-1.7357,-1.795,-1.8328,-1.8715,-1.919,-1.9579,-1.9798,-1.9798,-1.9798,-1.9798,-1.9218,-1.8677,-1.8218,-1.7165,-1.6134,-1.5577,-1.4964,-1.4316,-4.2785,-4.1933,-4.108,-4.0185,-3.9424,-3.9424,-3.9424,-3.9379,-3.8781,-3.8497,-3.8452,-3.8108,-3.7599,-3.6985,-3.6641,-3.6118,-3.5489,-3.5489,-3.5489,-3.5489,-3.5489,-3.534,-3.5011,-3.4666,-3.3978,-3.3066,-3.2677,-3.2183,-3.1526,-3.1467,-3.1467,-3.1467,-3.1467,-3.1195,-3.0492,-2.9594,-2.8777,-2.8071,-2.6434,-2.5038,-2.394,-2.3298,-2.2557,-2.1556,-2.1004,-2.0439,-1.9936,-1.9623,-1.9321,-1.907,-1.907,-1.9196,-1.9434,-1.9447,-1.956,-1.9786,-1.9798,-1.9798,-1.9798,-1.9798,-1.9798,-1.9798,-1.9798,-1.9798,-1.9798,-1.9798,-1.9798,-1.9798,-1.9798,-1.9798,-1.9798,-1.9798,-1.9798,-1.9798,-1.9488,-1.9319,-1.9319,-1.9307,-1.9319,-1.9307,-1.9592,-1.9798,-1.9798,-1.9798,-1.9798,-1.9798,-1.9798,-1.9254,-1.7852,-1.7578,-1.7079,-1.5738,-1.5758,-1.6104,-1.6492,-1.6866,-1.7357,-1.8058,-1.8489,-1.8874,-1.9202,-1.9631,-1.9747,-1.9798,-1.9798,-1.9798,-1.9798,-1.9202,-1.8661,-1.8035,-1.7104,-1.6129,-1.565,-1.5177,-1.4537,-4.252,-4.1609,-4.0758,-3.999,-3.9424,-3.9424,-3.9424,-3.9424,-3.9409,-3.9424,-3.9349,-3.8856,-3.8167,-3.7389,-3.6896,-3.6252,-3.5564,-3.5489,-3.5489,-3.5489,-3.5489,-3.5489,-3.5415,-3.4801,-3.4143,-3.3484,-3.2841,-3.2183,-3.1599,-3.1467,-3.1467,-3.1467,-3.1467,-3.127,-3.0731,-2.9953,-2.9325,-2.8749,-2.7445,-2.6,-2.461,-2.393,-2.3202,-2.2304,-2.1493,-2.0991,-2.0894,-2.03,-1.9999,-1.9987,-1.9874,-1.9798,-1.9798,-1.9798,-1.9798,-1.9798,-1.9798,-1.9798,-1.9798,-1.9798,-1.9798,-1.9798,-1.9798,-1.9798,-1.9798,-1.9798,-1.9798,-1.9798,-1.9798,-1.9798,-1.9798,-1.9798,-1.9798,-1.9798,-1.9631,-1.9488,-1.9527,-1.9579,-1.9527,-1.9592,-1.9683,-1.9798,-1.9798,-1.9798,-1.9798,-1.9798,-1.9695,-1.8992,-1.7895,-1.7468,-1.68,-1.6026,-1.6036,-1.6539,-1.6708,-1.7413,-1.8124,-1.8821,-1.898,-1.9254,-1.9631,-1.9798,-1.9798,-1.9798,-1.9798,-1.9695,-1.9527,-1.8927,-1.8167,-1.7434,-1.6509,-1.5716,-1.5466,-1.5106,-1.457,-4.1593,-4.0758,-3.9935,-3.9466,-3.9424,-3.9424,-3.9424,-3.9424,-3.9424,-3.9424,-3.9409,-3.9349,-3.8616,-3.7509,-3.7345,-3.6656,-3.5579,-3.5504,-3.5489,-3.5489,-3.5489,-3.5489,-3.5429,-3.4801,-3.4128,-3.3499,-3.2826,-3.2198,-3.1556,-3.1482,-3.1467,-3.1467,-3.1467,-3.1437,-3.13,-3.0208,-2.9549,-2.9475,-2.8166,-2.6811,-2.5342,-2.457,-2.3605,-2.2334,-2.2221,-2.192,-2.143,-2.0891,-2.0643,-2.0605,-2.0087,-1.9811,-1.9811,-1.9798,-1.9798,-1.9798,-1.9798,-1.9798,-1.9798,-1.9798,-1.9798,-1.9798,-1.9798,-1.9798,-1.9798,-1.9798,-1.9798,-1.9798,-1.9798,-1.9798,-1.9798,-1.9798,-1.9798,-1.9747,-1.9307,-1.8768,-1.8886,-1.8821,-1.8821,-1.8821,-1.9475,-1.9798,-1.9798,-1.9798,-1.9798,-1.9695,-1.9254,-1.8555,-1.7622,-1.7146,-1.6539,-1.5864,-1.6036,-1.6754,-1.7357,-1.8124,-1.8821,-1.9475,-1.9695,-1.9695,-1.9798,-1.9798,-1.9798,-1.9798,-1.9798,-1.9579,-1.8927,-1.8221,-1.7512,-1.6922,-1.6126,-1.5458,-1.5361,-1.5107,-1.4658,-4.1013,-4.0622,-3.9722,-3.9424,-3.9424,-3.9424,-3.9424,-3.9424,-3.9424,-3.9424,-3.9424,-3.9424,-3.8871,-3.7973,-3.7584,-3.6926,-3.6073,-3.5684,-3.5489,-3.5489,-3.5489,-3.5489,-3.5429,-3.4801,-3.4307,-3.3993,-3.3021,-3.2377,-3.2093,-3.1734,-3.1467,-3.1467,-3.1467,-3.1467,-3.1407,-3.0597,-2.9953,-2.9549,-2.8252,-2.687,-2.555,-2.5133,-2.4275,-2.2905,-2.2485,-2.2221,-2.1945,-2.1443,-2.1154,-2.1117,-2.0614,-2.0366,-2.03,-1.9999,-1.9798,-1.9798,-1.9798,-1.9798,-1.9798,-1.9798,-1.9798,-1.9798,-1.9798,-1.9798,-1.9798,-1.9798,-1.9798,-1.9798,-1.9798,-1.9798,-1.9798,-1.9798,-1.9798,-1.9747,-1.9527,-1.9319,-1.9359,-1.9371,-1.9371,-1.9359,-1.9592,-1.9798,-1.9798,-1.9798,-1.9643,-1.9254,-1.8821,-1.8286,-1.7202,-1.7034,-1.6877,-1.6425,-1.7024,-1.7622,-1.7797,-1.8608,-1.9359,-1.9695,-1.9798,-1.9798,-1.9798,-1.9798,-1.9798,-1.9798,-1.9747,-1.9475,-1.8874,-1.8112,-1.7346,-1.6652,-1.5931,-1.542,-1.542,-1.5283,-1.5068,-4.0554,-4.0255,-3.9666,-3.9424,-3.9424,-3.9424,-3.9424,-3.9424,-3.9424,-3.9424,-3.9424,-3.9424,-3.914,-3.8616,-3.7973,-3.7255,-3.6492,-3.5983,-3.5669,-3.5519,-3.5489,-3.5489,-3.5429,-3.4816,-3.4472,-3.4292,-3.3335,-3.2706,-3.2467,-3.1869,-3.1467,-3.1467,-3.1467,-3.1467,-3.1407,-3.0666,-2.9933,-2.9418,-2.8078,-2.6708,-2.5504,-2.5308,-2.4611,-2.3233,-2.2749,-2.2535,-2.2523,-2.2008,-2.1707,-2.1707,-2.1192,-2.0945,-2.0932,-2.0489,-2.02,-2.0037,-1.9886,-1.9798,-1.9798,-1.9798,-1.9798,-1.9798,-1.9798,-1.9798,-1.9798,-1.9798,-1.9798,-1.9798,-1.9798,-1.9798,-1.9798,-1.9798,-1.9798,-1.9798,-1.9798,-1.9798,-1.9798,-1.9798,-1.9798,-1.9798,-1.9798,-1.9798,-1.9798,-1.9798,-1.9579,-1.8927,-1.8715,-1.8167,-1.6978,-1.709,-1.7302,-1.6708,-1.7743,-1.8328,-1.8124,-1.8874,-1.9695,-1.9798,-1.9798,-1.9747,-1.9631,-1.9579,-1.9371,-1.9097,-1.9371,-1.9044,-1.8058,-1.7413,-1.7079,-1.6358,-1.5806,-1.542,-1.542,-1.54,-1.541,-4.0239,-3.9481,-3.9424,-3.9424,-3.9424,-3.9424,-3.9424,-3.9424,-3.9424,-3.9424,-3.9424,-3.9424,-3.9394,-3.929,-3.8631,-3.7659,-3.6611,-3.6432,-3.6058,-3.5534,-3.5489,-3.5489,-3.5444,-3.4816,-3.4502,-3.4502,-3.3844,-3.3125,-3.2512,-3.1854,-3.1467,-3.1467,-3.1467,-3.1467,-3.1261,-3.0119,-2.9377,-2.9101,-2.7771,-2.6421,-2.5296,-2.511,-2.4463,-2.3286,-2.304,-2.3002,-2.2952,-2.256,-2.2284,-2.2284,-2.1744,-2.1455,-2.1443,-2.1393,-2.1117,-2.0652,-2.0125,-1.9849,-1.9874,-1.9874,-1.9849,-1.9823,-1.9823,-1.9798,-1.9798,-1.9798,-1.9798,-1.9798,-1.9798,-1.9798,-1.9798,-1.9798,-1.9798,-1.9798,-1.9798,-1.9798,-1.9798,-1.9798,-1.9798,-1.9798,-1.9798,-1.9798,-1.9798,-1.9798,-1.9423,-1.8886,-1.8673,-1.8124,-1.7034,-1.7146,-1.7257,-1.7146,-1.7743,-1.8673,-1.8715,-1.9254,-1.9695,-1.9631,-1.9527,-1.9488,-1.9319,-1.9097,-1.8673,-1.8394,-1.8608,-1.8167,-1.7079,-1.6482,-1.6197,-1.5864,-1.5642,-1.542,-1.542,-1.542,-1.542,-3.9681,-3.9409,-3.9424,-3.9424,-3.9424,-3.9424,-3.9424,-3.9424,-3.9424,-3.9424,-3.9424,-3.9424,-3.9424,-3.9409,-3.917,-3.8332,-3.7105,-3.6671,-3.6133,-3.5549,-3.5489,-3.5489,-3.5474,-3.5235,-3.5145,-3.5026,-3.4442,-3.3559,-3.2527,-3.1795,-3.1467,-3.1467,-3.1467,-3.1292,-3.0733,-3.0232,-2.9483,-2.8484,-2.7427,-2.6507,-2.5568,-2.4813,-2.4113,-2.3678,-2.3265,-2.3125,-2.3125,-2.2937,-2.279,-2.2836,-2.2309,-2.202,-2.197,-2.1669,-2.1405,-2.1204,-2.1004,-2.0878,-2.084,-2.0552,-2.0351,-2.0338,-2.0012,-1.9836,-1.9798,-1.9798,-1.9798,-1.9811,-1.9811,-1.9798,-1.9798,-1.9798,-1.9798,-1.9798,-1.9798,-1.9798,-1.9798,-1.9798,-1.9798,-1.9798,-1.9798,-1.9798,-1.9798,-1.9798,-1.9307,-1.8286,-1.8015,-1.7523,-1.6922,-1.7135,-1.7578,-1.7895,-1.834,-1.8727,-1.8727,-1.9319,-1.9695,-1.9254,-1.898,-1.8661,-1.8447,-1.8274,-1.7961,-1.7731,-1.7841,-1.7622,-1.6585,-1.6036,-1.5748,-1.5642,-1.542,-1.542,-1.542,-1.542,-1.542,-3.9424,-3.9424,-3.9424,-3.9424,-3.9424,-3.9424,-3.9424,-3.9424,-3.9424,-3.9424,-3.9424,-3.9424,-3.9424,-3.9424,-3.9424,-3.8811,-3.7719,-3.7075,-3.6327,-3.5549,-3.5489,-3.5489,-3.5489,-3.5489,-3.5489,-3.54,-3.4816,-3.3888,-3.2871,-3.2168,-3.1559,-3.1102,-3.1102,-3.0703,-2.9964,-2.9642,-2.8893,-2.7886,-2.7142,-2.6492,-2.5793,-2.4989,-2.433,-2.4004,-2.3615,-2.3253,-2.315,-2.3125,-2.3125,-2.3015,-2.2774,-2.2573,-2.2535,-2.2058,-2.1757,-2.1744,-2.1581,-2.1481,-2.1455,-2.1142,-2.0995,-2.0928,-2.0602,-2.0351,-2.0351,-2.0351,-2.0338,-2.0351,-2.0351,-2.0313,-2.0125,-2.0087,-2.0012,-1.9861,-1.9798,-1.9798,-1.9798,-1.9798,-1.9798,-1.9798,-1.9798,-1.9798,-1.9747,-1.9579,-1.8874,-1.7743,-1.7413,-1.7034,-1.6708,-1.6866,-1.7534,-1.8167,-1.8232,-1.8286,-1.8232,-1.8555,-1.8768,-1.8436,-1.8328,-1.7961,-1.7633,-1.7523,-1.7346,-1.7124,-1.6912,-1.6743,-1.6358,-1.5748,-1.5526,-1.542,-1.542,-1.542,-1.542,-1.542,-1.5526,-3.9481,-3.9553,-3.9409,-3.9424,-3.9481,-3.9538,-3.9496,-3.9481,-3.9481,-3.9553,-3.961,-3.9409,-3.9424,-3.9424,-3.9424,-3.9005,-3.8272,-3.7614,-3.6701,-3.5669,-3.5519,-3.5489,-3.5489,-3.5489,-3.5489,-3.5459,-3.4801,-3.4143,-3.3499,-3.2766,-3.1753,-3.0655,-3.0478,-3.0025,-2.9066,-2.8363,-2.7789,-2.7472,-2.6883,-2.6261,-2.5661,-2.5498,-2.4996,-2.4167,-2.3979,-2.3678,-2.3163,-2.3125,-2.3125,-2.3125,-2.3113,-2.3113,-2.3012,-2.2598,-2.2309,-2.2246,-2.1845,-2.1568,-2.1568,-2.1543,-2.1493,-2.1468,-2.1455,-2.1305,-2.1267,-2.1305,-2.1305,-2.128,-2.1292,-2.1192,-2.0702,-2.063,-2.0363,-1.9911,-1.9798,-1.9798,-1.9798,-1.9798,-1.9798,-1.9798,-1.9798,-1.9798,-1.9683,-1.9359,-1.8661,-1.7895,-1.7302,-1.6877,-1.6765,-1.6821,-1.6922,-1.7413,-1.7633,-1.7567,-1.7578,-1.7589,-1.7578,-1.7523,-1.7578,-1.7413,-1.709,-1.6922,-1.6743,-1.6518,-1.6415,-1.6255,-1.5968,-1.5468,-1.5468,-1.542,-1.542,-1.5526,-1.57,-1.5758,-1.5748,-4.0638,-4.1028,-3.9864,-3.9737,-4.0239,-4.0309,-4.0309,-4.0309,-4.0309,-4.0324,-4.0185,-3.9666,-3.9424,-3.9424,-3.9424,-3.905,-3.8362,-3.7704,-3.6971,-3.6222,-3.5729,-3.5489,-3.5489,-3.5489,-3.5489,-3.5385,-3.4801,-3.4382,-3.4008,-3.3066,-3.2184,-3.1722,-3.0727,-2.9903,-2.8939,-2.8117,-2.7484,-2.6918,-2.6645,-2.642,-2.6151,-2.5799,-2.5247,-2.4619,-2.4205,-2.3728,-2.3175,-2.3125,-2.3125,-2.3078,-2.3125,-2.3125,-2.3027,-2.2915,-2.2887,-2.2802,-2.2736,-2.2611,-2.2573,-2.2259,-2.2058,-2.1995,-2.1719,-2.1506,-2.1481,-2.1518,-2.1531,-2.1518,-2.1481,-2.1255,-2.0857,-2.0718,-2.0451,-1.9874,-1.9798,-1.9798,-1.9798,-1.9798,-1.9798,-1.9798,-1.9798,-1.9798,-1.9798,-1.9475,-1.9097,-1.8447,-1.8015,-1.7743,-1.7357,-1.709,-1.7302,-1.7578,-1.7246,-1.6866,-1.681,-1.6698,-1.6528,-1.6641,-1.6754,-1.681,-1.6539,-1.6312,-1.614,-1.6026,-1.5911,-1.5748,-1.5526,-1.542,-1.542,-1.542,-1.5468,-1.57,-1.6036,-1.6197,-1.6255,-4.1478,-4.1869,-4.0842,-4.0638,-4.108,-4.0878,-4.069,-4.0622,-4.0378,-4.0239,-4.0045,-3.9681,-3.9424,-3.9424,-3.9424,-3.9185,-3.8706,-3.8078,-3.7434,-3.6746,-3.5878,-3.5519,-3.5489,-3.5489,-3.5489,-3.5429,-3.507,-3.4711,-3.4442,-3.3664,-3.2672,-3.1529,-3.0616,-2.94,-2.8208,-2.755,-2.6973,-2.6521,-2.6521,-2.6521,-2.6458,-2.6113,-2.5649,-2.5146,-2.477,-2.4318,-2.3816,-2.359,-2.3364,-2.3128,-2.3125,-2.3125,-2.3125,-2.3125,-2.3125,-2.3125,-2.3125,-2.3113,-2.3088,-2.2727,-2.2623,-2.2548,-2.2297,-2.2108,-2.2108,-2.2108,-2.2096,-2.2096,-2.182,-2.1572,-2.1306,-2.0934,-2.0655,-2.02,-1.9924,-1.9823,-1.9798,-1.9798,-1.9798,-1.9798,-1.9798,-1.9798,-1.9798,-1.9475,-1.9254,-1.8768,-1.8232,-1.8015,-1.7457,-1.7069,-1.7079,-1.6978,-1.6528,-1.6197,-1.6093,-1.5816,-1.5526,-1.569,-1.5921,-1.6026,-1.5979,-1.5806,-1.5642,-1.569,-1.5633,-1.5642,-1.542,-1.542,-1.542,-1.5468,-1.5526,-1.5979,-1.6379,-1.681,-1.6912,-4.2125,-4.2125,-4.1997,-4.1933,-4.1997,-4.1346,-4.0946,-4.069,-4.006,-3.9737,-3.961,-3.9481,-3.9424,-3.9424,-3.9424,-3.9364,-3.9275,-3.8616,-3.8018,-3.7255,-3.6297,-3.5609,-3.5519,-3.5489,-3.5489,-3.5489,-3.5459,-3.513,-3.4666,-3.4382,-3.3045,-3.0833,-3.028,-2.8971,-2.7343,-2.664,-2.6589,-2.6521,-2.6521,-2.6521,-2.6521,-2.6496,-2.6138,-2.5586,-2.5485,-2.5209,-2.4682,-2.4255,-2.3753,-2.3238,-2.3125,-2.3125,-2.3125,-2.3125,-2.3125,-2.3125,-2.3125,-2.3125,-2.3125,-2.3015,-2.305,-2.3037,-2.294,-2.3125,-2.2975,-2.2912,-2.2912,-2.2877,-2.2408,-2.2019,-2.1956,-2.1599,-2.1064,-2.0682,-2.0125,-1.9836,-1.9798,-1.9798,-1.9798,-1.9798,-1.9798,-1.9798,-1.9798,-1.9254,-1.8992,-1.8715,-1.7907,-1.7743,-1.7523,-1.7235,-1.6358,-1.614,-1.6312,-1.6093,-1.6151,-1.57,-1.541,-1.5468,-1.57,-1.5864,-1.6026,-1.5968,-1.5526,-1.5575,-1.5459,-1.541,-1.542,-1.542,-1.542,-1.542,-1.5758,-1.6322,-1.6821,-1.7246,-1.7578,-4.335,-4.3798,-4.2504,-4.2395,-4.2909,-4.2707,-4.2205,-4.1674,-4.1346,-4.0774,-4.0309,-3.9681,-3.9424,-3.9424,-3.9424,-3.9424,-3.926,-3.8736,-3.8332,-3.7958,-3.6806,-3.5968,-3.5579,-3.5489,-3.5489,-3.5489,-3.5489,-3.5415,-3.5205,-3.4741,-3.3677,-3.2274,-3.0657,-2.9386,-2.8046,-2.6972,-2.6533,-2.6521,-2.6521,-2.6521,-2.6521,-2.6521,-2.6163,-2.5661,-2.5611,-2.536,-2.4895,-2.4695,-2.4117,-2.3165,-2.3125,-2.3125,-2.3138,-2.3125,-2.3125,-2.3125,-2.3125,-2.3125,-2.3125,-2.3125,-2.3125,-2.3125,-2.3125,-2.3125,-2.3125,-2.3125,-2.3125,-2.3065,-2.2871,-2.2452,-2.1963,-2.1815,-2.1549,-2.0774,-2.015,-1.9798,-1.9798,-1.9798,-1.9798,-1.9798,-1.9798,-1.9798,-1.9747,-1.9631,-1.9475,-1.9359,-1.8992,-1.8555,-1.8178,-1.7907,-1.7235,-1.6968,-1.6866,-1.6482,-1.6151,-1.569,-1.541,-1.541,-1.569,-1.6083,-1.6472,-1.6856,-1.6244,-1.5796,-1.5526,-1.541,-1.542,-1.542,-1.542,-1.542,-1.5921,-1.6482,-1.7246,-1.7852,-1.8124,-4.4138,-4.4514,-4.3469,-4.3169,-4.3246,-4.2925,-4.2269,-4.1478,-4.1028,-4.0638,-4.0115,-3.9666,-3.9424,-3.9424,-3.9424,-3.9424,-3.9349,-3.902,-3.8676,-3.8167,-3.706,-3.6148,-3.5639,-3.5489,-3.5489,-3.5489,-3.5489,-3.5489,-3.5429,-3.5085,-3.4082,-3.2454,-3.109,-2.9645,-2.7924,-2.7062,-2.6521,-2.6521,-2.6521,-2.6521,-2.6521,-2.6521,-2.6382,-2.6,-2.595,-2.5711,-2.5234,-2.5134,-2.4632,-2.3766,-2.3489,-2.3389,-2.315,-2.3125,-2.3125,-2.3125,-2.3125,-2.3125,-2.3125,-2.3125,-2.3125,-2.3125,-2.3125,-2.3125,-2.3125,-2.3125,-2.3125,-2.3065,-2.2823,-2.2501,-2.2264,-2.2096,-2.1556,-2.0778,-2.015,-1.9811,-1.9798,-1.9798,-1.9798,-1.9798,-1.9798,-1.9798,-1.9798,-1.9798,-1.9798,-1.9695,-1.9307,-1.898,-1.8661,-1.8501,-1.8286,-1.7797,-1.7357,-1.6968,-1.6698,-1.6312,-1.5633,-1.5584,-1.57,-1.614,-1.6358,-1.6912,-1.6358,-1.5633,-1.5526,-1.542,-1.542,-1.542,-1.542,-1.5584,-1.6151,-1.6698,-1.7413,-1.7907,-1.8286,-4.457,-4.457,-4.457,-4.4121,-4.3443,-4.2645,-4.1933,-4.0826,-4.0324,-3.9809,-3.9481,-3.9424,-3.9424,-3.9424,-3.9424,-3.9424,-3.9424,-3.9349,-3.8841,-3.8123,-3.7135,-3.6267,-3.5549,-3.5489,-3.5489,-3.5489,-3.5489,-3.5489,-3.5409,-3.5379,-3.4103,-3.2288,-3.1225,-2.9602,-2.7864,-2.6873,-2.6546,-2.6521,-2.6521,-2.6521,-2.6521,-2.6521,-2.6471,-2.6445,-2.6352,-2.6163,-2.5812,-2.5649,-2.5234,-2.423,-2.4067,-2.3728,-2.3288,-2.3226,-2.3125,-2.3125,-2.3125,-2.3125,-2.3125,-2.3125,-2.3125,-2.3125,-2.3125,-2.3125,-2.3125,-2.3125,-2.3125,-2.3125,-2.2445,-2.2457,-2.2533,-2.2033,-2.128,-2.0665,-2.015,-1.9849,-1.9798,-1.9798,-1.9798,-1.9798,-1.9798,-1.9798,-1.9798,-1.9798,-1.9798,-1.9798,-1.9527,-1.9307,-1.9097,-1.8886,-1.8661,-1.8328,-1.7895,-1.7457,-1.7246,-1.6978,-1.6255,-1.5748,-1.5816,-1.5979,-1.5748,-1.5968,-1.5748,-1.5468,-1.541,-1.542,-1.542,-1.542,-1.542,-1.5642,-1.6036,-1.6641,-1.7246,-1.7578,-1.7961,-4.457,-4.457,-4.457,-4.4497,-4.431,-4.4105,-4.3092,-4.1593,-4.1412,-4.0447,-3.961,-3.9424,-3.9424,-3.9424,-3.9424,-3.9424,-3.9424,-3.9364,-3.8796,-3.7659,-3.7419,-3.6522,-3.5729,-3.5489,-3.5489,-3.5489,-3.5489,-3.5489,-3.5344,-3.4677,-3.3696,-3.236,-3.0645,-2.9188,-2.8012,-2.6942,-2.6521,-2.6521,-2.6521,-2.6521,-2.6521,-2.6521,-2.6521,-2.6521,-2.6521,-2.6402,-2.6327,-2.6276,-2.5937,-2.5247,-2.4506,-2.4029,-2.3753,-2.3389,-2.3128,-2.3125,-2.3125,-2.3125,-2.3125,-2.3125,-2.3125,-2.3125,-2.3125,-2.3125,-2.3125,-2.3125,-2.3125,-2.3065,-2.2932,-2.271,-2.2464,-2.1518,-2.0941,-2.0614,-2.0162,-1.9798,-1.9798,-1.9798,-1.9798,-1.9798,-1.9798,-1.9798,-1.9798,-1.9798,-1.9798,-1.9798,-1.9695,-1.9579,-1.9423,-1.9267,-1.9097,-1.8821,-1.8394,-1.795,-1.7302,-1.6978,-1.6312,-1.5806,-1.5864,-1.5874,-1.5584,-1.5584,-1.5575,-1.5526,-1.541,-1.542,-1.542,-1.542,-1.542,-1.569,-1.5921,-1.6415,-1.6866,-1.7246,-1.7424,-4.457,-4.457,-4.457,-4.4121,-4.3469,-4.335,-4.2379,-4.1028,-4.0774,-4.0255,-3.9553,-3.9424,-3.9424,-3.9424,-3.9424,-3.9424,-3.9424,-3.9394,-3.8706,-3.7674,-3.7345,-3.6686,-3.5729,-3.5489,-3.5489,-3.5489,-3.5489,-3.5279,-3.4758,-3.4177,-3.331,-3.1924,-3.0233,-2.9093,-2.8091,-2.703,-2.6584,-2.6521,-2.6521,-2.6521,-2.6521,-2.6521,-2.6521,-2.6521,-2.6521,-2.6521,-2.6508,-2.6508,-2.6289,-2.5875,-2.5197,-2.4481,-2.4054,-2.3703,-2.3378,-2.3115,-2.3125,-2.3125,-2.3125,-2.3125,-2.3125,-2.3125,-2.3125,-2.3125,-2.3125,-2.3125,-2.3125,-2.3125,-2.3027,-2.2899,-2.2347,-2.1619,-2.1041,-2.0602,-2.015,-1.9823,-1.9798,-1.9798,-1.9798,-1.9798,-1.9798,-1.9798,-1.9798,-1.9798,-1.9798,-1.9798,-1.9798,-1.9683,-1.9683,-1.9579,-1.9643,-1.9371,-1.8927,-1.834,-1.7523,-1.6856,-1.614,-1.5806,-1.5816,-1.57,-1.5468,-1.5584,-1.5748,-1.5584,-1.542,-1.542,-1.542,-1.542,-1.542,-1.5526,-1.5748,-1.6093,-1.6312,-1.6482,-1.6641,-4.457,-4.457,-4.4457,-4.3545,-4.2316,-4.2252,-4.1478,-4.006,-3.9935,-4.0255,-3.9595,-3.961,-3.961,-3.9424,-3.9424,-3.9424,-3.9424,-3.9349,-3.8691,-3.7554,-3.7404,-3.6656,-3.5774,-3.5489,-3.5489,-3.5489,-3.5489,-3.4986,-3.4327,-3.3725,-3.2722,-3.1156,-2.9862,-2.873,-2.7889,-2.7042,-2.6521,-2.6521,-2.6521,-2.6521,-2.6521,-2.6521,-2.6521,-2.6521,-2.6521,-2.6521,-2.6521,-2.6521,-2.6508,-2.6427,-2.5988,-2.5184,-2.4406,-2.3979,-2.374,-2.3188,-2.3125,-2.3125,-2.3125,-2.3125,-2.3125,-2.3125,-2.3125,-2.3125,-2.3125,-2.3125,-2.3125,-2.3125,-2.3088,-2.2899,-2.2372,-2.192,-2.133,-2.0778,-2.02,-1.9936,-1.9811,-1.9798,-1.9798,-1.9798,-1.9798,-1.9798,-1.9798,-1.9798,-1.9798,-1.9798,-1.9798,-1.9798,-1.9798,-1.9747,-1.9695,-1.9475,-1.8927,-1.8124,-1.7302,-1.6528,-1.5864,-1.5748,-1.57,-1.5584,-1.542,-1.5526,-1.5584,-1.5526,-1.542,-1.542,-1.542,-1.542,-1.542,-1.542,-1.5526,-1.5748,-1.5806,-1.5758,-1.5979,-4.457,-4.4514,-4.3814,-4.3306,-4.3108,-4.3047,-4.2395,-4.1804,-4.2078,-4.1739,-4.0569,-4.0432,-3.9975,-3.9538,-3.9424,-3.9424,-3.9424,-3.9349,-3.8691,-3.7599,-3.736,-3.6716,-3.5714,-3.5489,-3.5489,-3.5489,-3.5359,-3.4839,-3.3891,-3.3157,-3.2017,-3.054,-2.9143,-2.8091,-2.749,-2.6804,-2.6521,-2.6521,-2.6521,-2.6521,-2.6521,-2.6521,-2.6521,-2.6521,-2.6521,-2.6521,-2.6521,-2.6521,-2.6521,-2.6508,-2.6433,-2.5711,-2.487,-2.4293,-2.3778,-2.3215,-2.3125,-2.3125,-2.3125,-2.3125,-2.3125,-2.3125,-2.3125,-2.3125,-2.3125,-2.3125,-2.3125,-2.3125,-2.3027,-2.2852,-2.2372,-2.2184,-2.1656,-2.1004,-2.0605,-2.0275,-1.9924,-1.9798,-1.9798,-1.9798,-1.9798,-1.9798,-1.9798,-1.9798,-1.9798,-1.9798,-1.9798,-1.9798,-1.9798,-1.9631,-1.9475,-1.915,-1.8768,-1.7852,-1.6877,-1.614,-1.5526,-1.5526,-1.5526,-1.5526,-1.542,-1.542,-1.542,-1.542,-1.542,-1.542,-1.542,-1.542,-1.542,-1.542,-1.541,-1.5468,-1.5526,-1.5584,-1.5526,-4.457,-4.4514,-4.368,-4.3047,-4.2645,-4.2645,-4.2125,-4.1528,-4.2205,-4.1917,-4.1013,-4.069,-4.0255,-3.9625,-3.9424,-3.9424,-3.9424,-3.9409,-3.8646,-3.7644,-3.7345,-3.6731,-3.5624,-3.5504,-3.5489,-3.5344,-3.4986,-3.4259,-3.3241,-3.2321,-3.1143,-2.9706,-2.852,-2.7833,-2.7281,-2.6766,-2.6571,-2.6521,-2.6521,-2.6521,-2.6521,-2.6521,-2.6521,-2.6521,-2.6521,-2.6521,-2.6521,-2.6521,-2.6521,-2.6521,-2.6521,-2.5988,-2.5335,-2.4682,-2.4029,-2.3326,-2.3125,-2.3125,-2.3125,-2.3125,-2.3125,-2.3125,-2.3125,-2.3125,-2.3125,-2.3125,-2.3065,-2.3078,-2.3065,-2.2977,-2.2774,-2.2498,-2.192,-2.1267,-2.092,-2.0426,-1.9999,-1.9849,-1.9798,-1.9798,-1.9798,-1.9798,-1.9798,-1.9798,-1.9798,-1.9798,-1.9798,-1.9747,-1.9747,-1.9475,-1.915,-1.8555,-1.8112,-1.718,-1.6368,-1.5921,-1.542,-1.542,-1.542,-1.542,-1.542,-1.542,-1.542,-1.542,-1.542,-1.542,-1.542,-1.542,-1.542,-1.542,-1.541,-1.541,-1.542,-1.542,-1.542,-4.457,-4.4514,-4.368,-4.2909,-4.2316,-4.2269,-4.1933,-4.1462,-4.2252,-4.2189,-4.128,-4.1013,-4.05,-3.9793,-3.9481,-3.9424,-3.9424,-3.9424,-3.8646,-3.7629,-3.7375,-3.6731,-3.5804,-3.5489,-3.5489,-3.5344,-3.4192,-3.331,-3.2678,-3.1756,-3.042,-2.9274,-2.8373,-2.7952,-2.7525,-2.6867,-2.6678,-2.6714,-2.6714,-2.6714,-2.6714,-2.6726,-2.6658,-2.6521,-2.6521,-2.6521,-2.6521,-2.6521,-2.6521,-2.6521,-2.6389,-2.6138,-2.5511,-2.5046,-2.423,-2.3303,-2.315,-2.3125,-2.3125,-2.3125,-2.3125,-2.3125,-2.3125,-2.3125,-2.3125,-2.3065,-2.3005,-2.2944,-2.3078,-2.2944,-2.2687,-2.2618,-2.2201,-2.1719,-2.1167,-2.0639,-2.02,-1.9949,-1.9811,-1.9798,-1.9798,-1.9798,-1.9798,-1.9798,-1.9798,-1.9798,-1.9798,-1.9475,-1.9423,-1.9097,-1.8661,-1.795,-1.7235,-1.6358,-1.5806,-1.57,-1.542,-1.542,-1.542,-1.542,-1.542,-1.542,-1.542,-1.542,-1.542,-1.542,-1.542,-1.542,-1.542,-1.542,-1.542,-1.542,-1.542,-1.542,-1.542,-4.457,-4.4514,-4.368,-4.3246,-4.3108,-4.3108,-4.3108,-4.3031,-4.3739,-4.3798,-4.2707,-4.2062,-4.128,-4.0378,-3.9681,-3.9424,-3.9424,-3.926,-3.8631,-3.7539,-3.73,-3.6656,-3.5654,-3.5504,-3.5344,-3.4986,-3.3547,-3.282,-3.2249,-3.1536,-3.0371,-2.9063,-2.851,-2.8155,-2.8101,-2.7263,-2.693,-2.743,-2.7537,-2.7537,-2.7537,-2.7537,-2.7175,-2.6714,-2.6521,-2.6521,-2.6521,-2.6521,-2.6521,-2.6521,-2.6521,-2.595,-2.5121,-2.487,-2.4205,-2.3502,-2.3125,-2.3125,-2.3125,-2.3125,-2.3125,-2.3125,-2.3125,-2.3125,-2.3125,-2.3078,-2.2884,-2.2125,-2.2641,-2.2823,-2.2567,-2.2688,-2.2593,-2.2246,-2.1681,-2.1129,-2.0627,-2.0175,-2.0024,-1.9798,-1.9798,-1.9798,-1.9798,-1.9798,-1.9798,-1.9798,-1.9747,-1.9423,-1.898,-1.8555,-1.7938,-1.7069,-1.6687,-1.5864,-1.5584,-1.541,-1.542,-1.542,-1.542,-1.542,-1.542,-1.542,-1.542,-1.542,-1.542,-1.542,-1.542,-1.542,-1.542,-1.542,-1.542,-1.542,-1.542,-1.542,-1.542,-4.457,-4.4514,-4.368,-4.3306,-4.3306,-4.3306,-4.3306,-4.3502,-4.4196,-4.4121,-4.3246,-4.2379,-4.128,-4.0115,-3.9481,-3.9424,-3.9349,-3.905,-3.8347,-3.7464,-3.703,-3.6402,-3.5568,-3.492,-3.4691,-3.4259,-3.289,-3.1901,-3.1549,-3.0917,-2.9834,-2.9051,-2.8724,-2.8507,-2.8765,-2.7949,-2.8026,-2.8289,-2.8441,-2.8441,-2.8312,-2.7999,-2.755,-2.7162,-2.6782,-2.6589,-2.6521,-2.6521,-2.6521,-2.6521,-2.6521,-2.6357,-2.5699,-2.5209,-2.4519,-2.4142,-2.3378,-2.3103,-2.3125,-2.3125,-2.3125,-2.3125,-2.3125,-2.3125,-2.3125,-2.3078,-2.3017,-2.2641,-2.2884,-2.2884,-2.2628,-2.2884,-2.268,-2.2422,-2.2083,-2.1443,-2.0928,-2.0602,-2.0288,-2.0024,-1.9798,-1.9798,-1.9798,-1.9798,-1.9798,-1.9747,-1.9527,-1.9085,-1.8436,-1.7786,-1.7024,-1.6083,-1.5806,-1.5526,-1.5468,-1.542,-1.542,-1.542,-1.542,-1.542,-1.542,-1.542,-1.542,-1.542,-1.542,-1.542,-1.542,-1.542,-1.542,-1.542,-1.542,-1.542,-1.542,-1.542,-1.542,-4.457,-4.4514,-4.3873,-4.3621,-4.3604,-4.3621,-4.3621,-4.3697,-4.4064,-4.3873,-4.3169,-4.2125,-4.0774,-3.9681,-3.9424,-3.9424,-3.9364,-3.8691,-3.8033,-3.7389,-3.6761,-3.6163,-3.5391,-3.4624,-3.4095,-3.3945,-3.2249,-3.1389,-3.097,-3.038,-2.963,-2.9126,-2.9312,-2.9398,-2.9366,-2.9227,-2.9333,-2.9575,-2.9415,-2.9331,-2.9178,-2.8492,-2.8168,-2.7802,-2.7364,-2.6769,-2.6769,-2.6837,-2.685,-2.6521,-2.6521,-2.6408,-2.5975,-2.5435,-2.4833,-2.4418,-2.3728,-2.3326,-2.3213,-2.3125,-2.3125,-2.3125,-2.3125,-2.3125,-2.3125,-2.3125,-2.2884,-2.2628,-2.2944,-2.2944,-2.2884,-2.2884,-2.2902,-2.2673,-2.2372,-2.1694,-2.1146,-2.0844,-2.0388,-1.9987,-1.9798,-1.9798,-1.9798,-1.9798,-1.9798,-1.9759,-1.9371,-1.8821,-1.8004,-1.7135,-1.6415,-1.5584,-1.5526,-1.542,-1.542,-1.542,-1.542,-1.542,-1.542,-1.542,-1.542,-1.542,-1.542,-1.542,-1.542,-1.542,-1.542,-1.542,-1.542,-1.542,-1.542,-1.542,-1.542,-1.542,-1.542,-4.457,-4.457,-4.4514,-4.444,-4.444,-4.4497,-4.4497,-4.4327,-4.3739,-4.3426,-4.2986,-4.1593,-4.0378,-3.961,-3.9409,-3.9394,-3.9334,-3.8691,-3.7958,-3.7315,-3.6761,-3.6088,-3.5311,-3.461,-3.3876,-3.3587,-3.2105,-3.1241,-3.097,-3.0203,-2.9831,-2.9756,-3.0054,-3.0663,-3.0965,-3.0918,-3.0797,-3.0816,-3.0553,-3.0266,-2.9964,-2.938,-2.8876,-2.8684,-2.8103,-2.7604,-2.7604,-2.7417,-2.7095,-2.6521,-2.6521,-2.6302,-2.5975,-2.5611,-2.5109,-2.4431,-2.4042,-2.359,-2.3215,-2.3125,-2.3125,-2.3125,-2.3125,-2.3125,-2.3125,-2.3125,-2.2811,-2.2372,-2.2823,-2.2763,-2.2641,-2.2567,-2.293,-2.2924,-2.2623,-2.2159,-2.1543,-2.1058,-2.0577,-2.0012,-1.9798,-1.9798,-1.9798,-1.9798,-1.9798,-1.9747,-1.9044,-1.8489,-1.7512,-1.6641,-1.6026,-1.5468,-1.5468,-1.542,-1.542,-1.542,-1.542,-1.542,-1.542,-1.542,-1.542,-1.542,-1.542,-1.542,-1.542,-1.542,-1.542,-1.542,-1.542,-1.542,-1.542,-1.542,-1.542,-1.542,-1.542,-4.457,-4.457,-4.457,-4.457,-4.457,-4.457,-4.457,-4.457,-4.4236,-4.341,-4.2395,-4.1213,-4.0239,-3.9595,-3.9379,-3.917,-3.8751,-3.8093,-3.7464,-3.6806,-3.6178,-3.5774,-3.5148,-3.4543,-3.3656,-3.3031,-3.1815,-3.0833,-3.0279,-3.0075,-3.0343,-3.053,-3.0916,-3.1561,-3.2094,-3.2356,-3.2247,-3.1921,-3.1707,-3.1471,-3.0807,-2.9752,-2.9254,-2.969,-2.767,-2.7417,-2.7484,-2.7162,-2.6837,-2.6589,-2.6521,-2.6289,-2.605,-2.5799,-2.5222,-2.4519,-2.4205,-2.3715,-2.3215,-2.3125,-2.3125,-2.3125,-2.3125,-2.3125,-2.3125,-2.3125,-2.3005,-2.2884,-2.2884,-2.2823,-2.2884,-2.2944,-2.31,-2.3002,-2.2849,-2.2472,-2.192,-2.1317,-2.074,-2.0162,-1.9911,-1.9798,-1.9798,-1.9798,-1.9798,-1.9747,-1.8927,-1.8167,-1.7346,-1.6472,-1.5968,-1.5642,-1.5584,-1.5468,-1.541,-1.541,-1.542,-1.542,-1.542,-1.542,-1.542,-1.542,-1.542,-1.542,-1.542,-1.542,-1.542,-1.542,-1.542,-1.542,-1.542,-1.542,-1.542,-1.542,-1.542,-4.457,-4.457,-4.431,-4.4196,-4.4212,-4.4212,-4.4064,-4.3814,-4.3469,-4.2629,-4.1229,-4.0485,-3.9838,-3.9298,-3.908,-3.8706,-3.8078,-3.7449,-3.6956,-3.6417,-3.5923,-3.5549,-3.5133,-3.4461,-3.3518,-3.2607,-3.1683,-3.0833,-3.0419,-3.0279,-3.1057,-3.1756,-3.2092,-3.2737,-3.3082,-3.3372,-3.326,-3.2901,-3.2317,-3.2078,-3.1307,-3.0269,-2.9827,-3.0208,-2.857,-2.7802,-2.7868,-2.7537,-2.685,-2.6658,-2.6521,-2.6521,-2.6251,-2.5925,-2.5372,-2.4845,-2.4305,-2.3753,-2.3314,-2.3125,-2.3125,-2.3125,-2.3125,-2.3125,-2.3125,-2.3125,-2.3005,-2.3065,-2.3065,-2.3125,-2.3125,-2.3125,-2.3125,-2.304,-2.304,-2.2749,-2.2071,-2.143,-2.0878,-2.0326,-2.0087,-1.9798,-1.9798,-1.9798,-1.9747,-1.9631,-1.9044,-1.8447,-1.795,-1.7135,-1.6358,-1.6083,-1.5921,-1.569,-1.5468,-1.541,-1.542,-1.542,-1.542,-1.542,-1.542,-1.542,-1.542,-1.542,-1.542,-1.542,-1.542,-1.542,-1.542,-1.542,-1.542,-1.542,-1.542,-1.542,-1.542,-4.457,-4.4514,-4.368,-4.3366,-4.3229,-4.3306,-4.2925,-4.2252,-4.1462,-4.0622,-3.9935,-3.9595,-3.9163,-3.8631,-3.8586,-3.8153,-3.7449,-3.6866,-3.6492,-3.6222,-3.5789,-3.5534,-3.5213,-3.4558,-3.3739,-3.2607,-3.1815,-3.1315,-3.1044,-3.0895,-3.196,-3.3241,-3.3602,-3.3848,-3.3936,-3.3657,-3.3529,-3.329,-3.2243,-3.175,-3.119,-3.0464,-3.0584,-3.0208,-2.9254,-2.8376,-2.8182,-2.7604,-2.6973,-2.6589,-2.6521,-2.6521,-2.6458,-2.5988,-2.5448,-2.4845,-2.4356,-2.3791,-2.3153,-2.315,-2.3125,-2.3125,-2.3125,-2.3125,-2.3125,-2.3125,-2.3125,-2.3125,-2.3125,-2.3125,-2.3125,-2.3125,-2.3125,-2.3125,-2.3125,-2.2887,-2.2196,-2.1594,-2.1041,-2.0476,-2.0087,-1.9798,-1.9798,-1.9798,-1.9747,-1.9527,-1.9097,-1.8661,-1.8286,-1.7622,-1.68,-1.6368,-1.614,-1.5806,-1.5584,-1.5468,-1.542,-1.542,-1.542,-1.542,-1.542,-1.542,-1.542,-1.542,-1.542,-1.542,-1.542,-1.542,-1.542,-1.542,-1.542,-1.542,-1.542,-1.542,-1.542,-4.4253,-4.368,-4.3426,-4.2661,-4.1739,-4.2205,-4.2252,-4.1869,-4.1147,-4.05,-4.017,-3.9737,-3.9035,-3.8571,-3.8212,-3.7764,-3.6866,-3.6686,-3.6387,-3.5818,-3.5579,-3.5534,-3.5344,-3.4986,-3.4109,-3.289,-3.2177,-3.1742,-3.118,-3.1389,-3.2393,-3.3602,-3.461,-3.4986,-3.4845,-3.4483,-3.4008,-3.344,-3.2587,-3.1768,-3.085,-3.0389,-3.0133,-2.995,-2.8812,-2.8247,-2.8182,-2.7417,-2.685,-2.6521,-2.6521,-2.6521,-2.6508,-2.6113,-2.5686,-2.5046,-2.4506,-2.4092,-2.3391,-2.3125,-2.3125,-2.3125,-2.3125,-2.3125,-2.3125,-2.3125,-2.3125,-2.3125,-2.3125,-2.3125,-2.3125,-2.3125,-2.3125,-2.3125,-2.3062,-2.2811,-2.2284,-2.1757,-2.1217,-2.0639,-2.0175,-1.9899,-1.9798,-1.9747,-1.9695,-1.9371,-1.8886,-1.878,-1.8501,-1.7907,-1.7191,-1.6708,-1.6322,-1.5979,-1.57,-1.5526,-1.542,-1.542,-1.542,-1.542,-1.542,-1.542,-1.542,-1.542,-1.542,-1.542,-1.542,-1.542,-1.542,-1.542,-1.542,-1.542,-1.542,-1.542,-1.542,-4.408,-4.3306,-4.297,-4.2189,-4.1264,-4.1478,-4.1412,-4.1028,-4.05,-4.0239,-4.0085,-3.9369,-3.8676,-3.8138,-3.7734,-3.7225,-3.6193,-3.6133,-3.6058,-3.5504,-3.5504,-3.5489,-3.5489,-3.5424,-3.4543,-3.3463,-3.3031,-3.2735,-3.2393,-3.2236,-3.3171,-3.4409,-3.5133,-3.5165,-3.4931,-3.4382,-3.3672,-3.2939,-3.2014,-3.0979,-3.0158,-2.9766,-2.9566,-2.8989,-2.8298,-2.7736,-2.7471,-2.7027,-2.6521,-2.6521,-2.6521,-2.6521,-2.6508,-2.6163,-2.5737,-2.5071,-2.4318,-2.3829,-2.3253,-2.3125,-2.3125,-2.3125,-2.3125,-2.3125,-2.3125,-2.3125,-2.3125,-2.3125,-2.3125,-2.3125,-2.3125,-2.3125,-2.3125,-2.3125,-2.305,-2.2799,-2.2359,-2.1832,-2.1305,-2.0794,-2.0188,-1.9949,-1.9798,-1.9695,-1.9579,-1.915,-1.8727,-1.8673,-1.8566,-1.8015,-1.7413,-1.6978,-1.6492,-1.6093,-1.5748,-1.5468,-1.542,-1.542,-1.542,-1.542,-1.542,-1.542,-1.542,-1.542,-1.542,-1.542,-1.542,-1.542,-1.542,-1.542,-1.542,-1.542,-1.542,-1.542,-1.542,-4.4064,-4.3229,-4.2379,-4.2062,-4.1869,-4.1213,-4.0378,-3.9481,-3.9424,-3.9481,-3.9394,-3.8852,-3.8242,-3.7479,-3.6881,-3.6297,-3.5729,-3.5609,-3.5564,-3.5519,-3.5489,-3.5489,-3.5489,-3.5424,-3.4758,-3.4245,-3.3808,-3.3587,-3.3891,-3.3822,-3.4409,-3.5118,-3.5424,-3.5175,-3.4622,-3.3976,-3.3173,-3.2255,-3.1264,-3.015,-2.9254,-2.9129,-2.8876,-2.8427,-2.7999,-2.7617,-2.7364,-2.6918,-2.6589,-2.6521,-2.6521,-2.6521,-2.6289,-2.5925,-2.5398,-2.472,-2.3828,-2.3364,-2.3115,-2.3138,-2.3125,-2.3125,-2.3125,-2.3125,-2.3125,-2.3125,-2.3125,-2.3125,-2.3125,-2.3125,-2.3125,-2.3125,-2.3125,-2.3125,-2.3125,-2.2799,-2.2359,-2.1857,-2.133,-2.0765,-2.0162,-1.9861,-1.9759,-1.9695,-1.9254,-1.8608,-1.8178,-1.8015,-1.7961,-1.795,-1.7468,-1.7146,-1.6652,-1.614,-1.5806,-1.5468,-1.542,-1.542,-1.542,-1.542,-1.542,-1.542,-1.542,-1.542,-1.542,-1.542,-1.542,-1.542,-1.542,-1.542,-1.542,-1.542,-1.542,-1.542,-1.542,-4.408,-4.3306,-4.3031,-4.2599,-4.1981,-4.1739,-4.0774,-3.9481,-3.9424,-3.9424,-3.9394,-3.9215,-3.8347,-3.7434,-3.7195,-3.6417,-3.5863,-3.5489,-3.5504,-3.5489,-3.5489,-3.5489,-3.5489,-3.5424,-3.4839,-3.4394,-3.4027,-3.4163,-3.4177,-3.4543,-3.5067,-3.5439,-3.5489,-3.507,-3.4442,-3.3829,-3.2706,-3.1642,-3.0629,-2.9491,-2.8684,-2.8556,-2.8247,-2.7604,-2.7683,-2.7364,-2.6918,-2.6714,-2.6521,-2.6521,-2.6521,-2.6521,-2.6483,-2.6251,-2.5887,-2.482,-2.3879,-2.3138,-2.3125,-2.3125,-2.3125,-2.3125,-2.3125,-2.3125,-2.3125,-2.3125,-2.3125,-2.3125,-2.3125,-2.3125,-2.3125,-2.3125,-2.3125,-2.3125,-2.3113,-2.2887,-2.2485,-2.2133,-2.1581,-2.0752,-2.0162,-1.9745,-1.9695,-1.9319,-1.8821,-1.8112,-1.7633,-1.7413,-1.7246,-1.7246,-1.7302,-1.7034,-1.6585,-1.6036,-1.5748,-1.542,-1.542,-1.542,-1.542,-1.542,-1.541,-1.541,-1.542,-1.5468,-1.5642,-1.5526,-1.542,-1.542,-1.542,-1.542,-1.542,-1.542,-1.542,-1.542,-1.542,-4.408,-4.3366,-4.3306,-4.2785,-4.2125,-4.2395,-4.1478,-4.0115,-3.992,-3.9722,-3.9364,-3.8811,-3.8167,-3.7404,-3.6821,-3.6178,-3.5564,-3.5489,-3.5489,-3.5489,-3.5489,-3.5489,-3.5489,-3.5424,-3.5198,-3.4691,-3.4543,-3.4691,-3.4691,-3.5052,-3.5504,-3.5504,-3.5489,-3.4891,-3.4218,-3.3543,-3.2505,-3.1217,-3.0026,-2.898,-2.8441,-2.7934,-2.7162,-2.6905,-2.7108,-2.685,-2.6589,-2.6521,-2.6521,-2.6521,-2.6521,-2.6521,-2.6302,-2.6076,-2.5674,-2.4644,-2.3791,-2.3251,-2.3125,-2.3125,-2.3125,-2.3125,-2.3125,-2.3125,-2.3125,-2.3125,-2.3125,-2.3125,-2.3125,-2.3125,-2.3125,-2.3125,-2.3125,-2.3125,-2.3062,-2.2987,-2.2723,-2.2447,-2.1707,-2.0828,-2.0235,-1.9716,-1.9307,-1.8927,-1.8328,-1.7457,-1.6922,-1.6641,-1.6425,-1.6301,-1.6585,-1.6652,-1.6255,-1.5806,-1.5584,-1.542,-1.542,-1.542,-1.542,-1.541,-1.5468,-1.57,-1.5921,-1.5921,-1.5921,-1.5748,-1.5526,-1.541,-1.542,-1.542,-1.542,-1.542,-1.542,-1.542,-1.542,-4.397,-4.3327,-4.3284,-4.2883,-4.2282,-4.2818,-4.2183,-4.079,-4.0649,-4.014,-3.9163,-3.8078,-3.7554,-3.7105,-3.6402,-3.5878,-3.5549,-3.5489,-3.5489,-3.5489,-3.5489,-3.5489,-3.5489,-3.5489,-3.5359,-3.5424,-3.5424,-3.5198,-3.5344,-3.5489,-3.5489,-3.5489,-3.5355,-3.4756,-3.3784,-3.3395,-3.2405,-3.0979,-2.9775,-2.8684,-2.7802,-2.7108,-2.6521,-2.6521,-2.6589,-2.6521,-2.6521,-2.6521,-2.6521,-2.6521,-2.6521,-2.6521,-2.6163,-2.5661,-2.5146,-2.4607,-2.3853,-2.3376,-2.3175,-2.3125,-2.3125,-2.3125,-2.3125,-2.3125,-2.3125,-2.3125,-2.3125,-2.3125,-2.3125,-2.3125,-2.3125,-2.3125,-2.3125,-2.3125,-2.3088,-2.305,-2.2937,-2.2485,-2.1707,-2.0878,-2.0263,-1.9716,-1.898,-1.8608,-1.7895,-1.6968,-1.6312,-1.5979,-1.5864,-1.569,-1.5864,-1.6265,-1.5979,-1.5642,-1.5526,-1.542,-1.542,-1.542,-1.542,-1.5642,-1.5806,-1.6151,-1.6549,-1.6379,-1.6151,-1.5864,-1.5633,-1.5526,-1.542,-1.542,-1.542,-1.542,-1.542,-1.542,-1.542,-4.3057,-4.3379,-4.3379,-4.325,-4.2996,-4.2702,-4.1929,-4.0929,-4.0913,-4.007,-3.8817,-3.8282,-3.7623,-3.6835,-3.6342,-3.5908,-3.5564,-3.5489,-3.5489,-3.5489,-3.5489,-3.5489,-3.5489,-3.5489,-3.5489,-3.5489,-3.5489,-3.5489,-3.5489,-3.5489,-3.5474,-3.5429,-3.513,-3.4322,-3.3529,-3.3155,-3.2139,-3.0999,-2.9827,-2.8748,-2.7868,-2.704,-2.6521,-2.6521,-2.6521,-2.6521,-2.6521,-2.6521,-2.6521,-2.6521,-2.6521,-2.6521,-2.6483,-2.5762,-2.5247,-2.4782,-2.4205,-2.369,-2.3326,-2.3226,-2.3201,-2.315,-2.3125,-2.3125,-2.3125,-2.3125,-2.3125,-2.3125,-2.3125,-2.3125,-2.3125,-2.3125,-2.3125,-2.3125,-2.3125,-2.3125,-2.3113,-2.241,-2.1669,-2.1029,-2.0351,-1.9515,-1.8762,-1.8058,-1.7413,-1.6687,-1.5968,-1.5584,-1.5584,-1.5526,-1.5526,-1.5758,-1.57,-1.5468,-1.542,-1.542,-1.542,-1.542,-1.542,-1.57,-1.6151,-1.6482,-1.6765,-1.6606,-1.6379,-1.6036,-1.569,-1.5468,-1.542,-1.542,-1.542,-1.542,-1.542,-1.542,-1.542,-4.2523,-4.2912,-4.2912,-4.3115,-4.325,-4.2625,-4.1804,-4.1082,-4.0968,-4.0084,-3.8639,-3.8147,-3.7633,-3.6788,-3.6375,-3.6019,-3.5599,-3.5504,-3.5489,-3.5489,-3.5489,-3.5489,-3.5489,-3.5489,-3.5489,-3.5489,-3.5489,-3.5489,-3.5489,-3.5489,-3.5474,-3.5385,-3.4816,-3.4158,-3.3499,-3.2841,-3.2183,-3.1439,-3.0147,-2.9129,-2.8182,-2.7284,-2.6589,-2.6521,-2.6521,-2.6521,-2.6521,-2.6521,-2.6521,-2.6521,-2.6521,-2.6521,-2.6327,-2.5875,-2.5485,-2.5134,-2.4669,-2.4117,-2.3703,-2.3464,-2.3412,-2.3286,-2.3125,-2.3125,-2.3125,-2.3125,-2.3125,-2.3125,-2.3125,-2.3125,-2.3125,-2.3125,-2.3125,-2.3125,-2.3125,-2.3125,-2.2824,-2.2259,-2.1757,-2.1343,-2.0333,-1.8928,-1.8178,-1.7468,-1.681,-1.6197,-1.5468,-1.541,-1.542,-1.542,-1.542,-1.542,-1.542,-1.542,-1.542,-1.542,-1.542,-1.542,-1.542,-1.6026,-1.6528,-1.6754,-1.6922,-1.6821,-1.6539,-1.6093,-1.5816,-1.5526,-1.542,-1.542,-1.542,-1.542,-1.542,-1.542,-1.542,-4.2033,-4.2134,-4.2168,-4.2523,-4.2963,-4.2303,-4.1523,-4.0938,-4.0826,-4.0197,-3.9007,-3.8026,-3.767,-3.7172,-3.6326,-3.5903,-3.5619,-3.5569,-3.5504,-3.5489,-3.5489,-3.5489,-3.5489,-3.5489,-3.5489,-3.5489,-3.5489,-3.5489,-3.5489,-3.5489,-3.5444,-3.534,-3.4816,-3.4158,-3.3499,-3.2841,-3.2183,-3.1456,-3.0524,-2.9752,-2.8671,-2.7471,-2.6905,-2.6577,-2.6521,-2.6521,-2.6521,-2.6521,-2.6521,-2.6521,-2.6521,-2.6521,-2.6445,-2.6063,-2.5774,-2.5448,-2.5159,-2.4633,-2.4279,-2.4162,-2.3809,-2.3482,-2.3308,-2.3245,-2.3245,-2.3125,-2.3125,-2.3125,-2.3125,-2.3125,-2.3125,-2.3125,-2.3125,-2.3125,-2.3125,-2.3125,-2.2686,-2.2171,-2.1794,-2.1412,-2.0074,-1.86,-1.7633,-1.6866,-1.6312,-1.57,-1.542,-1.542,-1.542,-1.542,-1.542,-1.542,-1.542,-1.542,-1.542,-1.542,-1.542,-1.542,-1.5526,-1.6301,-1.6901,-1.7079,-1.7146,-1.7034,-1.6754,-1.6208,-1.5758,-1.5468,-1.542,-1.542,-1.542,-1.542,-1.542,-1.542,-1.542,-4.0865,-4.1407,-4.1407,-4.1525,-4.1542,-4.0849,-4.0425,-4.0271,-4.027,-4.005,-3.9417,-3.8375,-3.7764,-3.7721,-3.6846,-3.6275,-3.5943,-3.5733,-3.5569,-3.5489,-3.5489,-3.5489,-3.5489,-3.5489,-3.5489,-3.5489,-3.5489,-3.5489,-3.5489,-3.5489,-3.5489,-3.5444,-3.4801,-3.4143,-3.3484,-3.2841,-3.2154,-3.1485,-3.0718,-2.9889,-2.8989,-2.7986,-2.7149,-2.6769,-2.6521,-2.6521,-2.6521,-2.6521,-2.6521,-2.6521,-2.6521,-2.6521,-2.6471,-2.6345,-2.6105,-2.6054,-2.5709,-2.5563,-2.5288,-2.5097,-2.4766,-2.4269,-2.4093,-2.3754,-2.359,-2.3245,-2.3185,-2.3125,-2.3125,-2.3125,-2.3125,-2.3125,-2.3125,-2.3125,-2.3125,-2.3125,-2.2912,-2.2176,-2.1544,-2.0748,-1.9677,-1.829,-1.7079,-1.6539,-1.614,-1.5633,-1.542,-1.542,-1.542,-1.542,-1.542,-1.542,-1.542,-1.542,-1.542,-1.542,-1.542,-1.542,-1.5526,-1.6083,-1.6631,-1.7246,-1.7246,-1.6978,-1.6641,-1.614,-1.5748,-1.542,-1.542,-1.542,-1.542,-1.542,-1.542,-1.542,-1.542]},{"header":{"parameterUnit":"m.s-1","parameterCategory":1,"la1":31.0,"la2":29.5877,"lo1":-88.7671,"lo2":-86.6584,"dy":0.0162,"dx":0.0185,"nx":115,"ny":88,"refTime":"2025-05-17T12:00:00:Z","depth":0,"parameterNumber":3,"parameterNumberName":"V-component_of_WINDS"},"data":[0.0,0.0,0.0,0.0,0.0,0.0,0.0,0.0,0.0,0.0,0.0,0.0,0.0,0.0,0.0,0.0,0.0,0.0,0.0,0.0,0.0,0.0,0.0,0.0,0.0,0.0,0.0,0.0,0.0,0.0,0.0,0.0,0.0,0.0,0.0,0.0,0.0,0.0,0.0,0.0,0.0,0.0,0.0,0.0,0.0,0.0,0.0,0.0,0.0,0.0,0.0,0.0,0.0,0.0,0.0,0.0,0.0,0.0,0.0,0.0,0.0,0.0,0.0,0.0,0.0,0.0,0.0,0.0,0.0,0.0,0.0,0.0,0.0,0.0,0.0,0.0,0.0,0.0,0.0,0.0,0.0,0.0,0.0,0.0,0.0,0.0,0.0,0.0,0.0,0.0,0.0,0.0,0.0,0.0,0.0,0.0,0.0,0.0,0.0,0.0,0.0,0.0,0.0,0.0,0.0,0.0,0.0,0.0,0.0,0.0,0.0,0.0,0.0,0.0,0.0,0.0,0.0,0.0,0.0,0.0,0.0,0.0,0.0,0.0,0.0,0.0,0.0,0.0,0.0,0.0,0.0,0.0,0.0,0.0,0.0,0.0,0.0,0.0,0.0,0.0,0.0,0.0,0.0,0.0,0.0,0.0,0.0,0.0,0.0,0.0,0.0,0.0,0.0,0.0,0.0,0.0,0.0,0.0,0.0,0.0,0.0,0.0,0.0,0.0,0.0,0.0,0.0,0.0,0.0,0.0,0.0,0.0,0.0,0.0,0.0,0.0,0.0,0.0,0.0,0.0,0.0,0.0,0.0,0.0,0.0,0.0,0.0,0.0,0.0,0.0,0.0,0.0,0.0,0.0,0.0,0.0,0.0,0.0,0.0,0.0,0.0,0.0,0.0,0.0,0.0,0.0,0.0,0.0,0.0,0.0,0.0,0.0,0.0,0.0,0.0,0.0,0.0,0.0,0.0,0.0,0.0,0.0,0.0,0.0,0.0,0.0,0.0,0.0,0.0,0.0,0.0,0.0,0.0,0.0,0.0,0.0,0.0,0.0,0.0,0.0,0.0,0.0,0.0,0.0,0.0,0.0,0.0,0.0,0.0,0.0,0.0,0.0,0.0,0.0,0.0,0.0,0.0,0.0,0.0,0.0,0.0,0.0,0.0,0.0,0.0,0.0,0.0,0.0,0.0,0.0,0.0,0.0,0.0,0.0,0.0,0.0,0.0,0.0,0.0,0.0,0.0,0.0,0.0,0.0,0.0,0.0,0.0,0.0,0.0,0.0,0.0,0.0,0.0,0.0,0.0,0.0,0.0,0.0,0.0,0.0,0.0,0.0,0.0,0.0,0.0,0.0,0.0,0.0,0.0,0.0,0.0,0.0,0.0,0.0,0.0,0.0,0.0,0.0,0.0,0.0,0.0,0.0,0.0,0.0,0.0,0.0,0.0,0.0,0.0,0.0,0.0,0.0,0.0,0.0,0.0,0.0,0.0,0.0,0.0,0.0,0.0,0.0,0.0,0.0,0.0,0.0,0.0,0.0,0.0,0.0,0.0,0.0,0.0,0.0,0.0,0.0,0.0,0.0,0.0,0.0,0.0,0.0,0.0,0.0,0.0,0.0,0.0,0.0,0.0,0.0,0.0,0.0,0.0,0.0,0.0,0.0,0.0,0.0,0.0,0.0,0.0,0.0,0.0,0.0,0.0,0.0,0.0,0.0,0.0,0.0,0.0,0.0,0.0,0.0,0.0,0.0,0.0,0.0,0.0,0.0,0.0,0.0,0.0,0.0,0.0,0.0,0.0,0.0,0.0,0.0,0.0,0.0,0.0,0.0,0.0,0.0,0.0,0.0,0.0,0.0,0.0,0.0,0.0,0.0,0.0,0.0,0.0,0.0,0.0,0.0,0.0,0.0,0.0,0.0,0.0,0.0,0.0,0.0,0.0,0.0,0.0,0.0,0.0,0.0,0.0,0.0,0.0,0.0,0.0,0.0,0.0,0.0,0.0,0.0,0.0,0.0,0.0,0.0,0.0,0.0,0.0,0.0,0.0,0.0,0.0,0.0,0.0,0.0,0.0,0.0,0.0,0.0,0.0,0.0,0.0,0.0,0.0,0.0,0.0,0.0,0.0,0.0,0.0,0.0,0.0,0.0,0.0,0.0,0.0,0.0,0.0,0.0,0.0,0.0,0.0,0.0,0.0,0.0,0.0,0.0,0.0,0.0,0.0,0.0,0.0,0.0,0.0,0.0,0.0,0.0,0.0,0.0,0.0,0.0,0.0,0.0,0.0,0.0,0.0,0.0,0.0,0.0,0.0,0.0,0.0,0.0,0.0,0.0,0.0,0.0,0.0,0.0,0.0,0.0,0.0,0.0,0.0,0.0,0.0,0.0,0.0,0.0,0.0,0.0,0.0,0.0,0.0,0.0,0.0,0.0,0.0,0.0,0.0,0.0,0.0,0.0,0.0,0.0,0.0,0.0,0.0,0.0,0.0,0.0,0.0,0.0,0.0,0.0,0.0,0.0,0.0,0.0,0.0,0.0,0.0,0.0,0.0,0.0,0.0,0.0,0.0,0.0,0.0,0.0,0.0,0.0,0.0,0.0,0.0,0.0,0.0,0.0,0.0,0.0,0.0,0.0,0.0,0.0,0.0,0.0,0.0,0.0,0.0,0.0,0.0,0.0,0.0,0.0,0.0,0.0,0.0,0.0,0.0,0.0,0.0,0.0,0.0,0.0,0.0,0.0,0.0,0.0,0.0,0.0,0.0,0.0,0.0,0.0,0.0,0.0,0.0,0.0,0.0,0.0,0.0,0.0,0.0,0.0,0.0,0.0,0.0,0.0,0.0,0.0,0.0,0.0,0.0,0.0,0.0,0.0,0.0,0.0,0.0,0.0,0.0,0.0,0.0,0.0,0.0,0.0,0.0,0.0,0.0,0.0,0.0,0.0,0.0,0.0,0.0,0.0,0.0,0.0,0.0,0.0,0.0,0.0,0.0,0.0,0.0,0.0,0.0,0.0,0.0,0.0,0.0,0.0,0.0,0.0,0.0,0.0,0.0,0.0,0.0,0.0,0.0,0.0,0.0,0.0,0.0,0.0,0.0,0.0,0.0,0.0,0.0,0.0,0.0,0.0,0.0,0.0,0.0,0.0,0.0,0.0,0.0,0.0,0.0,0.0,0.0,0.0,0.0,0.0,0.0,0.0,0.0,0.0,0.0,0.0,0.0,0.0,0.0,0.0,0.0,0.0,0.0,0.0,0.0,0.0,0.0,0.0,0.0,0.0,0.0,0.0,0.0,0.0,0.0,0.0,0.0,0.0,0.0,0.0,0.0,0.0,0.0,0.0,0.0,0.0,0.0,0.0,0.0,0.0,0.0,0.0,0.0,0.0,0.0,0.0,0.0,0.0,0.0,0.0,0.0,0.0,0.0,0.0,0.0,0.0,0.0,0.0,0.0,0.0,0.0,0.0,0.0,0.0,0.0,0.0,0.0,0.0,0.0,0.0,0.0,0.0,0.0,0.0,0.0,0.0,0.0,0.0,0.0,0.0,0.0,0.0,0.0,0.0,0.0,0.0,0.0,0.0,0.0,0.0,0.0,0.0,0.0,0.0,0.0,0.0,0.0,0.0,0.0,0.0,0.0,0.0,0.0,0.0,0.0,0.0,0.0,0.0,0.0,0.0,0.0,0.0,0.0,0.0,0.0,0.0,0.0,0.0,0.0,0.0,0.0,0.0,0.0,0.0,0.0,0.0,0.0,0.0,0.0,0.0,0.0,0.0,0.0,0.0,0.0,0.0,0.0,0.0,0.0,0.0,0.0,0.0,0.0,0.0,0.0,0.0,0.0,0.0,0.0,0.0,0.0,0.0,0.0,0.0,0.0,0.0,0.0,0.0,0.0,0.0,0.0,0.0,0.0,0.0,0.0,0.0,0.0,0.0,0.0,0.0,0.0,0.0,0.0,0.0,0.0,0.0,0.0,0.0,0.0,0.0,0.0,0.0,0.0,0.0,0.0,0.0,0.0,0.0,0.0,0.0,0.0,0.0,0.0,0.0,0.0,0.0,0.0,0.0,0.0,0.0,0.0,0.0,0.0,0.0,0.0,0.0,0.0,0.0,0.0,0.0,0.0,0.0,0.0,0.0,0.0,0.0,0.0,0.0,0.0,0.0,0.0,0.0,0.0,0.0,0.0,0.0,0.0,0.0,0.0,0.0,0.0,0.0,0.0,0.0,0.0,0.0,0.0,0.0,0.0,0.0,0.0,0.0,0.0,0.0,-0.7376,0.0,0.0,0.0,0.0,0.0,0.0,0.0,0.0,0.0,0.0,0.0,0.0,0.0,0.0,0.0,0.0,0.0,0.0,0.0,0.0,0.0,0.0,0.0,0.0,0.0,0.0,0.0,0.0,0.0,0.0,0.0,0.0,0.0,0.0,0.0,0.0,0.0,0.0,0.0,0.0,0.0,0.0,0.0,0.0,0.0,0.0,0.0,0.0,0.0,0.0,0.0,0.0,0.0,0.0,0.0,0.0,0.0,0.0,0.0,0.0,0.0,0.0,0.0,0.0,0.0,0.0,0.0,0.0,0.0,0.0,0.0,0.0,0.0,0.0,0.0,0.0,0.0,0.0,0.0,0.0,0.0,0.0,0.0,0.0,0.0,0.0,0.0,0.0,0.0,0.0,0.0,0.0,0.0,0.0,0.0,0.0,0.0,0.0,0.0,0.0,0.0,0.0,0.0,0.0,0.0,0.0,0.0,0.0,0.0,0.0,-0.7754,-0.7773,-0.7899,-0.7923,-0.7869,0.0,0.0,0.0,0.0,0.0,0.0,0.0,0.0,0.0,0.0,0.0,0.0,0.0,0.0,0.0,0.0,0.0,0.0,0.0,0.0,0.0,0.0,0.0,0.0,0.0,0.0,0.0,0.0,0.0,0.0,0.0,0.0,0.0,0.0,0.0,0.0,0.0,0.0,0.0,0.0,0.0,0.0,0.0,0.0,0.0,0.0,0.0,0.0,0.0,0.0,0.0,0.0,0.0,0.0,0.0,0.0,0.0,0.0,0.0,0.0,0.0,0.0,0.0,0.0,0.0,0.0,0.0,0.0,0.0,0.0,0.0,0.0,0.0,0.0,0.0,0.0,0.0,0.0,0.0,0.0,0.0,0.0,0.0,0.0,0.0,0.0,0.0,0.0,0.0,0.0,0.0,0.0,0.0,0.0,0.0,0.0,0.0,0.0,0.0,0.0,0.0,0.0,0.0,0.0,0.0,0.0,0.0,0.0,0.0,0.0,0.0,0.0,-0.8054,-0.8197,-0.8347,0.0,0.0,0.0,0.0,0.0,0.0,0.0,0.0,0.0,0.0,0.0,0.0,0.0,0.0,0.0,0.0,0.0,0.0,0.0,0.0,0.0,0.0,0.0,0.0,0.0,0.0,0.0,0.0,0.0,0.0,0.0,0.0,0.0,0.0,0.0,0.0,0.0,0.0,0.0,0.0,0.0,0.0,0.0,0.0,0.0,0.0,0.0,0.0,0.0,0.0,0.0,0.0,0.0,0.0,0.0,0.0,0.0,0.0,0.0,0.0,0.0,0.0,0.0,0.0,0.0,0.0,0.0,0.0,0.0,0.0,0.0,0.0,0.0,0.0,0.0,0.0,0.0,0.0,0.0,0.0,0.0,0.0,0.0,0.0,0.0,0.0,0.0,0.0,0.0,0.0,0.0,0.0,0.0,0.0,0.0,0.0,0.0,0.0,0.0,0.0,0.0,0.0,0.0,0.0,0.0,0.0,0.0,0.0,0.0,0.0,-0.7947,-0.8064,-0.814,0.0,-0.8712,0.0,0.0,0.0,0.0,0.0,0.0,0.0,0.0,0.0,0.0,0.0,0.0,0.0,0.0,0.0,0.0,0.0,0.0,0.0,0.0,0.0,0.0,0.0,0.0,0.0,0.0,0.0,0.0,0.0,0.0,0.0,0.0,0.0,0.0,0.0,0.0,0.0,0.0,0.0,0.0,0.0,0.0,0.0,0.0,0.0,0.0,0.0,0.0,0.0,0.0,0.0,0.0,0.0,0.0,0.0,0.0,0.0,0.0,0.0,0.0,0.0,0.0,0.0,0.0,0.0,0.0,0.0,0.0,0.0,0.0,0.0,0.0,0.0,0.0,0.0,0.0,0.0,0.0,0.0,0.0,0.0,0.0,0.0,0.0,0.0,0.0,0.0,0.0,0.0,0.0,0.0,0.0,0.0,0.0,0.0,0.0,0.0,0.0,0.0,0.0,0.0,0.0,0.0,0.0,0.0,0.0,0.0,0.0,0.0,0.0,-0.8119,-0.8215,-0.8404,-0.8673,0.0,0.0,0.0,0.0,0.0,0.0,0.0,0.0,0.0,0.0,0.0,0.0,0.0,0.0,0.0,0.0,0.0,0.0,0.0,0.0,0.0,0.0,0.0,0.0,0.0,0.0,0.0,0.0,0.0,0.0,0.0,0.0,0.0,0.0,0.0,0.0,0.0,0.0,0.0,0.0,0.0,0.0,0.0,0.0,0.0,0.0,0.0,0.0,0.0,0.0,0.0,0.0,0.0,0.0,0.0,0.0,0.0,0.0,0.0,0.0,0.0,0.0,0.0,0.0,0.0,0.0,0.0,0.0,0.0,0.0,0.0,0.0,0.0,0.0,0.0,0.0,0.0,0.0,0.0,0.0,0.0,0.0,0.0,0.0,0.0,0.0,0.0,0.0,0.0,0.0,0.0,0.0,0.0,0.0,0.0,0.0,0.0,0.0,0.0,0.0,0.0,0.0,0.0,0.0,0.0,0.0,0.0,0.0,0.0,0.0,-0.8015,0.0,-0.8449,-0.869,-0.8919,-0.9022,0.0,0.0,0.0,0.0,0.0,0.0,0.0,0.0,0.0,0.0,0.0,0.0,0.0,0.0,0.0,0.0,0.0,0.0,0.0,0.0,0.0,0.0,0.0,0.0,0.0,0.0,0.0,0.0,0.0,0.0,0.0,0.0,0.0,0.0,0.0,0.0,0.0,0.0,0.0,0.0,0.0,0.0,0.0,0.0,0.0,0.0,0.0,0.0,0.0,0.0,0.0,0.0,0.0,0.0,0.0,0.0,0.0,0.0,0.0,0.0,0.0,0.0,0.0,0.0,0.0,0.0,0.0,0.0,0.0,0.0,0.0,0.0,0.0,0.0,0.0,0.0,0.0,0.0,0.0,0.0,0.0,0.0,0.0,0.0,0.0,0.0,0.0,0.0,0.0,0.0,0.0,0.0,0.0,0.0,0.0,0.0,0.0,0.0,0.0,0.0,0.0,0.0,0.0,0.0,0.0,0.0,0.0,0.0,0.0,-0.8197,-0.8589,-0.8761,-0.9031,-0.8998,0.0,0.0,0.0,0.0,0.0,0.0,0.0,0.0,0.0,0.0,0.0,0.0,0.0,0.0,0.0,0.0,0.0,0.0,0.0,0.0,0.0,0.0,0.0,0.0,0.0,0.0,0.0,0.0,0.0,0.0,0.0,0.0,0.0,0.0,0.0,0.0,0.0,0.0,0.0,0.0,0.0,0.0,0.0,0.0,0.0,0.0,0.0,0.0,0.0,0.0,0.0,0.0,0.0,0.0,0.0,0.0,0.0,0.0,0.0,0.0,0.0,0.0,0.0,0.0,0.0,0.0,0.0,0.0,0.0,0.0,0.0,0.0,0.0,0.0,0.0,0.0,0.0,0.0,0.0,0.0,0.0,0.0,0.0,0.0,0.0,0.0,0.0,0.0,0.0,0.0,0.0,0.0,0.0,0.0,0.0,0.0,0.0,0.0,0.0,0.0,0.0,0.0,0.0,0.0,0.0,0.0,0.0,0.0,0.0,-0.7519,-0.8394,-0.896,-0.9101,-0.9301,-0.9209,0.0,0.0,0.0,0.0,0.0,0.0,0.0,0.0,0.0,0.0,0.0,0.0,0.0,0.0,0.0,0.0,0.0,0.0,0.0,0.0,0.0,0.0,0.0,0.0,0.0,0.0,0.0,0.0,0.0,0.0,0.0,0.0,0.0,0.0,0.0,0.0,0.0,0.0,0.0,0.0,0.0,0.0,0.0,0.0,0.0,0.0,0.0,0.0,0.0,0.0,0.0,0.0,0.0,0.0,0.0,0.0,0.0,0.0,0.0,0.0,0.0,0.0,0.0,0.0,0.0,0.0,0.0,0.0,0.0,0.0,0.0,0.0,0.0,0.0,0.0,0.0,0.0,0.0,0.0,0.0,0.0,0.0,0.0,0.0,0.0,0.0,0.0,0.0,0.0,0.0,0.0,0.0,0.0,0.0,0.0,0.0,0.0,0.0,0.0,0.0,0.0,0.0,0.0,0.0,0.0,0.0,0.0,0.0,0.0,-0.8023,0.0,-0.9324,0.0,-0.9581,-0.9516,0.0,0.0,0.0,0.0,0.0,0.0,0.0,0.0,0.0,0.0,0.0,0.0,0.0,0.0,0.0,0.0,0.0,0.0,0.0,0.0,0.0,0.0,0.0,0.0,0.0,0.0,0.0,0.0,0.0,0.0,0.0,0.0,0.0,0.0,0.0,0.0,0.0,0.0,0.0,0.0,0.0,0.0,0.0,0.0,0.0,0.0,0.0,0.0,0.0,0.0,0.0,0.0,0.0,0.0,0.0,0.0,0.0,0.0,0.0,0.0,0.0,0.0,0.0,0.0,0.0,0.0,0.0,0.0,0.0,0.0,0.0,0.0,0.0,0.0,0.0,0.0,0.0,0.0,0.0,0.0,0.0,0.0,0.0,0.0,0.0,0.0,0.0,0.0,0.0,0.0,0.0,0.0,0.0,0.0,0.0,0.0,0.0,0.0,0.0,0.0,0.0,0.0,0.0,0.0,0.0,0.0,0.0,0.0,-0.8071,-0.9254,-0.9523,-0.9705,-0.9735,-0.9943,-0.9866,0.0,0.0,0.0,0.0,0.0,0.0,0.0,0.0,0.0,0.0,0.0,0.0,0.0,0.0,0.0,0.0,0.0,0.0,0.0,0.0,0.0,0.0,0.0,0.0,0.0,0.0,0.0,0.0,0.0,0.0,0.0,0.0,0.0,0.0,0.0,0.0,0.0,0.0,0.0,0.0,0.0,0.0,0.0,0.0,0.0,0.0,0.0,0.0,0.0,0.0,0.0,0.0,0.0,0.0,0.0,0.0,0.0,0.0,0.0,0.0,0.0,0.0,0.0,0.0,0.0,0.0,0.0,0.0,0.0,0.0,0.0,0.0,0.0,0.0,0.0,0.0,0.0,0.0,0.0,0.0,0.0,0.0,0.0,0.0,0.0,0.0,0.0,0.0,0.0,0.0,0.0,0.0,0.0,0.0,0.0,0.0,0.0,0.0,0.0,0.0,0.0,0.0,0.0,0.0,0.0,0.0,0.0,0.0,0.0,-1.0183,-1.0803,-1.1162,-1.1263,-1.1028,-1.0728,0.0,0.0,0.0,0.0,0.0,0.0,0.0,0.0,0.0,0.0,0.0,0.0,0.0,0.0,0.0,0.0,0.0,0.0,0.0,0.0,0.0,0.0,0.0,0.0,0.0,0.0,0.0,0.0,0.0,0.0,0.0,0.0,0.0,0.0,0.0,0.0,0.0,0.0,0.0,0.0,0.0,0.0,0.0,0.0,0.0,0.0,0.0,0.0,0.0,0.0,0.0,0.0,0.0,0.0,0.0,0.0,0.0,0.0,0.0,0.0,0.0,0.0,0.0,0.0,0.0,0.0,0.0,0.0,0.0,0.0,0.0,0.0,0.0,0.0,0.0,0.0,0.0,0.0,0.0,0.0,0.0,0.0,0.0,0.0,0.0,0.0,0.0,0.0,0.0,0.0,0.0,0.0,0.0,0.0,0.0,0.0,0.0,0.0,0.0,0.0,0.0,0.0,0.0,0.0,0.0,0.0,0.0,0.0,0.0,-1.2459,-1.2677,-1.2877,-1.3058,-1.2796,-1.2224,-1.1283,0.0,0.0,0.0,0.0,0.0,0.0,0.0,0.0,0.0,0.0,0.0,0.0,0.0,0.0,0.0,0.0,0.0,0.0,0.0,0.0,0.0,0.0,0.0,0.0,0.0,0.0,0.0,0.0,0.0,0.0,0.0,0.0,0.0,0.0,0.0,0.0,0.0,0.0,0.0,0.0,0.0,0.0,0.0,0.0,0.0,0.0,0.0,0.0,0.0,0.0,0.0,0.0,0.0,0.0,0.0,0.0,0.0,0.0,0.0,0.0,0.0,0.0,0.0,0.0,0.0,0.0,0.0,0.0,0.0,0.0,0.0,0.0,0.0,0.0,0.0,0.0,0.0,0.0,0.0,0.0,0.0,0.0,0.0,0.0,0.0,0.0,0.0,0.0,0.0,0.0,0.0,0.0,0.0,0.0,0.0,0.0,0.0,0.0,0.0,0.0,0.0,0.0,0.0,0.0,0.0,0.0,0.0,0.0,-1.5686,-1.5166,-1.4966,-1.504,-1.5051,-1.4155,0.0,0.0,0.0,0.0,0.0,0.0,0.0,0.0,0.0,0.0,0.0,0.0,0.0,0.0,0.0,0.0,0.0,0.0,0.0,0.0,0.0,0.0,0.0,0.0,0.0,0.0,0.0,0.0,0.0,0.0,0.0,0.0,0.0,0.0,0.0,0.0,0.0,0.0,0.0,0.0,0.0,0.0,0.0,0.0,0.0,0.0,0.0,0.0,0.0,0.0,0.0,0.0,0.0,0.0,0.0,0.0,0.0,0.0,0.0,0.0,0.0,0.0,0.0,0.0,0.0,0.0,0.0,0.0,0.0,0.0,0.0,0.0,0.0,0.0,0.0,0.0,0.0,0.0,0.0,0.0,0.0,0.0,0.0,0.0,0.0,0.0,0.0,0.0,0.0,0.0,0.0,0.0,0.0,0.0,0.0,0.0,0.0,0.0,0.0,0.0,0.0,0.0,0.0,0.0,0.0,0.0,0.0,0.0,0.0,-1.8108,-1.9064,-1.9006,-1.7921,-1.6607,-1.544,0.0,0.0,0.0,0.0,0.0,0.0,0.0,0.0,0.0,0.0,0.0,0.0,0.0,0.0,0.0,0.0,0.0,0.0,0.0,0.0,0.0,0.0,0.0,0.0,0.0,0.0,0.0,0.0,0.0,0.0,0.0,0.0,0.0,0.0,0.0,0.0,0.0,0.0,0.0,0.0,0.0,0.0,0.0,0.0,0.0,0.0,0.0,0.0,0.0,0.0,0.0,0.0,0.0,0.0,0.0,0.0,0.0,0.0,0.0,0.0,0.0,0.0,0.0,0.0,0.0,0.0,0.0,0.0,0.0,0.0,0.0,0.0,0.0,0.0,0.0,0.0,0.0,0.0,0.0,0.0,0.0,0.0,0.0,0.0,0.0,0.0,0.0,0.0,0.0,0.0,0.0,0.0,0.0,0.0,0.0,0.0,0.0,0.0,0.0,0.0,0.0,0.0,0.0,0.0,0.0,0.0,0.0,0.0,-1.7754,-1.9593,-2.1329,-2.1813,-2.094,-1.8796,-1.7031,0.0,0.0,0.0,0.0,0.0,0.0,0.0,0.0,0.0,0.0,0.0,0.0,0.0,0.0,0.0,0.0,0.0,0.0,0.0,0.0,0.0,0.0,0.0,0.0,0.0,0.0,0.0,0.0,0.0,0.0,0.0,0.0,0.0,0.0,0.0,0.0,0.0,0.0,0.0,0.0,0.0,0.0,0.0,0.0,0.0,0.0,0.0,0.0,0.0,0.0,0.0,0.0,0.0,0.0,0.0,0.0,0.0,0.0,0.0,0.0,0.0,0.0,0.0,0.0,0.0,0.0,0.0,0.0,0.0,0.0,0.0,0.0,0.0,0.0,0.0,0.0,0.0,0.0,0.0,0.0,0.0,0.0,0.0,0.0,0.0,0.0,0.0,0.0,0.0,0.0,0.0,0.0,0.0,0.0,0.0,0.0,0.0,0.0,0.0,0.0,0.0,0.0,0.0,0.0,0.0,0.0,0.0,0.0,-1.9075,-2.0421,-2.2497,-2.3595,-2.352,-2.1078,-1.8737,0.0,0.0,0.0,0.0,0.0,0.0,0.0,0.0,0.0,0.0,0.0,0.0,0.0,0.0,0.0,0.0,0.0,0.0,0.0,0.0,0.0,0.0,0.0,0.0,0.0,0.0,0.0,0.0,0.0,0.0,0.0,0.0,0.0,0.0,0.0,0.0,0.0,0.0,0.0,0.0,0.0,0.0,0.0,0.0,0.0,0.0,0.0,0.0,0.0,0.0,0.0,0.0,0.0,0.0,0.0,0.0,0.0,0.0,0.0,0.0,0.0,0.0,0.0,0.0,0.0,0.0,0.0,0.0,0.0,0.0,0.0,0.0,0.0,0.0,0.0,0.0,0.0,0.0,0.0,0.0,0.0,0.0,0.0,0.0,0.0,0.0,0.0,0.0,0.0,0.0,0.0,0.0,0.0,0.0,0.0,0.0,0.0,0.0,0.0,0.0,0.0,0.0,0.0,0.0,0.0,0.0,0.0,0.0,-1.9811,-2.1297,-2.282,-2.3595,-2.358,-2.155,-1.97,0.0,0.0,0.0,0.0,0.0,0.0,0.0,0.0,0.0,0.0,0.0,0.0,0.0,0.0,0.0,0.0,0.0,0.0,0.0,0.0,0.0,0.0,0.0,0.0,0.0,0.0,0.0,0.0,0.0,0.0,0.0,0.0,0.0,0.0,0.0,0.0,0.0,0.0,0.0,0.0,0.0,0.0,0.0,0.0,0.0,0.0,0.0,0.0,-1.1222,0.0,0.0,0.0,0.0,0.0,0.0,0.0,0.0,0.0,0.0,0.0,0.0,0.0,0.0,0.0,0.0,0.0,0.0,0.0,0.0,0.0,0.0,0.0,0.0,0.0,0.0,0.0,0.0,0.0,0.0,0.0,0.0,0.0,0.0,0.0,0.0,0.0,0.0,0.0,0.0,0.0,0.0,0.0,0.0,0.0,0.0,0.0,0.0,0.0,0.0,0.0,0.0,0.0,0.0,0.0,0.0,0.0,0.0,0.0,-2.0294,-2.1977,-2.3044,-2.3595,-2.355,-2.2005,-2.048,0.0,0.0,0.0,0.0,0.0,0.0,0.0,0.0,0.0,0.0,0.0,0.0,0.0,0.0,0.0,0.0,0.0,0.0,0.0,0.0,0.0,0.0,0.0,0.0,0.0,0.0,0.0,0.0,0.0,0.0,0.0,0.0,0.0,0.0,0.0,0.0,0.0,0.0,0.0,0.0,0.0,0.0,0.0,0.0,0.0,0.0,0.0,0.0,0.0,0.0,0.0,0.0,0.0,0.0,0.0,0.0,0.0,0.0,0.0,0.0,0.0,0.0,0.0,0.0,0.0,0.0,0.0,0.0,0.0,0.0,0.0,0.0,0.0,0.0,0.0,0.0,0.0,0.0,0.0,0.0,0.0,0.0,0.0,0.0,0.0,0.0,0.0,0.0,0.0,0.0,0.0,0.0,0.0,0.0,0.0,0.0,0.0,0.0,0.0,0.0,0.0,0.0,0.0,0.0,0.0,0.0,0.0,-1.8599,-2.057,-2.2587,-2.3283,-2.3595,-2.3595,-2.2337,-2.1,-1.9531,0.0,0.0,0.0,0.0,0.0,0.0,0.0,0.0,0.0,0.0,0.0,0.0,0.0,0.0,0.0,0.0,0.0,0.0,0.0,0.0,0.0,0.0,0.0,0.0,0.0,0.0,0.0,0.0,0.0,0.0,0.0,0.0,0.0,0.0,0.0,0.0,0.0,0.0,-0.8915,-0.956,0.0,0.0,0.0,0.0,0.0,0.0,0.0,0.0,-1.2669,0.0,0.0,0.0,0.0,0.0,0.0,0.0,0.0,0.0,0.0,0.0,0.0,0.0,0.0,0.0,0.0,0.0,0.0,0.0,0.0,0.0,0.0,0.0,0.0,0.0,0.0,0.0,0.0,0.0,0.0,0.0,0.0,0.0,0.0,0.0,0.0,0.0,0.0,0.0,0.0,0.0,0.0,0.0,0.0,0.0,0.0,0.0,0.0,0.0,0.0,0.0,0.0,0.0,0.0,0.0,0.0,-1.8076,-1.9043,-2.0777,-2.3327,-2.3535,-2.3595,-2.3565,-2.2375,-2.1015,-1.9516,0.0,0.0,0.0,0.0,0.0,0.0,0.0,0.0,0.0,0.0,0.0,0.0,0.0,0.0,0.0,0.0,0.0,0.0,0.0,0.0,0.0,0.0,0.0,0.0,0.0,0.0,0.0,0.0,0.0,0.0,0.0,0.0,0.0,0.0,0.0,0.0,0.0,0.0,0.0,-1.1152,-1.1477,0.0,0.0,0.0,0.0,0.0,0.0,0.0,0.0,-1.3869,0.0,0.0,0.0,0.0,0.0,0.0,0.0,0.0,0.0,0.0,0.0,0.0,0.0,0.0,0.0,0.0,0.0,0.0,0.0,0.0,0.0,0.0,0.0,0.0,0.0,0.0,0.0,0.0,0.0,0.0,0.0,0.0,0.0,0.0,0.0,0.0,0.0,0.0,0.0,0.0,0.0,0.0,0.0,0.0,0.0,0.0,0.0,0.0,0.0,0.0,0.0,0.0,0.0,0.0,0.0,-1.8337,-1.9901,-2.16,-2.352,-2.3595,-2.3595,-2.3565,-2.2034,-2.0631,0.0,0.0,0.0,0.0,0.0,0.0,0.0,0.0,0.0,0.0,0.0,0.0,0.0,0.0,0.0,0.0,0.0,0.0,0.0,0.0,0.0,0.0,0.0,0.0,0.0,0.0,0.0,0.0,0.0,0.0,0.0,0.0,0.0,0.0,0.0,0.0,0.0,0.0,0.0,0.0,-1.295,-1.3714,-1.5484,0.0,0.0,0.0,0.0,0.0,0.0,-1.563,-1.4985,0.0,0.0,0.0,0.0,0.0,0.0,0.0,0.0,0.0,0.0,0.0,0.0,0.0,0.0,0.0,0.0,0.0,0.0,0.0,0.0,0.0,0.0,0.0,0.0,0.0,0.0,0.0,0.0,0.0,0.0,0.0,0.0,0.0,0.0,0.0,0.0,0.0,0.0,0.0,0.0,0.0,0.0,0.0,0.0,0.0,0.0,0.0,0.0,0.0,0.0,0.0,0.0,0.0,0.0,0.0,-1.8567,-2.0638,-2.2308,-2.3535,-2.3595,-2.3595,-2.3565,-2.1589,-2.0181,0.0,0.0,0.0,0.0,0.0,0.0,0.0,0.0,0.0,0.0,0.0,0.0,0.0,0.0,0.0,0.0,0.0,0.0,0.0,0.0,0.0,0.0,0.0,0.0,0.0,0.0,0.0,0.0,0.0,0.0,0.0,0.0,0.0,0.0,0.0,0.0,0.0,0.0,0.0,0.0,0.0,-1.5764,-1.7633,-1.6967,0.0,0.0,0.0,0.0,-1.7131,-1.6946,0.0,0.0,0.0,0.0,0.0,0.0,0.0,0.0,0.0,0.0,0.0,0.0,0.0,0.0,0.0,0.0,0.0,0.0,0.0,0.0,0.0,0.0,0.0,0.0,0.0,0.0,0.0,0.0,0.0,0.0,0.0,0.0,0.0,0.0,0.0,0.0,0.0,0.0,0.0,0.0,0.0,0.0,0.0,0.0,0.0,0.0,0.0,0.0,0.0,0.0,0.0,0.0,0.0,0.0,0.0,0.0,-1.9134,-2.0807,-2.2267,-2.352,-2.3595,-2.3595,-2.3565,-2.1123,-1.9708,0.0,0.0,0.0,0.0,0.0,0.0,0.0,0.0,0.0,0.0,0.0,0.0,0.0,0.0,0.0,0.0,0.0,0.0,0.0,0.0,0.0,0.0,0.0,0.0,0.0,0.0,0.0,0.0,0.0,0.0,0.0,0.0,0.0,0.0,0.0,0.0,0.0,0.0,0.0,0.0,0.0,-1.6189,-1.7752,-1.7262,-1.6734,0.0,0.0,-1.8625,-1.8663,-1.9178,0.0,0.0,0.0,0.0,0.0,0.0,0.0,0.0,0.0,0.0,0.0,0.0,0.0,0.0,0.0,0.0,0.0,0.0,0.0,0.0,0.0,0.0,0.0,0.0,0.0,0.0,0.0,0.0,0.0,0.0,0.0,0.0,0.0,0.0,0.0,0.0,0.0,0.0,0.0,0.0,0.0,0.0,0.0,0.0,0.0,0.0,0.0,0.0,0.0,0.0,0.0,0.0,0.0,0.0,0.0,-1.7306,-1.9199,-2.151,-2.3041,-2.3565,-2.3595,-2.3595,-2.3595,-2.1066,-1.9617,0.0,0.0,0.0,0.0,0.0,0.0,0.0,0.0,0.0,0.0,0.0,0.0,0.0,0.0,0.0,0.0,0.0,0.0,0.0,0.0,0.0,0.0,0.0,0.0,0.0,0.0,0.0,0.0,0.0,0.0,0.0,0.0,0.0,0.0,0.0,0.0,0.0,0.0,0.0,0.0,0.0,0.0,-1.8495,-1.8495,0.0,0.0,0.0,-1.8886,-1.8415,0.0,0.0,0.0,0.0,0.0,0.0,0.0,0.0,0.0,0.0,0.0,0.0,0.0,0.0,0.0,0.0,0.0,0.0,0.0,0.0,0.0,0.0,0.0,0.0,0.0,0.0,0.0,0.0,0.0,0.0,0.0,0.0,0.0,0.0,0.0,0.0,0.0,0.0,0.0,0.0,0.0,0.0,0.0,0.0,0.0,0.0,0.0,0.0,0.0,0.0,0.0,0.0,0.0,0.0,0.0,0.0,0.0,-1.9116,-2.2058,-2.3595,-2.3595,-2.3595,-2.3595,-2.3565,-2.138,0.0,0.0,0.0,0.0,0.0,0.0,0.0,0.0,0.0,0.0,0.0,0.0,0.0,0.0,0.0,0.0,0.0,0.0,0.0,0.0,0.0,0.0,0.0,0.0,0.0,0.0,0.0,-0.6807,0.0,0.0,0.0,0.0,0.0,0.0,0.0,0.0,0.0,0.0,0.0,0.0,0.0,0.0,-1.8495,-1.9047,-1.9648,-2.0125,0.0,0.0,-1.9454,-1.8829,-1.9798,-1.9653,0.0,0.0,0.0,0.0,0.0,0.0,0.0,0.0,0.0,0.0,0.0,0.0,0.0,0.0,0.0,0.0,0.0,0.0,0.0,0.0,0.0,0.0,0.0,0.0,0.0,0.0,0.0,0.0,0.0,0.0,0.0,0.0,0.0,0.0,0.0,0.0,0.0,0.0,0.0,0.0,0.0,0.0,0.0,0.0,0.0,0.0,0.0,0.0,0.0,0.0,0.0,0.0,0.0,0.0,0.0,-1.913,-2.2058,-2.3595,-2.3595,-2.3595,-2.3595,-2.358,-2.2278,-2.0899,0.0,0.0,0.0,0.0,0.0,0.0,0.0,0.0,0.0,0.0,0.0,0.0,0.0,0.0,0.0,0.0,0.0,0.0,0.0,0.0,0.0,0.0,0.0,0.0,0.0,0.0,0.0,0.0,0.0,0.0,0.0,0.0,0.0,0.0,0.0,0.0,0.0,0.0,0.0,0.0,0.0,-1.8307,-1.9001,-2.0362,-2.1242,0.0,0.0,-2.1182,-2.101,-2.1617,-2.1143,-1.8149,0.0,0.0,0.0,0.0,0.0,0.0,0.0,0.0,0.0,0.0,0.0,0.0,0.0,0.0,0.0,0.0,0.0,0.0,0.0,0.0,0.0,0.0,0.0,0.0,0.0,0.0,0.0,0.0,0.0,0.0,0.0,0.0,0.0,0.0,0.0,0.0,0.0,0.0,0.0,0.0,0.0,0.0,0.0,0.0,0.0,0.0,0.0,0.0,0.0,0.0,0.0,0.0,0.0,-1.7197,-1.8907,-2.1668,-2.3231,-2.3595,-2.3595,-2.3595,-2.3595,-2.2368,-2.0989,0.0,0.0,0.0,0.0,0.0,0.0,0.0,0.0,0.0,0.0,0.0,0.0,0.0,0.0,0.0,0.0,0.0,0.0,0.0,0.0,0.0,0.0,0.0,0.0,0.0,0.0,0.0,0.0,-1.2249,-1.2749,-1.2048,0.0,0.0,0.0,0.0,0.0,0.0,0.0,0.0,0.0,0.0,-1.9079,-2.0229,-2.0909,0.0,0.0,-2.124,-2.1087,-2.0534,-2.1109,-2.0585,-1.7591,-1.6571,0.0,0.0,0.0,0.0,0.0,0.0,0.0,0.0,0.0,0.0,0.0,0.0,0.0,0.0,0.0,0.0,0.0,0.0,0.0,0.0,0.0,0.0,0.0,0.0,0.0,0.0,0.0,0.0,0.0,0.0,0.0,0.0,0.0,0.0,0.0,0.0,0.0,0.0,0.0,0.0,0.0,0.0,0.0,0.0,0.0,0.0,0.0,0.0,0.0,0.0,0.0,0.0,-1.7046,-1.8817,-2.137,-2.3009,-2.3595,-2.3595,-2.3595,-2.3565,-2.2727,-2.161,0.0,0.0,0.0,0.0,0.0,0.0,0.0,0.0,0.0,0.0,0.0,0.0,0.0,0.0,0.0,0.0,0.0,0.0,0.0,0.0,0.0,0.0,0.0,0.0,0.0,0.0,0.0,0.0,-1.3458,-1.3555,-1.2274,0.0,0.0,0.0,0.0,0.0,0.0,0.0,0.0,0.0,0.0,-1.9777,-2.0798,-2.13,-2.1453,-2.0985,-2.1113,-2.0994,-2.0154,-2.0509,-2.0052,-1.7749,0.0,0.0,0.0,0.0,0.0,0.0,0.0,0.0,0.0,0.0,0.0,0.0,0.0,0.0,0.0,0.0,0.0,0.0,0.0,0.0,0.0,0.0,0.0,0.0,0.0,0.0,0.0,0.0,0.0,0.0,-0.9568,0.0,0.0,0.0,0.0,0.0,0.0,0.0,0.0,0.0,0.0,0.0,0.0,0.0,0.0,0.0,0.0,0.0,0.0,0.0,0.0,0.0,0.0,-1.7435,-1.8793,-2.137,-2.2979,-2.3551,-2.3595,-2.3595,-2.3595,-2.3565,-2.2894,-2.1555,0.0,0.0,0.0,0.0,0.0,0.0,0.0,0.0,0.0,0.0,0.0,0.0,0.0,0.0,0.0,0.0,0.0,0.0,0.0,0.0,0.0,0.0,0.0,0.0,0.0,0.0,-1.0749,-1.1955,-1.2712,0.0,0.0,0.0,0.0,0.0,0.0,0.0,0.0,0.0,0.0,-1.8693,-2.0127,-2.0318,-2.155,-2.1934,-2.0582,-2.1001,-2.1156,-2.0246,-2.0102,-1.9847,0.0,0.0,0.0,0.0,0.0,0.0,0.0,0.0,0.0,0.0,0.0,0.0,0.0,0.0,0.0,0.0,0.0,0.0,0.0,0.0,0.0,0.0,0.0,0.0,0.0,0.0,0.0,-1.1314,-1.1372,0.0,0.0,0.0,0.0,0.0,0.0,0.0,0.0,0.0,0.0,0.0,-1.8058,-1.7894,0.0,0.0,0.0,0.0,0.0,0.0,0.0,0.0,0.0,0.0,0.0,0.0,-1.7143,-1.9293,-2.1105,-2.2515,-2.3551,-2.3595,-2.3595,-2.3595,-2.3595,-2.2912,-2.151,0.0,0.0,0.0,0.0,0.0,0.0,0.0,0.0,0.0,0.0,0.0,0.0,0.0,0.0,0.0,0.0,0.0,0.0,0.0,0.0,0.0,0.0,0.0,0.0,0.0,-1.2235,0.0,0.0,0.0,0.0,0.0,0.0,0.0,0.0,0.0,0.0,0.0,-1.7152,-1.8194,-1.8984,-1.9802,-2.0875,-2.1438,-2.1737,0.0,0.0,0.0,0.0,0.0,0.0,0.0,0.0,0.0,0.0,0.0,0.0,0.0,0.0,-1.5662,-1.4892,-1.5686,-1.6463,-1.6413,0.0,0.0,0.0,0.0,0.0,0.0,0.0,0.0,0.0,0.0,0.0,0.0,0.0,0.0,-1.4064,0.0,-1.3549,0.0,0.0,0.0,0.0,0.0,0.0,0.0,0.0,-1.8548,-1.9674,-2.0118,-1.9924,-1.9999,0.0,-1.9567,-1.7965,0.0,0.0,0.0,0.0,0.0,0.0,0.0,0.0,-1.7361,-1.9553,-2.098,-2.2317,-2.3508,-2.3595,-2.3595,-2.3595,-2.3595,-2.3059,-2.1891,-1.9863,-1.8188,0.0,0.0,0.0,0.0,0.0,0.0,0.0,0.0,0.0,0.0,0.0,0.0,0.0,0.0,0.0,0.0,0.0,0.0,0.0,0.0,0.0,0.0,0.0,-1.3421,0.0,0.0,0.0,0.0,0.0,0.0,0.0,0.0,0.0,-1.5327,-1.7228,-1.8846,-1.9386,-1.9913,-2.0517,-2.1293,0.0,0.0,0.0,0.0,0.0,0.0,0.0,-1.9481,-1.8409,-1.8534,-1.8642,-1.8416,-1.862,-1.8918,-1.9281,0.0,0.0,-1.7558,-1.8126,-1.8861,-1.8913,-1.9001,-1.9036,-1.9036,-1.9052,-1.9123,0.0,0.0,0.0,0.0,0.0,0.0,0.0,0.0,-1.6945,-1.7625,0.0,-1.693,0.0,0.0,0.0,0.0,0.0,-1.8367,0.0,0.0,-2.2313,-2.3459,-2.2411,-2.2522,-2.263,-2.255,-2.1095,-2.0053,-1.94,-1.8453,0.0,0.0,0.0,0.0,0.0,0.0,-1.8188,-1.9653,-2.1063,-2.2346,-2.3553,-2.361,-2.3595,-2.3595,-2.3595,-2.331,-2.2712,-2.1862,-2.0552,-1.8658,-1.6448,0.0,0.0,0.0,0.0,0.0,0.0,0.0,0.0,0.0,0.0,0.0,0.0,0.0,0.0,0.0,0.0,0.0,0.0,0.0,0.0,-1.3381,0.0,0.0,0.0,0.0,0.0,0.0,0.0,0.0,0.0,0.0,-1.7117,-1.8724,-2.0078,-2.0212,0.0,0.0,0.0,0.0,-2.2055,-2.0822,-2.1219,-2.1386,-2.0482,-2.0935,-2.1369,-2.1221,0.0,0.0,-2.1411,-2.0789,-2.0487,-2.0877,-2.1353,-2.1246,-1.9489,-1.9002,-1.8927,-1.9218,-1.9379,-1.9269,-1.9269,-1.9522,-1.97,-1.8203,0.0,0.0,0.0,0.0,-1.8407,-1.8943,-1.9282,-1.9507,-1.976,-2.0,-1.9266,0.0,0.0,0.0,0.0,0.0,0.0,-2.0851,-2.1675,-2.3175,-2.3938,-2.4101,-2.4149,-2.4149,-2.4172,-2.3386,-2.2893,-2.2685,-2.2101,-2.0216,-1.7102,0.0,0.0,0.0,0.0,-1.9249,-2.059,-2.176,-2.2726,-2.3496,-2.357,-2.3595,-2.3595,-2.3595,-2.352,-2.334,-2.2685,-2.1783,-2.0611,-1.8632,0.0,0.0,0.0,0.0,0.0,0.0,0.0,0.0,0.0,0.0,0.0,0.0,0.0,0.0,0.0,0.0,0.0,0.0,0.0,-1.399,-1.5424,-1.5887,0.0,0.0,0.0,0.0,0.0,0.0,0.0,0.0,0.0,-2.0619,-2.0754,-2.0908,0.0,0.0,-2.0977,-2.1497,-2.2151,-2.2613,-2.2716,-2.2894,0.0,-2.2547,-2.2258,-2.2099,-2.2017,-2.2158,-2.2243,-2.205,-2.1858,-2.1822,-2.2121,-2.2169,-2.21,-2.2069,-2.1923,-2.1931,-2.2257,-2.2177,-2.205,-2.2032,-2.2216,-2.2397,-2.0332,-1.9174,-1.9216,-1.9438,-1.9933,-2.0951,-2.1773,-2.2464,-2.278,-2.2975,-2.301,-2.2176,-2.1813,-2.1746,-2.0917,0.0,0.0,0.0,-2.2602,-2.3592,-2.4241,-2.473,-2.5109,-2.5134,-2.5121,-2.5071,-2.4643,-2.4378,-2.4352,-2.39,-2.2361,-1.9775,0.0,0.0,-1.8545,-1.9271,-2.022,-2.1289,-2.2419,-2.316,-2.3488,-2.357,-2.3595,-2.3595,-2.3595,-2.3595,-2.3595,-2.3251,-2.27,-2.1921,-2.0005,-1.816,0.0,0.0,0.0,0.0,0.0,0.0,0.0,0.0,0.0,0.0,0.0,-0.977,0.0,0.0,0.0,0.0,-1.3816,-1.4688,-1.5989,-1.6596,0.0,0.0,0.0,0.0,0.0,0.0,0.0,-1.8892,-2.0363,-2.168,-2.2615,-2.2598,-2.2553,-2.2654,-2.2228,-2.2119,-2.275,0.0,-2.3557,-2.3972,-2.404,-2.3998,-2.3892,-2.3774,-2.3701,-2.363,-2.3359,-2.3038,-2.2784,-2.2733,-2.2739,-2.2685,-2.249,-2.248,-2.3087,-2.3014,-2.2982,-2.3392,-2.3346,-2.3212,-2.3189,-2.3369,-2.35,-2.208,-2.1943,-2.0485,-2.0686,-2.2088,-2.3086,-2.4225,-2.5513,-2.6274,-2.6633,-2.6515,-2.5369,-2.4806,-2.4663,-2.3529,0.0,-2.4104,-2.4104,-2.4391,-2.5034,-2.5511,-2.5711,-2.5661,-2.5661,-2.5661,-2.5649,-2.5134,-2.4883,-2.4845,-2.4444,-2.3889,-2.3175,-2.2269,-2.1238,-2.0181,-2.0608,-2.1181,-2.1887,-2.3084,-2.3644,-2.3597,-2.3659,-2.3655,-2.3595,-2.3595,-2.3595,-2.3595,-2.3595,-2.334,-2.2742,-2.0757,-1.933,-1.8545,0.0,0.0,0.0,0.0,0.0,0.0,0.0,0.0,0.0,0.0,0.0,0.0,0.0,0.0,0.0,-1.6488,0.0,-1.8159,-1.7366,0.0,0.0,0.0,-1.7172,-1.861,-1.9527,-2.0401,-2.1164,0.0,0.0,-2.3579,-2.4154,-2.4625,-2.474,-2.4608,-2.4554,-2.4692,-2.4632,-2.4717,-2.4777,-2.4829,-2.4849,-2.4873,-2.5297,-2.5605,-2.5524,-2.5067,-2.434,-2.3748,-2.3511,-2.3317,-2.3022,-2.2634,-2.2641,-2.3119,-2.2798,-2.2538,-2.3049,-2.3093,-2.3093,-2.3087,-2.3117,-2.3165,-2.3818,-2.375,-2.3027,-2.333,-2.4401,-2.6139,-2.7137,-2.7466,-2.7666,-2.7691,-2.7682,-2.6949,-2.6449,-2.605,-2.572,-2.5907,-2.649,-2.649,-2.6565,-2.6703,-2.6829,-2.6666,-2.6264,-2.6251,-2.6251,-2.6282,-2.5686,-2.5423,-2.5385,-2.4883,-2.4343,-2.3791,-2.3571,-2.2515,-2.0815,-2.1776,-2.2363,-2.2577,-2.3843,-2.4469,-2.4323,-2.4373,-2.4148,-2.361,-2.3595,-2.3595,-2.3595,-2.3595,-2.3535,-2.3355,-2.1994,-2.0586,-1.9286,-1.6939,0.0,0.0,0.0,0.0,0.0,0.0,0.0,0.0,0.0,-1.2033,-1.1976,0.0,-1.4943,0.0,-1.8326,-1.9525,-1.9264,-1.9347,0.0,0.0,-1.9535,-1.9934,-2.0327,-2.1608,-2.2567,-2.2765,-2.365,-2.4441,-2.5017,-2.5236,-2.5541,-2.6098,-2.5266,-2.4601,-2.4692,-2.5156,-2.5433,-2.5499,-2.5875,-2.6232,-2.6183,-2.6352,-2.6454,-2.6437,-2.5812,-2.5287,-2.5118,-2.4594,-2.4215,-2.4088,-2.4041,-2.3837,-2.342,-2.3238,-2.2943,-2.2634,-2.249,-2.2508,-2.2508,-2.2695,-2.2822,-2.4772,-2.528,-2.5465,-2.6,-2.6611,-2.7191,-2.798,-2.8863,-2.885,-2.8712,-2.8448,-2.7865,-2.7513,-2.7205,-2.7193,-2.7356,-2.7645,-2.7645,-2.7645,-2.7632,-2.7406,-2.7118,-2.6816,-2.6578,-2.6521,-2.6521,-2.6138,-2.5975,-2.5975,-2.5686,-2.5272,-2.472,-2.4481,-2.3563,-2.2122,-2.2802,-2.3218,-2.3371,-2.4391,-2.5099,-2.5463,-2.4941,-2.4448,-2.4073,-2.3759,-2.346,-2.3206,-2.3176,-2.3056,-2.2757,-2.1784,-2.0878,-2.0028,-1.7881,-1.6113,0.0,0.0,0.0,0.0,0.0,0.0,0.0,0.0,0.0,0.0,0.0,-1.6483,-1.7486,-1.9208,-2.0104,-1.9785,-2.0066,-2.0304,-2.0474,-2.0936,-2.1516,-2.2246,-2.3129,-2.3786,-2.4099,-2.4713,-2.5297,-2.5715,-2.595,-2.6151,-2.6386,-2.5715,-2.5295,-2.5571,-2.5942,-2.6148,-2.6165,-2.6471,-2.6708,-2.6708,-2.6708,-2.6708,-2.6674,-2.637,-2.5915,-2.5363,-2.4913,-2.4496,-2.3951,-2.3836,-2.3737,-2.3292,-2.2945,-2.2677,-2.2498,-2.2191,-2.2094,-2.2282,-2.2443,-2.2527,-2.5289,-2.652,-2.7436,-2.8214,-2.8727,-2.7458,-2.8009,-2.9792,-2.9792,-2.9503,-2.9013,-2.8536,-2.8323,-2.8323,-2.8323,-2.8323,-2.8323,-2.831,-2.8285,-2.8172,-2.772,-2.7419,-2.7256,-2.6861,-2.6596,-2.6521,-2.6521,-2.6521,-2.6521,-2.6521,-2.6163,-2.5598,-2.5134,-2.4431,-2.3555,-2.3611,-2.3916,-2.435,-2.5049,-2.5756,-2.6452,-2.5299,-2.4627,-2.4433,-2.3909,-2.331,-2.2712,-2.2682,-2.2368,-2.1724,-2.1081,-2.0752,-2.0782,-1.844,-1.7096,0.0,-1.5343,0.0,0.0,0.0,0.0,0.0,0.0,0.0,0.0,-1.7495,-1.8343,-1.8996,-1.9783,-2.0254,-2.0274,-2.0435,-2.0891,-2.169,-2.1937,-2.2548,-2.3909,-2.4201,-2.4489,-2.5157,-2.5615,-2.5888,-2.5892,-2.6245,-2.6315,-2.5961,-2.5839,-2.5884,-2.6351,-2.6471,-2.6522,-2.6607,-2.6657,-2.6708,-2.6708,-2.6708,-2.6708,-2.6708,-2.659,-2.6235,-2.5207,-2.4935,-2.4528,-2.3619,-2.3451,-2.3351,-2.3203,-2.2697,-2.2437,-2.2606,-2.2292,-2.2079,-2.2247,-2.231,-2.2327,-2.6225,-2.7285,-2.7183,-2.821,-3.0031,-2.9425,-2.9325,-2.9509,-2.9702,-2.9729,-2.9628,-2.9515,-2.9478,-2.9465,-2.9478,-2.9478,-2.9478,-2.9465,-2.9214,-2.8775,-2.8662,-2.8147,-2.7293,-2.718,-2.6892,-2.6546,-2.6521,-2.6521,-2.6521,-2.6521,-2.6163,-2.5598,-2.5498,-2.4973,-2.4139,0.0,0.0,0.0,-2.6567,-2.6574,-2.5839,-2.5461,-2.479,-2.3849,-2.367,0.0,-2.2712,-2.2682,-2.2383,-2.1724,-2.1066,0.0,0.0,0.0,0.0,0.0,0.0,0.0,0.0,0.0,0.0,0.0,-1.8485,-1.8362,-1.7474,-1.9036,-2.0183,-2.0333,-2.1354,-2.196,-2.1855,-2.2222,-2.2536,-2.273,-2.3294,-2.3761,-2.4084,-2.4617,-2.5038,-2.5189,-2.5297,-2.5335,-2.5373,-2.5449,-2.5449,-2.5373,-2.5373,-2.5373,-2.5486,-2.5855,-2.6156,-2.6139,-2.647,-2.6708,-2.6708,-2.6708,-2.6691,-2.6657,-2.6367,-2.6054,-2.5711,-2.5334,-2.5126,-2.4697,-2.4798,-2.4537,-2.3952,-2.3765,-2.341,-2.3039,-2.3109,-2.3107,-2.2449,-2.2327,-2.2327,-2.6849,0.0,-2.8245,-2.9351,0.0,-3.1039,-3.0737,-3.0238,-3.047,-3.0557,-3.0561,-3.029,-3.0206,-3.0181,-2.9917,-2.9779,-2.9779,-2.9779,-2.9628,-2.9352,-2.9063,-2.8637,-2.8097,-2.7821,-2.7406,-2.6879,-2.6879,-2.6728,-2.6533,-2.6521,-2.6314,-2.6013,-2.5749,-2.5388,-2.4911,-2.4792,-2.5141,-2.5946,-2.6496,-2.6674,-2.6587,-2.5896,-2.5224,-2.4612,-2.3939,0.0,0.0,0.0,0.0,0.0,0.0,0.0,0.0,0.0,0.0,-2.0639,-1.9713,-1.926,-1.9551,-1.9566,-1.9715,-2.0042,-2.0721,-2.0542,-1.9194,-2.0385,-2.1306,-2.1665,-2.2243,-2.272,-2.293,-2.3145,-2.328,-2.3319,-2.3652,-2.3853,-2.3869,-2.4172,-2.4415,-2.443,-2.4657,-2.4831,-2.4816,-2.5051,-2.5067,-2.4871,-2.4816,-2.4712,-2.4592,-2.5335,-2.6033,-2.6297,-2.6505,-2.6708,-2.6708,-2.6708,-2.659,-2.6401,-2.6156,-2.5762,-2.5297,-2.4973,-2.4736,-2.4511,-2.443,-2.425,-2.3931,-2.3661,-2.3421,-2.3444,-2.316,-2.3113,-2.321,-2.3105,-2.2716,-2.74,-2.9407,-2.959,-3.0631,-3.2125,-3.2294,-3.2043,-3.144,0.0,0.0,0.0,-3.0941,-3.0708,-3.057,-3.0143,-2.988,-2.9792,-2.9779,-2.9779,-2.9767,-2.9302,-2.9038,-2.8913,-2.8461,-2.7908,-2.7306,-2.7293,-2.6992,-2.6533,-2.6521,-2.6521,-2.6483,-2.5975,-2.5686,-2.5589,-2.5125,-2.5194,-2.5647,-2.6002,-2.6491,-2.7149,-2.6236,-2.5627,-2.545,-2.4358,-2.343,-2.2712,-2.2682,-2.2368,-2.1739,-2.1695,-2.1754,-2.1844,-2.135,-2.1111,-2.1186,-2.0692,-2.0617,-2.1186,-2.1231,-2.1455,-2.1994,-2.2532,-2.2383,-2.1291,-2.171,-2.2248,-2.2843,-2.2873,-2.3041,-2.355,-2.3595,-2.3595,-2.3595,-2.3681,-2.3752,-2.3752,-2.3752,-2.3837,-2.3794,-2.4074,-2.4282,-2.4266,-2.4632,-2.4736,-2.4389,-2.4266,-2.4241,-2.4116,-2.5067,-2.6033,-2.6556,-2.6691,-2.6708,-2.659,-2.6556,-2.6401,-2.5924,-2.5762,-2.5373,-2.4672,-2.4323,-2.4074,-2.3752,-2.3595,-2.3623,-2.3593,-2.3402,-2.327,-2.3995,-2.3439,-2.306,-2.4128,-2.4143,-2.3562,-2.8132,-2.9487,-3.0496,-3.1728,-3.2955,-3.2955,-3.2918,-3.2754,-3.1788,-3.1386,-3.1424,-3.1336,-3.1035,-3.062,-3.0532,-3.0244,-2.9792,-2.9779,-2.9779,-2.9779,-2.9704,-2.9402,-2.8938,-2.885,-2.8273,-2.7344,-2.7293,-2.6992,-2.6584,-2.6521,-2.6521,-2.6521,-2.6445,-2.6088,-2.5548,-2.4659,-2.4484,-2.5183,-2.5939,-2.6117,-2.5814,-2.6085,-2.5771,-2.4776,-2.4552,-2.3909,-2.2727,-2.2697,-2.2368,-2.1739,-2.1695,-2.1949,-2.2488,-2.2443,-2.2637,-2.3146,-2.3101,-2.3101,-2.3176,-2.3191,-2.3236,-2.3325,-2.3415,-2.3385,-2.3221,-2.3281,-2.3385,-2.346,-2.343,-2.3505,-2.3595,-2.3595,-2.3595,-2.3638,-2.3975,-2.4266,-2.4241,-2.4241,-2.4225,-2.4199,-2.3921,-2.3709,-2.3752,-2.3822,-2.3879,-2.3752,-2.3794,-2.3991,-2.4736,-2.5144,-2.5709,-2.647,-2.6708,-2.6539,-2.6245,-2.612,-2.5888,-2.5373,-2.4934,-2.4657,-2.4389,-2.4017,-2.3752,-2.3595,-2.3595,-2.3595,-2.3595,-2.3945,-2.4122,-2.4397,-2.4628,-2.5083,-2.4928,-2.5028,-2.4797,-2.8319,-2.9498,-3.0676,-3.1965,-3.3081,-3.3081,-3.3081,-3.3043,-3.2541,-3.2303,-3.2265,-3.1976,-3.1549,-3.1035,-3.0746,-3.0306,-2.9779,-2.9779,-2.9779,-2.9779,-2.9779,-2.9654,-2.9377,-2.9089,-2.8511,-2.7745,-2.7419,-2.7005,-2.6571,-2.6521,-2.6521,-2.6521,-2.6521,-2.6176,-2.5586,-2.4833,-2.4469,-2.451,-2.4976,-2.5479,-2.6012,-2.5988,-2.5835,-2.5689,-2.5031,-2.4358,-2.3759,-2.3385,-2.3026,-2.2727,-2.2727,-2.2877,-2.3161,-2.3176,-2.331,-2.358,-2.3595,-2.3595,-2.3595,-2.3595,-2.3595,-2.3595,-2.3595,-2.3595,-2.3595,-2.3595,-2.3595,-2.3595,-2.3595,-2.3595,-2.3595,-2.3595,-2.3595,-2.3595,-2.3852,-2.3964,-2.3964,-2.3948,-2.3964,-2.3948,-2.3767,-2.3595,-2.3595,-2.3595,-2.3595,-2.3595,-2.3595,-2.3991,-2.5028,-2.5221,-2.5561,-2.6454,-2.6487,-2.6279,-2.6013,-2.5726,-2.5373,-2.4855,-2.4536,-2.4266,-2.4032,-2.3709,-2.3638,-2.3595,-2.3595,-2.3595,-2.3595,-2.4032,-2.443,-2.4823,-2.5003,-2.5318,-2.5663,-2.5765,-2.5053,-2.868,-2.9954,-3.1134,-3.2239,-3.3081,-3.3081,-3.3081,-3.3081,-3.3068,-3.3081,-3.3018,-3.2604,-3.2026,-3.1373,-3.0959,-3.0419,-2.9842,-2.9779,-2.9779,-2.9779,-2.9779,-2.9779,-2.9716,-2.9202,-2.8649,-2.8097,-2.7557,-2.7005,-2.6515,-2.6521,-2.6521,-2.6521,-2.6521,-2.6239,-2.5787,-2.5134,-2.4607,-2.423,-2.4069,-2.4781,-2.6162,-2.5888,-2.5995,-2.6464,-2.5615,-2.5016,-2.4791,-2.4193,-2.3834,-2.3819,-2.3684,-2.3595,-2.3595,-2.3595,-2.3595,-2.3595,-2.3595,-2.3595,-2.3595,-2.3595,-2.3595,-2.3595,-2.3595,-2.3595,-2.3595,-2.3595,-2.3595,-2.3595,-2.3595,-2.3595,-2.3595,-2.3595,-2.3595,-2.3595,-2.3709,-2.3852,-2.3794,-2.3752,-2.3794,-2.3767,-2.3666,-2.3595,-2.3595,-2.3595,-2.3595,-2.3595,-2.3681,-2.4199,-2.4973,-2.5297,-2.5746,-2.628,-2.6297,-2.5961,-2.5852,-2.5335,-2.4831,-2.4307,-2.4184,-2.3991,-2.3709,-2.3595,-2.3595,-2.3595,-2.3595,-2.3681,-2.3794,-2.4225,-2.4776,-2.5249,-2.5422,-2.5646,-2.6387,-2.6032,-2.5236,-2.9943,-3.1134,-3.2339,-3.297,-3.3081,-3.3081,-3.3081,-3.3081,-3.3081,-3.3081,-3.3068,-3.3018,-3.2403,-3.1474,-3.1336,-3.0758,-2.9854,-2.9792,-2.9779,-2.9779,-2.9779,-2.9779,-2.9729,-2.9202,-2.8637,-2.8109,-2.7544,-2.7017,-2.6596,-2.6533,-2.6521,-2.6521,-2.6521,-2.6496,-2.6264,-2.5347,-2.4795,-2.4732,-2.3739,-2.393,-2.5453,-2.6119,-2.6447,-2.6617,-2.6482,-2.6123,-2.554,-2.4896,-2.4492,-2.4448,-2.3939,-2.361,-2.361,-2.3595,-2.3595,-2.3595,-2.3595,-2.3595,-2.3595,-2.3595,-2.3595,-2.3595,-2.3595,-2.3595,-2.3595,-2.3595,-2.3595,-2.3595,-2.3595,-2.3595,-2.3595,-2.3595,-2.3595,-2.3638,-2.3948,-2.4348,-2.4282,-2.4307,-2.4307,-2.4307,-2.3837,-2.3595,-2.3595,-2.3595,-2.3595,-2.3681,-2.3991,-2.4511,-2.5166,-2.554,-2.5961,-2.6401,-2.6297,-2.5799,-2.5373,-2.4831,-2.4307,-2.3837,-2.3681,-2.3681,-2.3595,-2.3595,-2.3595,-2.3595,-2.3595,-2.3752,-2.4225,-2.4736,-2.5243,-2.5689,-2.6059,-2.6506,-2.6607,-2.6167,-2.5389,-3.0765,-3.1311,-3.2599,-3.3081,-3.3081,-3.3081,-3.3081,-3.3081,-3.3081,-3.3081,-3.3081,-3.3081,-3.2616,-3.1863,-3.1537,-3.0984,-3.0269,-2.9942,-2.9779,-2.9779,-2.9779,-2.9779,-2.9729,-2.9202,-2.8787,-2.8524,-2.7708,-2.7168,-2.6929,-2.6628,-2.6521,-2.6521,-2.6521,-2.6521,-2.6471,-2.5674,-2.5134,-2.4795,-2.4451,-2.4622,-2.5328,-2.5687,-2.6261,-2.7056,-2.6797,-2.6482,-2.6153,-2.5555,-2.5211,-2.5166,-2.4567,-2.4164,-2.4193,-2.3834,-2.3595,-2.3595,-2.3595,-2.3595,-2.3595,-2.3595,-2.3595,-2.3595,-2.3595,-2.3595,-2.3595,-2.3595,-2.3595,-2.3595,-2.3595,-2.3595,-2.3595,-2.3595,-2.3595,-2.3638,-2.3794,-2.3964,-2.3906,-2.3921,-2.3921,-2.3906,-2.3767,-2.3595,-2.3595,-2.3595,-2.3724,-2.3991,-2.4307,-2.4712,-2.5503,-2.5615,-2.5742,-2.6033,-2.5598,-2.5166,-2.5067,-2.4471,-2.3906,-2.3681,-2.3595,-2.3595,-2.3595,-2.3595,-2.3595,-2.3595,-2.3638,-2.3837,-2.4266,-2.4816,-2.5357,-2.5888,-2.6383,-2.6708,-2.6708,-2.6471,-2.6099,-3.14,-3.1877,-3.2698,-3.3081,-3.3081,-3.3081,-3.3081,-3.3081,-3.3081,-3.3081,-3.3081,-3.3081,-3.2842,-3.2403,-3.1863,-3.126,-3.062,-3.0193,-2.993,-2.9804,-2.9779,-2.9779,-2.9729,-2.9214,-2.8925,-2.8775,-2.7971,-2.7444,-2.7243,-2.6741,-2.6521,-2.6521,-2.6521,-2.6521,-2.6471,-2.6076,-2.5792,-2.5461,-2.5616,-2.5792,-2.5953,-2.598,-2.6508,-2.7444,-2.7111,-2.6856,-2.6841,-2.6228,-2.5869,-2.5869,-2.5255,-2.4851,-2.4836,-2.4418,-2.4073,-2.3879,-2.3699,-2.3595,-2.3595,-2.3595,-2.3595,-2.3595,-2.3595,-2.3595,-2.3595,-2.3595,-2.3595,-2.3595,-2.3595,-2.3595,-2.3595,-2.3595,-2.3595,-2.3595,-2.3595,-2.3595,-2.3595,-2.3595,-2.3595,-2.3595,-2.3595,-2.3595,-2.3595,-2.3595,-2.3752,-2.4225,-2.4389,-2.4776,-2.5652,-2.5577,-2.5411,-2.5852,-2.5105,-2.4657,-2.4831,-2.4266,-2.3681,-2.3595,-2.3595,-2.3638,-2.3709,-2.3752,-2.3921,-2.4116,-2.3921,-2.4158,-2.4855,-2.5335,-2.5561,-2.6052,-2.6436,-2.6708,-2.6708,-2.6674,-2.6691,-3.1865,-3.2982,-3.3081,-3.3081,-3.3081,-3.3081,-3.3081,-3.3081,-3.3081,-3.3081,-3.3081,-3.3081,-3.3056,-3.2968,-3.2416,-3.1599,-3.0721,-3.057,-3.0256,-2.9817,-2.9779,-2.9779,-2.9741,-2.9214,-2.895,-2.895,-2.8398,-2.7795,-2.7281,-2.6728,-2.6521,-2.6521,-2.6521,-2.6521,-2.6582,-2.6765,-2.6801,-2.6784,-2.7053,-2.7241,-2.7365,-2.7403,-2.7409,-2.7629,-2.758,-2.7535,-2.7475,-2.6886,-2.6557,-2.6557,-2.5914,-2.557,-2.5555,-2.5495,-2.5166,-2.4612,-2.3984,-2.3655,-2.3684,-2.3684,-2.3655,-2.3625,-2.3625,-2.3595,-2.3595,-2.3595,-2.3595,-2.3595,-2.3595,-2.3595,-2.3595,-2.3595,-2.3595,-2.3595,-2.3595,-2.3595,-2.3595,-2.3595,-2.3595,-2.3595,-2.3595,-2.3595,-2.3595,-2.3595,-2.3879,-2.4282,-2.4446,-2.4831,-2.5615,-2.554,-2.5465,-2.554,-2.5105,-2.4446,-2.4389,-2.3991,-2.3681,-2.3709,-2.3794,-2.3852,-2.3964,-2.4116,-2.4446,-2.4632,-2.4471,-2.4776,-2.5561,-2.5997,-2.6175,-2.6401,-2.6556,-2.6708,-2.6708,-2.6708,-2.6708,-3.2711,-3.3068,-3.3081,-3.3081,-3.3081,-3.3081,-3.3081,-3.3081,-3.3081,-3.3081,-3.3081,-3.3081,-3.3081,-3.3068,-3.2867,-3.2164,-3.1135,-3.0771,-3.0319,-2.9829,-2.9779,-2.9779,-2.9767,-2.9566,-2.949,-2.939,-2.89,-2.816,-2.7293,-2.6798,-2.6521,-2.6521,-2.6521,-2.6726,-2.7191,-2.7341,-2.7493,-2.7748,-2.8278,-2.8426,-2.8148,-2.8169,-2.8233,-2.8218,-2.785,-2.756,-2.756,-2.7335,-2.728,-2.7215,-2.6587,-2.6243,-2.6183,-2.5824,-2.551,-2.527,-2.5031,-2.4881,-2.4837,-2.4492,-2.4253,-2.4238,-2.3849,-2.364,-2.3595,-2.3595,-2.3595,-2.361,-2.361,-2.3595,-2.3595,-2.3595,-2.3595,-2.3595,-2.3595,-2.3595,-2.3595,-2.3595,-2.3595,-2.3595,-2.3595,-2.3595,-2.3595,-2.3595,-2.3948,-2.4712,-2.491,-2.5259,-2.5689,-2.5524,-2.5221,-2.4973,-2.4672,-2.4405,-2.4405,-2.3964,-2.3681,-2.3991,-2.4184,-2.443,-2.4592,-2.4697,-2.495,-2.5089,-2.5012,-2.5166,-2.5908,-2.6297,-2.647,-2.6556,-2.6708,-2.6708,-2.6708,-2.6708,-2.6708,-3.3081,-3.3081,-3.3081,-3.3081,-3.3081,-3.3081,-3.3081,-3.3081,-3.3081,-3.3081,-3.3081,-3.3081,-3.3081,-3.3081,-3.3081,-3.2566,-3.165,-3.111,-3.0482,-2.9829,-2.9779,-2.9779,-2.9779,-2.9779,-2.9779,-2.9704,-2.9214,-2.8436,-2.7582,-2.6992,-2.6835,-2.6918,-2.6918,-2.7284,-2.8065,-2.8376,-2.8642,-2.9003,-2.9621,-2.9682,-2.9154,-2.9129,-2.8996,-2.8607,-2.8143,-2.7835,-2.759,-2.756,-2.756,-2.755,-2.7141,-2.6901,-2.6856,-2.6288,-2.5929,-2.5914,-2.5719,-2.56,-2.557,-2.5196,-2.491,-2.4941,-2.4552,-2.4253,-2.4253,-2.4253,-2.4238,-2.4253,-2.4253,-2.4208,-2.3984,-2.3939,-2.3849,-2.367,-2.3595,-2.3595,-2.3595,-2.3595,-2.3595,-2.3595,-2.3595,-2.3595,-2.3638,-2.3752,-2.4266,-2.5105,-2.5335,-2.5615,-2.5852,-2.5726,-2.5275,-2.4776,-2.4752,-2.4712,-2.4752,-2.4511,-2.4348,-2.4576,-2.4657,-2.495,-2.5182,-2.5259,-2.5357,-2.5508,-2.5672,-2.5783,-2.6052,-2.647,-2.6624,-2.6708,-2.6708,-2.6708,-2.6708,-2.6708,-2.6624,-3.2982,-3.2896,-3.3068,-3.3081,-3.2982,-3.2884,-3.2995,-3.2982,-3.2982,-3.2896,-3.2797,-3.3068,-3.3081,-3.3081,-3.3081,-3.2729,-3.2114,-3.1562,-3.0796,-2.993,-2.9804,-2.9779,-2.9779,-2.9779,-2.9779,-2.9754,-2.9202,-2.8649,-2.8109,-2.7494,-2.736,-2.7602,-2.7564,-2.7999,-2.8939,-2.9628,-3.0194,-3.0377,-3.0925,-3.1021,-3.0582,-3.0387,-2.9789,-2.8801,-2.8577,-2.8218,-2.7604,-2.756,-2.756,-2.756,-2.7545,-2.7545,-2.7425,-2.6931,-2.6587,-2.6512,-2.6033,-2.5704,-2.5704,-2.5674,-2.5615,-2.5585,-2.557,-2.539,-2.5345,-2.539,-2.539,-2.536,-2.5375,-2.5255,-2.4672,-2.4477,-2.4268,-2.3729,-2.3595,-2.3595,-2.3595,-2.3595,-2.3595,-2.3595,-2.3595,-2.3595,-2.3666,-2.3906,-2.443,-2.4973,-2.5411,-2.5742,-2.5815,-2.5779,-2.5689,-2.5335,-2.5182,-2.5205,-2.5221,-2.5237,-2.5221,-2.5259,-2.5221,-2.5335,-2.5577,-2.5689,-2.5783,-2.5928,-2.6016,-2.6139,-2.6315,-2.6657,-2.6657,-2.6708,-2.6708,-2.6624,-2.6521,-2.6487,-2.647,-3.1323,-3.0777,-3.2426,-3.2612,-3.1865,-3.1777,-3.1777,-3.1777,-3.1777,-3.1789,-3.1965,-3.2698,-3.3081,-3.3081,-3.3081,-3.2767,-3.219,-3.1637,-3.1022,-3.0394,-2.998,-2.9779,-2.9779,-2.9779,-2.9779,-2.9691,-2.9202,-2.885,-2.8536,-2.7745,-2.7366,-2.7455,-2.7667,-2.813,-2.9066,-2.9889,-3.0524,-3.1102,-3.1336,-3.1347,-3.1165,-3.0746,-3.0088,-2.934,-2.8846,-2.8278,-2.7619,-2.756,-2.756,-2.7625,-2.756,-2.756,-2.7565,-2.743,-2.7275,-2.7295,-2.7096,-2.6946,-2.6901,-2.6527,-2.6288,-2.6213,-2.5884,-2.563,-2.56,-2.5644,-2.5659,-2.5644,-2.56,-2.533,-2.4746,-2.4582,-2.4373,-2.3684,-2.3595,-2.3595,-2.3595,-2.3595,-2.3595,-2.3595,-2.3595,-2.3595,-2.3595,-2.3837,-2.4116,-2.4592,-2.491,-2.5105,-2.5373,-2.5577,-2.5411,-2.5221,-2.5449,-2.5726,-2.5762,-2.5835,-2.5944,-2.5872,-2.5799,-2.5762,-2.5961,-2.6104,-2.621,-2.628,-2.635,-2.647,-2.6624,-2.6708,-2.6708,-2.6708,-2.6657,-2.6521,-2.6297,-2.6175,-2.6139,-3.0135,-2.959,-3.1057,-3.1323,-3.0676,-3.0944,-3.1223,-3.1311,-3.1689,-3.1865,-3.214,-3.2711,-3.3081,-3.3081,-3.3081,-3.288,-3.2478,-3.1951,-3.1411,-3.0834,-3.0105,-2.9804,-2.9779,-2.9779,-2.9779,-2.9729,-2.9428,-2.9126,-2.89,-2.8247,-2.8028,-2.8265,-2.8425,-2.9018,-2.9856,-3.0464,-3.1029,-3.1467,-3.1467,-3.1467,-3.1392,-3.112,-3.0567,-2.9968,-2.952,-2.8981,-2.8382,-2.8113,-2.7844,-2.7685,-2.756,-2.756,-2.756,-2.756,-2.756,-2.756,-2.756,-2.7545,-2.7515,-2.7205,-2.6961,-2.6871,-2.6572,-2.6348,-2.6348,-2.6348,-2.6333,-2.6333,-2.6587,-2.6285,-2.5618,-2.5621,-2.5168,-2.4073,-2.3744,-2.3625,-2.3595,-2.3595,-2.3595,-2.3595,-2.3595,-2.3595,-2.3595,-2.3837,-2.3991,-2.4348,-2.4752,-2.491,-2.5281,-2.5545,-2.5561,-2.5652,-2.5944,-2.6175,-2.6262,-2.6453,-2.6624,-2.6505,-2.6367,-2.628,-2.6332,-2.6436,-2.6556,-2.6505,-2.6539,-2.6556,-2.6708,-2.6708,-2.6708,-2.6657,-2.6624,-2.6332,-2.6085,-2.5762,-2.5672,-2.9223,-2.9223,-2.9407,-2.9498,-2.9407,-3.0316,-3.0855,-3.1223,-3.2152,-3.2612,-3.2797,-3.2982,-3.3081,-3.3081,-3.3081,-3.3031,-3.2955,-3.2403,-3.1901,-3.126,-3.0457,-2.988,-2.9804,-2.9779,-2.9779,-2.9779,-2.9754,-2.9478,-2.9089,-2.885,-2.9235,-2.9646,-2.9627,-3.0263,-3.1042,-3.1468,-3.1409,-3.1467,-3.1467,-3.1467,-3.1467,-3.1437,-3.115,-3.0492,-3.0372,-3.0043,-2.9415,-2.8906,-2.8308,-2.7694,-2.756,-2.756,-2.756,-2.756,-2.756,-2.756,-2.756,-2.756,-2.756,-2.755,-2.747,-2.7455,-2.746,-2.756,-2.738,-2.7305,-2.7305,-2.7385,-2.7795,-2.7682,-2.6753,-2.6792,-2.6245,-2.4867,-2.3984,-2.364,-2.3595,-2.3595,-2.3595,-2.3595,-2.3595,-2.3595,-2.3595,-2.3991,-2.4199,-2.4389,-2.4989,-2.5105,-2.5259,-2.5433,-2.6052,-2.621,-2.6104,-2.6262,-2.6227,-2.6521,-2.6691,-2.6657,-2.6521,-2.6401,-2.628,-2.6315,-2.6624,-2.6573,-2.6641,-2.6691,-2.6708,-2.6708,-2.6708,-2.6708,-2.6487,-2.612,-2.5779,-2.5449,-2.5221,-2.7484,-2.6839,-2.8669,-2.8866,-2.8132,-2.8402,-2.9143,-2.9863,-3.0316,-3.1146,-3.1777,-3.2711,-3.3081,-3.3081,-3.3081,-3.3081,-3.2943,-3.2503,-3.2164,-3.1851,-3.0884,-3.0181,-2.9854,-2.9779,-2.9779,-2.9779,-2.9779,-2.9716,-2.9541,-2.9151,-2.9404,-3.0228,-2.9996,-3.0297,-3.1148,-3.1442,-3.1482,-3.1467,-3.1467,-3.1467,-3.1467,-3.1467,-3.118,-3.0582,-3.0522,-3.0223,-2.9669,-2.943,-2.8742,-2.773,-2.756,-2.756,-2.7575,-2.756,-2.756,-2.756,-2.756,-2.756,-2.756,-2.756,-2.756,-2.756,-2.756,-2.756,-2.756,-2.756,-2.756,-2.761,-2.7745,-2.7357,-2.6291,-2.6464,-2.6025,-2.4867,-2.4014,-2.3595,-2.3595,-2.3595,-2.3595,-2.3595,-2.3595,-2.3595,-2.3638,-2.3709,-2.3837,-2.3906,-2.4199,-2.4511,-2.4792,-2.4989,-2.5433,-2.5635,-2.5726,-2.5997,-2.6227,-2.6505,-2.6691,-2.6691,-2.6505,-2.6245,-2.598,-2.5709,-2.6123,-2.6419,-2.6624,-2.6691,-2.6708,-2.6708,-2.6708,-2.6708,-2.6367,-2.5997,-2.5449,-2.5028,-2.4831,-2.639,-2.583,-2.7295,-2.7767,-2.7683,-2.8143,-2.905,-3.0135,-3.0777,-3.1323,-3.2052,-3.2698,-3.3081,-3.3081,-3.3081,-3.3081,-3.3018,-3.2742,-3.2453,-3.2026,-3.1097,-3.0331,-2.9905,-2.9779,-2.9779,-2.9779,-2.9779,-2.9779,-2.9729,-2.944,-2.9889,-3.0663,-3.0419,-3.0698,-3.1701,-3.1545,-3.1467,-3.1467,-3.1467,-3.1467,-3.1467,-3.1467,-3.1302,-3.0986,-3.0926,-3.0642,-3.0073,-2.9953,-2.9355,-2.8323,-2.7993,-2.7874,-2.759,-2.756,-2.756,-2.756,-2.756,-2.756,-2.756,-2.756,-2.756,-2.756,-2.756,-2.756,-2.756,-2.756,-2.756,-2.761,-2.781,-2.7418,-2.6651,-2.6333,-2.5689,-2.4762,-2.4014,-2.361,-2.3595,-2.3595,-2.3595,-2.3595,-2.3595,-2.3595,-2.3595,-2.3595,-2.3595,-2.3681,-2.3948,-2.4184,-2.443,-2.4552,-2.4712,-2.5067,-2.5373,-2.5635,-2.5835,-2.6104,-2.6539,-2.659,-2.6521,-2.621,-2.6052,-2.5672,-2.6052,-2.6539,-2.6624,-2.6708,-2.6708,-2.6708,-2.6708,-2.659,-2.6227,-2.5835,-2.5335,-2.4989,-2.4712,-2.5732,-2.5732,-2.5732,-2.638,-2.741,-2.8495,-2.9498,-3.1045,-3.1789,-3.2525,-3.2982,-3.3081,-3.3081,-3.3081,-3.3081,-3.3081,-3.3081,-3.3018,-3.2591,-3.1989,-3.116,-3.0432,-2.9829,-2.9779,-2.9779,-2.9779,-2.9779,-2.9779,-2.9844,-2.9819,-3.0572,-3.1317,-3.1089,-3.1468,-3.2195,-3.1885,-3.1497,-3.1467,-3.1467,-3.1467,-3.1467,-3.1467,-3.1407,-3.1377,-3.1405,-3.118,-3.0761,-3.0567,-3.0073,-2.8876,-2.8682,-2.8278,-2.7754,-2.7679,-2.756,-2.756,-2.756,-2.756,-2.756,-2.756,-2.756,-2.756,-2.756,-2.756,-2.756,-2.756,-2.756,-2.756,-2.8091,-2.7856,-2.7214,-2.6258,-2.536,-2.4627,-2.4014,-2.3655,-2.3595,-2.3595,-2.3595,-2.3595,-2.3595,-2.3595,-2.3595,-2.3595,-2.3595,-2.3595,-2.3794,-2.3948,-2.4116,-2.4282,-2.443,-2.4657,-2.4973,-2.5281,-2.5449,-2.5652,-2.6139,-2.647,-2.6453,-2.6332,-2.647,-2.6315,-2.647,-2.6657,-2.6691,-2.6708,-2.6708,-2.6708,-2.6708,-2.6556,-2.6297,-2.5872,-2.5449,-2.5221,-2.495,-2.5732,-2.5732,-2.5732,-2.582,-2.61,-2.637,-2.7851,-2.9943,-3.0226,-3.1601,-3.2797,-3.3081,-3.3081,-3.3081,-3.3081,-3.3081,-3.3081,-3.3031,-3.2554,-3.1599,-3.1399,-3.0645,-2.998,-2.9779,-2.9779,-2.9779,-2.9779,-2.9779,-2.9921,-3.0545,-3.1422,-3.2219,-3.2012,-3.2275,-3.2943,-3.2108,-3.1467,-3.1467,-3.1467,-3.1467,-3.1467,-3.1467,-3.1467,-3.1467,-3.1467,-3.1465,-3.1375,-3.1315,-3.0911,-3.0088,-2.9205,-2.8637,-2.8308,-2.7874,-2.7685,-2.756,-2.756,-2.756,-2.756,-2.756,-2.756,-2.756,-2.756,-2.756,-2.756,-2.756,-2.756,-2.761,-2.7695,-2.7549,-2.689,-2.5644,-2.4956,-2.4567,-2.4029,-2.3595,-2.3595,-2.3595,-2.3595,-2.3595,-2.3595,-2.3595,-2.3595,-2.3595,-2.3595,-2.3595,-2.3681,-2.3752,-2.3879,-2.4006,-2.4116,-2.4307,-2.4632,-2.4934,-2.5411,-2.5652,-2.6104,-2.6436,-2.6401,-2.6418,-2.659,-2.659,-2.6573,-2.6624,-2.6691,-2.6708,-2.6708,-2.6708,-2.6708,-2.6505,-2.6367,-2.6016,-2.5726,-2.5449,-2.5351,-2.5732,-2.5732,-2.5732,-2.638,-2.7295,-2.7484,-2.8855,-3.0777,-3.1146,-3.1877,-3.2896,-3.3081,-3.3081,-3.3081,-3.3081,-3.3081,-3.3081,-3.3056,-3.2478,-3.1612,-3.1336,-3.0783,-2.998,-2.9779,-2.9779,-2.9779,-2.9779,-2.9998,-3.0482,-3.1044,-3.1888,-3.3059,-3.2563,-3.2596,-3.3183,-3.2213,-3.1541,-3.1467,-3.1467,-3.1467,-3.1467,-3.1467,-3.1467,-3.1467,-3.1467,-3.1467,-3.1452,-3.1452,-3.133,-3.0836,-3.0028,-2.9175,-2.8667,-2.8248,-2.7985,-2.767,-2.756,-2.756,-2.756,-2.756,-2.756,-2.756,-2.756,-2.756,-2.756,-2.756,-2.756,-2.756,-2.7565,-2.729,-2.6632,-2.5764,-2.5076,-2.4552,-2.4014,-2.3625,-2.3595,-2.3595,-2.3595,-2.3595,-2.3595,-2.3595,-2.3595,-2.3595,-2.3595,-2.3595,-2.3595,-2.3666,-2.3666,-2.3752,-2.3724,-2.3921,-2.4225,-2.4672,-2.5259,-2.5709,-2.621,-2.6436,-2.6453,-2.6521,-2.6657,-2.659,-2.647,-2.659,-2.6708,-2.6708,-2.6708,-2.6708,-2.6708,-2.6624,-2.647,-2.6262,-2.6104,-2.5997,-2.5872,-2.5732,-2.5732,-2.5927,-2.721,-2.8947,-2.9039,-3.0135,-3.2152,-3.2339,-3.1877,-3.2785,-3.2797,-3.2797,-3.3081,-3.3081,-3.3081,-3.3081,-3.3018,-3.2466,-3.1512,-3.1386,-3.0758,-3.0018,-2.9779,-2.9779,-2.9779,-2.9779,-3.0279,-3.0908,-3.1449,-3.2297,-3.3411,-3.2876,-3.2761,-3.2944,-3.2228,-3.1467,-3.1467,-3.1467,-3.1467,-3.1467,-3.1467,-3.1467,-3.1467,-3.1467,-3.1467,-3.1467,-3.1467,-3.1452,-3.1495,-3.0971,-3.0013,-2.9086,-2.8577,-2.8293,-2.7634,-2.756,-2.756,-2.756,-2.756,-2.756,-2.756,-2.756,-2.756,-2.756,-2.756,-2.756,-2.756,-2.7515,-2.729,-2.6662,-2.6123,-2.542,-2.4762,-2.4073,-2.3759,-2.361,-2.3595,-2.3595,-2.3595,-2.3595,-2.3595,-2.3595,-2.3595,-2.3595,-2.3595,-2.3595,-2.3595,-2.3595,-2.3638,-2.3681,-2.3837,-2.4225,-2.4831,-2.5411,-2.5944,-2.6401,-2.647,-2.6521,-2.659,-2.6708,-2.6624,-2.659,-2.6624,-2.6708,-2.6708,-2.6708,-2.6708,-2.6708,-2.6708,-2.6624,-2.647,-2.6436,-2.6487,-2.6332,-2.5732,-2.583,-2.6849,-2.7589,-2.7861,-2.7955,-2.8866,-2.9681,-2.9326,-2.9772,-3.1412,-3.1589,-3.2227,-3.2884,-3.3081,-3.3081,-3.3081,-3.3018,-3.2466,-3.1549,-3.1348,-3.0809,-2.9967,-2.9779,-2.9779,-2.9779,-2.9934,-3.0419,-3.1328,-3.2019,-3.2723,-3.3183,-3.3231,-3.3183,-3.2617,-3.1943,-3.1467,-3.1467,-3.1467,-3.1467,-3.1467,-3.1467,-3.1467,-3.1467,-3.1467,-3.1467,-3.1467,-3.1467,-3.1467,-3.1452,-3.1362,-3.0642,-2.9639,-2.8951,-2.8338,-2.779,-2.756,-2.756,-2.756,-2.756,-2.756,-2.756,-2.756,-2.756,-2.756,-2.756,-2.756,-2.756,-2.7565,-2.7355,-2.6662,-2.6437,-2.5809,-2.5031,-2.4448,-2.4163,-2.3744,-2.3595,-2.3595,-2.3595,-2.3595,-2.3595,-2.3595,-2.3595,-2.3595,-2.3595,-2.3595,-2.3595,-2.3595,-2.3709,-2.3837,-2.4074,-2.4348,-2.5028,-2.5742,-2.621,-2.6624,-2.6624,-2.6624,-2.6624,-2.6708,-2.6708,-2.6708,-2.6708,-2.6708,-2.6708,-2.6708,-2.6708,-2.6708,-2.6708,-2.6691,-2.6657,-2.6624,-2.659,-2.6624,-2.5732,-2.583,-2.703,-2.7955,-2.8495,-2.8495,-2.9223,-3.0033,-2.9143,-2.9487,-3.0765,-3.1223,-3.1877,-3.281,-3.3081,-3.3081,-3.3081,-3.3068,-3.2428,-3.1587,-3.1336,-3.0821,-2.9892,-2.9792,-2.9779,-2.9921,-3.0279,-3.0983,-3.196,-3.289,-3.3397,-3.3724,-3.3689,-3.317,-3.2512,-3.1898,-3.1526,-3.1467,-3.1467,-3.1467,-3.1467,-3.1467,-3.1467,-3.1467,-3.1467,-3.1467,-3.1467,-3.1467,-3.1467,-3.1467,-3.1467,-3.0971,-3.0193,-2.9415,-2.8637,-2.7799,-2.756,-2.756,-2.756,-2.756,-2.756,-2.756,-2.756,-2.756,-2.756,-2.756,-2.761,-2.7625,-2.761,-2.7505,-2.7141,-2.6811,-2.6123,-2.5345,-2.4821,-2.4343,-2.3834,-2.3655,-2.3595,-2.3595,-2.3595,-2.3595,-2.3595,-2.3595,-2.3595,-2.3595,-2.3595,-2.3638,-2.3638,-2.3837,-2.4074,-2.4511,-2.4816,-2.547,-2.6068,-2.6367,-2.6708,-2.6708,-2.6708,-2.6708,-2.6708,-2.6708,-2.6708,-2.6708,-2.6708,-2.6708,-2.6708,-2.6708,-2.6708,-2.6708,-2.6691,-2.6691,-2.6708,-2.6708,-2.6708,-2.5732,-2.583,-2.703,-2.8132,-2.8947,-2.905,-2.9498,-3.0124,-2.9039,-2.9131,-3.0406,-3.0765,-3.15,-3.2513,-3.2982,-3.3081,-3.3081,-3.3081,-3.2428,-3.1574,-3.1361,-3.0821,-3.0043,-2.9779,-2.9779,-2.9921,-3.1057,-3.1888,-3.2536,-3.3463,-3.4083,-3.4125,-3.3814,-3.3019,-3.2228,-3.1737,-3.1513,-3.1278,-3.1278,-3.1278,-3.1278,-3.1292,-3.1351,-3.1467,-3.1467,-3.1467,-3.1467,-3.1467,-3.1467,-3.1467,-3.145,-3.115,-3.0402,-2.9849,-2.9004,-2.7895,-2.759,-2.756,-2.756,-2.756,-2.756,-2.756,-2.756,-2.756,-2.756,-2.761,-2.766,-2.771,-2.7625,-2.771,-2.7644,-2.7195,-2.6576,-2.5884,-2.5226,-2.4597,-2.4073,-2.3774,-2.361,-2.3595,-2.3595,-2.3595,-2.3595,-2.3595,-2.3595,-2.3595,-2.3595,-2.3837,-2.3879,-2.4116,-2.443,-2.4934,-2.5433,-2.6052,-2.6436,-2.6521,-2.6708,-2.6708,-2.6708,-2.6708,-2.6708,-2.6708,-2.6708,-2.6708,-2.6708,-2.6708,-2.6708,-2.6708,-2.6708,-2.6708,-2.6708,-2.6708,-2.6708,-2.6708,-2.6708,-2.5732,-2.583,-2.703,-2.7683,-2.7861,-2.7861,-2.7861,-2.7945,-2.6935,-2.6839,-2.8402,-2.9315,-3.0406,-3.1689,-3.2711,-3.3081,-3.3081,-3.2943,-3.2416,-3.1499,-3.1298,-3.0758,-2.9917,-2.9792,-2.9921,-3.0279,-3.1696,-3.2393,-3.2961,-3.3671,-3.4178,-3.433,-3.3826,-3.282,-3.1623,-3.1501,-3.1117,-3.0598,-3.045,-3.045,-3.045,-3.045,-3.0851,-3.1278,-3.1467,-3.1467,-3.1467,-3.1467,-3.1467,-3.1467,-3.1467,-3.0926,-2.9939,-2.9639,-2.8846,-2.8008,-2.756,-2.756,-2.756,-2.756,-2.756,-2.756,-2.756,-2.756,-2.756,-2.7625,-2.776,-2.8319,-2.7959,-2.781,-2.7993,-2.7769,-2.7165,-2.6512,-2.5839,-2.5181,-2.4582,-2.4044,-2.3864,-2.3595,-2.3595,-2.3595,-2.3595,-2.3595,-2.3595,-2.3595,-2.3638,-2.3879,-2.4184,-2.4511,-2.4918,-2.5545,-2.5819,-2.6401,-2.659,-2.6691,-2.6708,-2.6708,-2.6708,-2.6708,-2.6708,-2.6708,-2.6708,-2.6708,-2.6708,-2.6708,-2.6708,-2.6708,-2.6708,-2.6708,-2.6708,-2.6708,-2.6708,-2.6708,-2.6708,-2.5732,-2.583,-2.703,-2.7589,-2.7589,-2.7589,-2.7589,-2.7315,-2.6294,-2.638,-2.7683,-2.8855,-3.0406,-3.2052,-3.2982,-3.3081,-3.3018,-3.2767,-3.2177,-3.1436,-3.1072,-3.0545,-3.011,-3.0355,-3.0558,-3.0983,-3.2321,-3.3325,-3.3685,-3.4187,-3.4777,-3.4468,-3.408,-3.3084,-3.1392,-3.1314,-3.0585,-2.9941,-2.958,-2.958,-2.9704,-3.0025,-3.0464,-3.0837,-3.1219,-3.1409,-3.1467,-3.1467,-3.1467,-3.1467,-3.1467,-3.1273,-3.0627,-3.0043,-2.922,-2.8899,-2.7985,-2.7655,-2.756,-2.756,-2.756,-2.756,-2.756,-2.756,-2.756,-2.7625,-2.7675,-2.7959,-2.776,-2.776,-2.7944,-2.776,-2.727,-2.6722,-2.6318,-2.5555,-2.4941,-2.4552,-2.4178,-2.3864,-2.3595,-2.3595,-2.3595,-2.3595,-2.3595,-2.3638,-2.3794,-2.4101,-2.4576,-2.5051,-2.5598,-2.6245,-2.6436,-2.6624,-2.6657,-2.6708,-2.6708,-2.6708,-2.6708,-2.6708,-2.6708,-2.6708,-2.6708,-2.6708,-2.6708,-2.6708,-2.6708,-2.6708,-2.6708,-2.6708,-2.6708,-2.6708,-2.6708,-2.6708,-2.6708,-2.5732,-2.583,-2.6754,-2.7125,-2.7115,-2.7125,-2.7125,-2.704,-2.6476,-2.6754,-2.7767,-2.9223,-3.1146,-3.2711,-3.3081,-3.3081,-3.3031,-3.2466,-3.1913,-3.1373,-3.0846,-3.0344,-3.0227,-3.0633,-3.1106,-3.1241,-3.2961,-3.3808,-3.4245,-3.4795,-3.5155,-3.4711,-3.4169,-3.3083,-3.1768,-3.107,-3.0375,-2.9063,-2.878,-2.8698,-2.8798,-2.9504,-2.9813,-3.0208,-3.0658,-3.1204,-3.1204,-3.1146,-3.1161,-3.1467,-3.1467,-3.1332,-3.0956,-3.0313,-2.9594,-2.9101,-2.8278,-2.7799,-2.7664,-2.756,-2.756,-2.756,-2.756,-2.756,-2.756,-2.756,-2.776,-2.7944,-2.771,-2.771,-2.776,-2.776,-2.7415,-2.7021,-2.6662,-2.5854,-2.509,-2.4731,-2.4298,-2.3819,-2.3595,-2.3595,-2.3595,-2.3595,-2.3595,-2.3653,-2.3921,-2.4307,-2.4894,-2.5524,-2.6016,-2.659,-2.6624,-2.6708,-2.6708,-2.6708,-2.6708,-2.6708,-2.6708,-2.6708,-2.6708,-2.6708,-2.6708,-2.6708,-2.6708,-2.6708,-2.6708,-2.6708,-2.6708,-2.6708,-2.6708,-2.6708,-2.6708,-2.6708,-2.6708,-2.5732,-2.5732,-2.583,-2.5917,-2.5917,-2.582,-2.582,-2.611,-2.6935,-2.74,-2.8049,-2.9943,-3.1689,-3.2797,-3.3068,-3.3056,-3.3006,-3.2466,-3.1851,-3.1311,-3.0846,-3.0281,-3.0292,-3.062,-3.1315,-3.1596,-3.3101,-3.3945,-3.4245,-3.5052,-3.5394,-3.5305,-3.412,-3.2882,-3.1648,-3.0649,-2.974,-2.8611,-2.8119,-2.7855,-2.8065,-2.862,-2.9129,-2.9317,-2.9875,-3.0389,-3.0389,-3.0584,-3.0896,-3.1467,-3.1467,-3.1345,-3.0956,-3.0522,-2.9924,-2.9116,-2.8652,-2.8113,-2.779,-2.756,-2.756,-2.756,-2.756,-2.756,-2.756,-2.756,-2.7795,-2.8125,-2.781,-2.786,-2.7959,-2.7993,-2.757,-2.732,-2.6961,-2.6408,-2.5674,-2.4985,-2.4522,-2.3849,-2.3595,-2.3595,-2.3595,-2.3595,-2.3595,-2.3638,-2.4158,-2.4536,-2.5243,-2.5872,-2.628,-2.6657,-2.6657,-2.6708,-2.6708,-2.6708,-2.6708,-2.6708,-2.6708,-2.6708,-2.6708,-2.6708,-2.6708,-2.6708,-2.6708,-2.6708,-2.6708,-2.6708,-2.6708,-2.6708,-2.6708,-2.6708,-2.6708,-2.6708,-2.6708,-2.5732,-2.5732,-2.5732,-2.5732,-2.5732,-2.5732,-2.5732,-2.5732,-2.6187,-2.7389,-2.8866,-3.0496,-3.1865,-3.2785,-3.3043,-3.2867,-3.2516,-3.1964,-3.1436,-3.0884,-3.0357,-3.0018,-3.0152,-3.0696,-3.1523,-3.2177,-3.338,-3.4394,-3.4986,-3.5213,-3.4905,-3.4507,-3.3739,-3.254,-3.1264,-2.991,-2.8781,-2.8118,-2.7562,-2.7357,-2.7255,-2.8233,-2.8748,-2.8298,-3.0329,-3.0584,-3.0524,-3.0837,-3.1146,-3.1409,-3.1467,-3.133,-3.1046,-3.0746,-3.0058,-2.922,-2.8846,-2.8263,-2.779,-2.756,-2.756,-2.756,-2.756,-2.756,-2.756,-2.756,-2.766,-2.776,-2.776,-2.781,-2.776,-2.771,-2.753,-2.7535,-2.723,-2.6782,-2.6123,-2.5405,-2.4717,-2.4029,-2.3729,-2.3595,-2.3595,-2.3595,-2.3595,-2.3638,-2.4225,-2.4776,-2.5357,-2.598,-2.6315,-2.6556,-2.659,-2.6657,-2.6691,-2.6691,-2.6708,-2.6708,-2.6708,-2.6708,-2.6708,-2.6708,-2.6708,-2.6708,-2.6708,-2.6708,-2.6708,-2.6708,-2.6708,-2.6708,-2.6708,-2.6708,-2.6708,-2.6708,-2.6708,-2.5732,-2.5732,-2.61,-2.6294,-2.6304,-2.6304,-2.6476,-2.6849,-2.7295,-2.8484,-3.0508,-3.1488,-3.2117,-3.2684,-3.2792,-3.2478,-3.1951,-3.1424,-3.1009,-3.0557,-3.0143,-2.9829,-3.0139,-3.0758,-3.1669,-3.2607,-3.3533,-3.4394,-3.4839,-3.4986,-3.4192,-3.3463,-3.3087,-3.1891,-3.085,-2.901,-2.7908,-2.7607,-2.7118,-2.6917,-2.6739,-2.7736,-2.8182,-2.7802,-2.9456,-3.0208,-3.0147,-3.045,-3.1161,-3.1351,-3.1467,-3.1467,-3.1285,-3.0896,-3.0238,-2.9609,-2.8966,-2.8308,-2.7784,-2.756,-2.756,-2.756,-2.756,-2.756,-2.756,-2.756,-2.766,-2.761,-2.761,-2.756,-2.756,-2.756,-2.756,-2.758,-2.758,-2.7111,-2.6303,-2.554,-2.4881,-2.4223,-2.3939,-2.3595,-2.3595,-2.3595,-2.3638,-2.3709,-2.4158,-2.4592,-2.4934,-2.5524,-2.6052,-2.6245,-2.6367,-2.6505,-2.6657,-2.6691,-2.6708,-2.6708,-2.6708,-2.6708,-2.6708,-2.6708,-2.6708,-2.6708,-2.6708,-2.6708,-2.6708,-2.6708,-2.6708,-2.6708,-2.6708,-2.6708,-2.6708,-2.6708,-2.6708,-2.5732,-2.583,-2.703,-2.7494,-2.7673,-2.7589,-2.8143,-2.9039,-3.0124,-3.1311,-3.2339,-3.2785,-3.2571,-3.2416,-3.2378,-3.2014,-3.1424,-3.0934,-3.062,-3.0394,-3.003,-2.9817,-3.0075,-3.0709,-3.1462,-3.2607,-3.338,-3.3876,-3.4177,-3.4312,-3.3241,-3.196,-3.1609,-3.1288,-3.0961,-2.9129,-2.8134,-2.7934,-2.7055,-2.676,-2.6875,-2.755,-2.7417,-2.7802,-2.8748,-2.9642,-2.9827,-3.0389,-3.1029,-3.1409,-3.1467,-3.1467,-3.1392,-3.0971,-3.0328,-2.9609,-2.9026,-2.8353,-2.7715,-2.759,-2.756,-2.756,-2.756,-2.756,-2.756,-2.756,-2.756,-2.756,-2.756,-2.756,-2.756,-2.756,-2.756,-2.756,-2.756,-2.7275,-2.6452,-2.5734,-2.5076,-2.4403,-2.3939,-2.3595,-2.3595,-2.3595,-2.3638,-2.3794,-2.4116,-2.443,-2.4712,-2.5166,-2.5746,-2.6068,-2.621,-2.6436,-2.659,-2.6657,-2.6708,-2.6708,-2.6708,-2.6708,-2.6708,-2.6708,-2.6708,-2.6708,-2.6708,-2.6708,-2.6708,-2.6708,-2.6708,-2.6708,-2.6708,-2.6708,-2.6708,-2.6708,-2.6708,-2.6197,-2.703,-2.74,-2.8505,-2.9772,-2.9143,-2.9039,-2.959,-3.0586,-3.15,-3.1952,-3.2612,-3.2754,-3.2365,-3.2064,-3.1687,-3.0934,-3.0783,-3.0532,-3.0055,-2.9854,-2.9817,-2.9921,-3.0279,-3.1119,-3.2321,-3.3031,-3.3449,-3.4027,-3.3808,-3.282,-3.1609,-3.062,-3.0279,-3.0024,-2.9063,-2.8536,-2.8059,-2.7465,-2.7132,-2.7294,-2.7604,-2.7855,-2.8051,-2.9192,-2.9766,-2.9827,-3.0584,-3.1161,-3.1467,-3.1467,-3.1467,-3.1452,-3.112,-3.0612,-2.9849,-2.9205,-2.8712,-2.8,-2.756,-2.756,-2.756,-2.756,-2.756,-2.756,-2.756,-2.756,-2.756,-2.756,-2.756,-2.756,-2.756,-2.756,-2.756,-2.7485,-2.7186,-2.6557,-2.5929,-2.5285,-2.4597,-2.4044,-2.3714,-2.3595,-2.3638,-2.3681,-2.3921,-2.4282,-2.4364,-2.4552,-2.4989,-2.5486,-2.5852,-2.612,-2.6332,-2.6521,-2.6624,-2.6708,-2.6708,-2.6708,-2.6708,-2.6708,-2.6708,-2.6708,-2.6708,-2.6708,-2.6708,-2.6708,-2.6708,-2.6708,-2.6708,-2.6708,-2.6708,-2.6708,-2.6708,-2.6708,-2.6486,-2.7589,-2.8038,-2.9131,-3.0395,-3.0135,-3.0226,-3.0777,-3.15,-3.1865,-3.2028,-3.2598,-3.2453,-3.2001,-3.1662,-3.1235,-3.0369,-3.0319,-3.0256,-2.9792,-2.9792,-2.9779,-2.9779,-2.9856,-3.0696,-3.1756,-3.2177,-3.2451,-3.282,-3.2947,-3.2033,-3.0846,-3.0139,-2.977,-2.9441,-2.885,-2.8632,-2.8257,-2.7952,-2.765,-2.8,-2.8247,-2.8427,-2.8989,-2.969,-3.0269,-3.051,-3.0955,-3.1467,-3.1467,-3.1467,-3.1467,-3.1452,-3.118,-3.0672,-2.9879,-2.8981,-2.8524,-2.7835,-2.756,-2.756,-2.756,-2.756,-2.756,-2.756,-2.756,-2.756,-2.756,-2.756,-2.756,-2.756,-2.756,-2.756,-2.756,-2.747,-2.7171,-2.6647,-2.6019,-2.539,-2.4672,-2.4059,-2.3774,-2.3595,-2.3681,-2.3752,-2.4074,-2.4405,-2.4446,-2.4527,-2.491,-2.5335,-2.5652,-2.6013,-2.6262,-2.647,-2.6657,-2.6708,-2.6708,-2.6708,-2.6708,-2.6708,-2.6708,-2.6708,-2.6708,-2.6708,-2.6708,-2.6708,-2.6708,-2.6708,-2.6708,-2.6708,-2.6708,-2.6708,-2.6708,-2.6708,-2.6476,-2.7673,-2.8855,-2.9315,-2.959,-3.0496,-3.1689,-3.2982,-3.3081,-3.2982,-3.3056,-3.2456,-3.2089,-3.1449,-3.0947,-3.0457,-2.998,-2.988,-2.9842,-2.9804,-2.9779,-2.9779,-2.9779,-2.9856,-3.0482,-3.097,-3.1389,-3.1596,-3.1328,-3.1402,-3.0846,-3.0126,-2.9856,-2.9515,-2.9051,-2.8635,-2.8584,-2.8537,-2.815,-2.8238,-2.8748,-2.8876,-2.9129,-2.9566,-3.0025,-3.0404,-3.0658,-3.1102,-3.1409,-3.1467,-3.1467,-3.1467,-3.133,-3.0896,-3.0268,-2.946,-2.8397,-2.7844,-2.767,-2.7575,-2.756,-2.756,-2.756,-2.756,-2.756,-2.756,-2.756,-2.756,-2.756,-2.756,-2.756,-2.756,-2.756,-2.756,-2.756,-2.7171,-2.6647,-2.6048,-2.542,-2.4747,-2.4029,-2.367,-2.3653,-2.3681,-2.3991,-2.4471,-2.4792,-2.491,-2.495,-2.4934,-2.5297,-2.554,-2.5888,-2.621,-2.6436,-2.6657,-2.6708,-2.6708,-2.6708,-2.6708,-2.6708,-2.6708,-2.6708,-2.6708,-2.6708,-2.6708,-2.6708,-2.6708,-2.6708,-2.6708,-2.6708,-2.6708,-2.6708,-2.6708,-2.6708,-2.6486,-2.7589,-2.7945,-2.8598,-2.9396,-2.9772,-3.1146,-3.2982,-3.3081,-3.3081,-3.3056,-3.2905,-3.2177,-3.1411,-3.121,-3.0557,-3.0093,-2.9779,-2.9792,-2.9779,-2.9779,-2.9779,-2.9779,-2.9856,-3.0419,-3.0833,-3.118,-3.1031,-3.1044,-3.0696,-3.0216,-2.9869,-2.9779,-2.9428,-2.89,-2.8386,-2.8556,-2.849,-2.8066,-2.8729,-2.9317,-2.9442,-2.9766,-3.0389,-3.0343,-3.0658,-3.1102,-3.1278,-3.1467,-3.1467,-3.1467,-3.1467,-3.1422,-3.1285,-3.0851,-2.9579,-2.8457,-2.7575,-2.756,-2.756,-2.756,-2.756,-2.756,-2.756,-2.756,-2.756,-2.756,-2.756,-2.756,-2.756,-2.756,-2.756,-2.756,-2.756,-2.7545,-2.7275,-2.6797,-2.6378,-2.5719,-2.4732,-2.4029,-2.3741,-2.3681,-2.3964,-2.4307,-2.4816,-2.5182,-2.5335,-2.5449,-2.5449,-2.5411,-2.5615,-2.5908,-2.6297,-2.647,-2.6708,-2.6708,-2.6708,-2.6708,-2.6708,-2.6691,-2.6691,-2.6708,-2.6657,-2.6556,-2.6624,-2.6708,-2.6708,-2.6708,-2.6708,-2.6708,-2.6708,-2.6708,-2.6708,-2.6708,-2.6486,-2.7494,-2.7589,-2.8319,-2.9223,-2.8866,-3.0135,-3.2052,-3.2326,-3.2599,-3.3031,-3.2566,-3.2026,-3.1386,-3.0896,-3.0357,-2.9842,-2.9779,-2.9779,-2.9779,-2.9779,-2.9779,-2.9779,-2.9856,-3.0062,-3.0558,-3.0696,-3.0558,-3.0558,-3.0203,-2.9792,-2.9792,-2.9779,-2.9277,-2.8712,-2.827,-2.8132,-2.8232,-2.8369,-2.9107,-2.958,-3.0086,-3.0837,-3.1087,-3.0911,-3.1161,-3.1409,-3.1467,-3.1467,-3.1467,-3.1467,-3.1467,-3.1345,-3.1076,-3.0597,-2.937,-2.8353,-2.7709,-2.756,-2.756,-2.756,-2.756,-2.756,-2.756,-2.756,-2.756,-2.756,-2.756,-2.756,-2.756,-2.756,-2.756,-2.756,-2.756,-2.7485,-2.7395,-2.7081,-2.6752,-2.5869,-2.4822,-2.4222,-2.3917,-2.3948,-2.4225,-2.4657,-2.5281,-2.5689,-2.5872,-2.6033,-2.6087,-2.5908,-2.5888,-2.6139,-2.6436,-2.659,-2.6708,-2.6708,-2.6708,-2.6708,-2.6691,-2.6657,-2.6521,-2.6367,-2.6367,-2.6367,-2.647,-2.6624,-2.6691,-2.6708,-2.6708,-2.6708,-2.6708,-2.6708,-2.6708,-2.6708,-2.629,-2.7337,-2.7442,-2.7849,-2.8789,-2.7806,-2.8587,-3.0737,-3.0631,-3.1644,-3.2571,-3.1951,-3.1512,-3.1135,-3.0545,-3.0105,-2.9829,-2.9779,-2.9779,-2.9779,-2.9779,-2.9779,-2.9779,-2.9779,-2.9934,-2.9856,-2.9856,-3.0062,-2.9921,-2.9779,-2.9779,-2.9779,-2.9666,-2.9164,-2.8348,-2.8021,-2.7799,-2.765,-2.8379,-2.9317,-3.0208,-3.0911,-3.1467,-3.1467,-3.1409,-3.1467,-3.1467,-3.1467,-3.1467,-3.1467,-3.1467,-3.1467,-3.118,-3.0582,-2.9968,-2.9325,-2.8427,-2.7859,-2.7619,-2.756,-2.756,-2.756,-2.756,-2.756,-2.756,-2.756,-2.756,-2.756,-2.756,-2.756,-2.756,-2.756,-2.756,-2.756,-2.7515,-2.747,-2.7335,-2.6797,-2.5869,-2.4881,-2.4148,-2.3917,-2.4184,-2.4471,-2.4973,-2.5635,-2.6104,-2.6332,-2.6401,-2.6505,-2.6401,-2.6156,-2.6332,-2.6556,-2.6624,-2.6708,-2.6708,-2.6708,-2.6708,-2.6556,-2.6436,-2.6227,-2.5977,-2.6085,-2.6227,-2.6401,-2.6539,-2.6624,-2.6708,-2.6708,-2.6708,-2.6708,-2.6708,-2.6708,-2.6708,-2.511,-2.568,-2.568,-2.5859,-2.6091,-2.5405,-2.6073,-2.7477,-2.7466,-2.9381,-3.1856,-3.1981,-3.143,-3.0636,-3.0495,-3.0131,-2.9842,-2.9779,-2.9779,-2.9779,-2.9779,-2.9779,-2.9779,-2.9779,-2.9779,-2.9779,-2.9779,-2.9779,-2.9779,-2.9779,-2.9767,-2.9729,-2.9478,-2.88,-2.8134,-2.7821,-2.7449,-2.7066,-2.8182,-2.9254,-3.0147,-3.097,-3.1467,-3.1467,-3.1467,-3.1467,-3.1467,-3.1467,-3.1467,-3.1467,-3.1467,-3.1467,-3.1422,-3.0702,-3.0088,-2.9535,-2.8846,-2.8233,-2.7799,-2.7679,-2.7649,-2.759,-2.756,-2.756,-2.756,-2.756,-2.756,-2.756,-2.756,-2.756,-2.756,-2.756,-2.756,-2.756,-2.756,-2.756,-2.7545,-2.6707,-2.5824,-2.5061,-2.4253,-2.4207,-2.4451,-2.4855,-2.5335,-2.5819,-2.6315,-2.659,-2.659,-2.6624,-2.6624,-2.6487,-2.6521,-2.6657,-2.6708,-2.6708,-2.6708,-2.6708,-2.6708,-2.6521,-2.6227,-2.5997,-2.5815,-2.5941,-2.6085,-2.6297,-2.6505,-2.6657,-2.6708,-2.6708,-2.6708,-2.6708,-2.6708,-2.6708,-2.6708,-2.4551,-2.4775,-2.4775,-2.4893,-2.4971,-2.4609,-2.5118,-2.6172,-2.6351,-2.7678,-2.9917,-3.0479,-3.0339,-2.9924,-3.0119,-3.009,-2.9739,-2.9792,-2.9779,-2.9779,-2.9779,-2.9779,-2.9779,-2.9779,-2.9779,-2.9779,-2.9779,-2.9779,-2.9779,-2.9779,-2.9767,-2.9691,-2.9214,-2.8662,-2.8109,-2.7557,-2.7005,-2.6615,-2.7868,-2.8876,-2.9827,-3.0703,-3.1409,-3.1467,-3.1467,-3.1467,-3.1467,-3.1467,-3.1467,-3.1467,-3.1467,-3.1467,-3.1375,-3.0836,-3.0372,-2.9953,-2.94,-2.8742,-2.8248,-2.7964,-2.7778,-2.7629,-2.756,-2.756,-2.756,-2.756,-2.756,-2.756,-2.756,-2.756,-2.756,-2.756,-2.756,-2.756,-2.756,-2.756,-2.72,-2.6527,-2.5929,-2.5435,-2.4776,-2.4446,-2.4792,-2.5297,-2.5762,-2.6175,-2.6657,-2.6691,-2.6708,-2.6708,-2.6708,-2.6708,-2.6708,-2.6708,-2.6708,-2.6708,-2.6708,-2.6708,-2.6708,-2.628,-2.5944,-2.5799,-2.5689,-2.5779,-2.5961,-2.6262,-2.6453,-2.6624,-2.6708,-2.6708,-2.6708,-2.6708,-2.6708,-2.6708,-2.6708,-2.4268,-2.4326,-2.4346,-2.4551,-2.4805,-2.4424,-2.4826,-2.5706,-2.5884,-2.6104,-2.6934,-2.8138,-2.8516,-2.8781,-2.9285,-2.9465,-2.9624,-2.9714,-2.9792,-2.9779,-2.9779,-2.9779,-2.9779,-2.9779,-2.9779,-2.9779,-2.9779,-2.9779,-2.9779,-2.9779,-2.9741,-2.9654,-2.9214,-2.8662,-2.8109,-2.7557,-2.7005,-2.6866,-2.7484,-2.8233,-2.9303,-3.051,-3.1087,-3.1394,-3.1467,-3.1467,-3.1467,-3.1467,-3.1467,-3.1467,-3.1467,-3.1467,-3.1377,-3.1061,-3.0717,-3.0328,-2.9983,-2.9227,-2.8553,-2.8165,-2.7877,-2.7616,-2.7533,-2.7458,-2.7458,-2.756,-2.756,-2.756,-2.756,-2.756,-2.756,-2.756,-2.756,-2.756,-2.756,-2.756,-2.7036,-2.6422,-2.5974,-2.5631,-2.5236,-2.4795,-2.5182,-2.5726,-2.6104,-2.6521,-2.6708,-2.6708,-2.6708,-2.6708,-2.6708,-2.6708,-2.6708,-2.6708,-2.6708,-2.6708,-2.6708,-2.6708,-2.6624,-2.6087,-2.5656,-2.5561,-2.554,-2.5615,-2.5799,-2.6191,-2.6487,-2.6657,-2.6708,-2.6708,-2.6708,-2.6708,-2.6708,-2.6708,-2.6708,-2.3594,-2.3906,-2.3906,-2.3975,-2.3984,-2.3584,-2.3457,-2.3721,-2.3839,-2.3827,-2.475,-2.6129,-2.6937,-2.7031,-2.8018,-2.8597,-2.9106,-2.9456,-2.9714,-2.9779,-2.9779,-2.9779,-2.9779,-2.9779,-2.9779,-2.9779,-2.9779,-2.9779,-2.9779,-2.9779,-2.9779,-2.9741,-2.9202,-2.8649,-2.8097,-2.7557,-2.71,-2.6891,-2.7297,-2.8117,-2.8989,-3.0011,-3.0822,-3.1204,-3.1467,-3.1467,-3.1467,-3.1467,-3.1467,-3.1467,-3.1467,-3.1467,-3.1407,-3.1258,-3.0974,-3.0505,-3.0235,-2.9278,-2.8583,-2.7995,-2.7505,-2.6953,-2.6875,-2.6967,-2.7137,-2.7458,-2.7509,-2.756,-2.756,-2.756,-2.756,-2.756,-2.756,-2.756,-2.756,-2.756,-2.7305,-2.6546,-2.5903,-2.5621,-2.5299,-2.529,-2.5561,-2.5961,-2.621,-2.6539,-2.6708,-2.6708,-2.6708,-2.6708,-2.6708,-2.6708,-2.6708,-2.6708,-2.6708,-2.6708,-2.6708,-2.6708,-2.6624,-2.6245,-2.5855,-2.5449,-2.5449,-2.5652,-2.5872,-2.621,-2.647,-2.6708,-2.6708,-2.6708,-2.6708,-2.6708,-2.6708,-2.6708,-2.6708]}]]